[[{"header":{"parameterUnit":"m.s-1","parameterCategory":1,"la1":31.0,"la2":29.5877,"lo1":-88.7671,"lo2":-86.6584,"dy":0.0162,"dx":0.0185,"nx":115,"ny":88,"refTime":"2024-02-22T06:00:00:Z","depth":0,"parameterNumber":2,"parameterNumberName":"U-component_of_WINDS"},"data":[0.0,0.0,0.0,0.0,0.0,0.0,0.0,0.0,0.0,0.0,0.0,0.0,0.0,0.0,0.0,0.0,0.0,0.0,0.0,0.0,0.0,0.0,0.0,0.0,0.0,0.0,0.0,0.0,0.0,0.0,0.0,0.0,0.0,0.0,0.0,0.0,0.0,0.0,0.0,0.0,0.0,0.0,0.0,0.0,0.0,0.0,0.0,0.0,0.0,0.0,0.0,0.0,0.0,0.0,0.0,0.0,0.0,0.0,0.0,0.0,0.0,0.0,0.0,0.0,0.0,0.0,0.0,0.0,0.0,0.0,0.0,0.0,0.0,0.0,0.0,0.0,0.0,0.0,0.0,0.0,0.0,0.0,0.0,0.0,0.0,0.0,0.0,0.0,0.0,0.0,0.0,0.0,0.0,0.0,0.0,0.0,0.0,0.0,0.0,0.0,0.0,0.0,0.0,0.0,0.0,0.0,0.0,0.0,0.0,0.0,0.0,0.0,0.0,0.0,0.0,0.0,0.0,0.0,0.0,0.0,0.0,0.0,0.0,0.0,0.0,0.0,0.0,0.0,0.0,0.0,0.0,0.0,0.0,0.0,0.0,0.0,0.0,0.0,0.0,0.0,0.0,0.0,0.0,0.0,0.0,0.0,0.0,0.0,0.0,0.0,0.0,0.0,0.0,0.0,0.0,0.0,0.0,0.0,0.0,0.0,0.0,0.0,0.0,0.0,0.0,0.0,0.0,0.0,0.0,0.0,0.0,0.0,0.0,0.0,0.0,0.0,0.0,0.0,0.0,0.0,0.0,0.0,0.0,0.0,0.0,0.0,0.0,0.0,0.0,0.0,0.0,0.0,0.0,0.0,0.0,0.0,0.0,0.0,0.0,0.0,0.0,0.0,0.0,0.0,0.0,0.0,0.0,0.0,0.0,0.0,0.0,0.0,0.0,0.0,0.0,0.0,0.0,0.0,0.0,0.0,0.0,0.0,0.0,0.0,0.0,0.0,0.0,0.0,0.0,0.0,0.0,0.0,0.0,0.0,0.0,0.0,0.0,0.0,0.0,0.0,0.0,0.0,0.0,0.0,0.0,0.0,0.0,0.0,0.0,0.0,0.0,0.0,0.0,0.0,0.0,0.0,0.0,0.0,0.0,0.0,0.0,0.0,0.0,0.0,0.0,0.0,0.0,0.0,0.0,0.0,0.0,0.0,0.0,0.0,0.0,0.0,0.0,0.0,0.0,0.0,0.0,0.0,0.0,0.0,0.0,0.0,0.0,0.0,0.0,0.0,0.0,0.0,0.0,0.0,0.0,0.0,0.0,0.0,0.0,0.0,0.0,0.0,0.0,0.0,0.0,0.0,0.0,0.0,0.0,0.0,0.0,0.0,0.0,0.0,0.0,0.0,0.0,0.0,0.0,0.0,0.0,0.0,0.0,0.0,0.0,0.0,0.0,0.0,0.0,0.0,0.0,0.0,0.0,0.0,0.0,0.0,0.0,0.0,0.0,0.0,0.0,0.0,0.0,0.0,0.0,0.0,0.0,0.0,0.0,0.0,0.0,0.0,0.0,0.0,0.0,0.0,0.0,0.0,0.0,0.0,0.0,0.0,0.0,0.0,0.0,0.0,0.0,0.0,0.0,0.0,0.0,0.0,0.0,0.0,0.0,0.0,0.0,0.0,0.0,0.0,0.0,0.0,0.0,0.0,0.0,0.0,0.0,0.0,0.0,0.0,0.0,0.0,0.0,0.0,0.0,0.0,0.0,0.0,0.0,0.0,0.0,0.0,0.0,0.0,0.0,0.0,0.0,0.0,0.0,0.0,0.0,0.0,0.0,0.0,0.0,0.0,0.0,0.0,0.0,0.0,0.0,0.0,0.0,0.0,0.0,0.0,0.0,0.0,0.0,0.0,0.0,0.0,0.0,0.0,0.0,0.0,0.0,0.0,0.0,0.0,0.0,0.0,0.0,0.0,0.0,0.0,0.0,0.0,0.0,0.0,0.0,0.0,0.0,0.0,0.0,0.0,0.0,0.0,0.0,0.0,0.0,0.0,0.0,0.0,0.0,0.0,0.0,0.0,0.0,0.0,0.0,0.0,0.0,0.0,0.0,0.0,0.0,0.0,0.0,0.0,0.0,0.0,0.0,0.0,0.0,0.0,0.0,0.0,0.0,0.0,0.0,0.0,0.0,0.0,0.0,0.0,0.0,0.0,0.0,0.0,0.0,0.0,0.0,0.0,0.0,0.0,0.0,0.0,0.0,0.0,0.0,0.0,0.0,0.0,0.0,0.0,0.0,0.0,0.0,0.0,0.0,0.0,0.0,0.0,0.0,0.0,0.0,0.0,0.0,0.0,0.0,0.0,0.0,0.0,0.0,0.0,0.0,0.0,0.0,0.0,0.0,0.0,0.0,0.0,0.0,0.0,0.0,0.0,0.0,0.0,0.0,0.0,0.0,0.0,0.0,0.0,0.0,0.0,0.0,0.0,0.0,0.0,0.0,0.0,0.0,0.0,0.0,0.0,0.0,0.0,0.0,0.0,0.0,0.0,0.0,0.0,0.0,0.0,0.0,0.0,0.0,0.0,0.0,0.0,0.0,0.0,0.0,0.0,0.0,0.0,0.0,0.0,0.0,0.0,0.0,0.0,0.0,0.0,0.0,0.0,0.0,0.0,0.0,0.0,0.0,0.0,0.0,0.0,0.0,0.0,0.0,0.0,0.0,0.0,0.0,0.0,0.0,0.0,0.0,0.0,0.0,0.0,0.0,0.0,0.0,0.0,0.0,0.0,0.0,0.0,0.0,0.0,0.0,0.0,0.0,0.0,0.0,0.0,0.0,0.0,0.0,0.0,0.0,0.0,0.0,0.0,0.0,0.0,0.0,0.0,0.0,0.0,0.0,0.0,0.0,0.0,0.0,0.0,0.0,0.0,0.0,0.0,0.0,0.0,0.0,0.0,0.0,0.0,0.0,0.0,0.0,0.0,0.0,0.0,0.0,0.0,0.0,0.0,0.0,0.0,0.0,0.0,0.0,0.0,0.0,0.0,0.0,0.0,0.0,0.0,0.0,0.0,0.0,0.0,0.0,0.0,0.0,0.0,0.0,0.0,0.0,0.0,0.0,0.0,0.0,0.0,0.0,0.0,0.0,0.0,0.0,0.0,0.0,0.0,0.0,0.0,0.0,0.0,0.0,0.0,0.0,0.0,0.0,0.0,0.0,0.0,0.0,0.0,0.0,0.0,0.0,0.0,0.0,0.0,0.0,0.0,0.0,0.0,0.0,0.0,0.0,0.0,0.0,0.0,0.0,0.0,0.0,0.0,0.0,0.0,0.0,0.0,0.0,0.0,0.0,0.0,0.0,0.0,0.0,0.0,0.0,0.0,0.0,0.0,0.0,0.0,0.0,0.0,0.0,0.0,0.0,0.0,0.0,0.0,0.0,0.0,0.0,0.0,0.0,0.0,0.0,0.0,0.0,0.0,0.0,0.0,0.0,0.0,0.0,0.0,0.0,0.0,0.0,0.0,0.0,0.0,0.0,0.0,0.0,0.0,0.0,0.0,0.0,0.0,0.0,0.0,0.0,0.0,0.0,0.0,0.0,0.0,0.0,0.0,0.0,0.0,0.0,0.0,0.0,0.0,0.0,0.0,0.0,0.0,0.0,0.0,0.0,0.0,0.0,0.0,0.0,0.0,0.0,0.0,0.0,0.0,0.0,0.0,0.0,0.0,0.0,0.0,0.0,0.0,0.0,0.0,0.0,0.0,0.0,0.0,0.0,0.0,0.0,0.0,0.0,0.0,0.0,0.0,0.0,0.0,0.0,0.0,0.0,0.0,0.0,0.0,0.0,0.0,0.0,0.0,0.0,0.0,0.0,0.0,0.0,0.0,0.0,0.0,0.0,0.0,0.0,0.0,0.0,0.0,0.0,0.0,0.0,0.0,0.0,0.0,0.0,0.0,0.0,0.0,0.0,0.0,0.0,0.0,0.0,0.0,0.0,0.0,0.0,0.0,0.0,0.0,0.0,0.0,0.0,0.0,0.0,0.0,0.0,0.0,0.0,0.0,0.0,0.0,0.0,0.0,0.0,0.0,0.0,0.0,0.0,0.0,0.0,0.0,0.0,0.0,0.0,0.0,0.0,0.0,0.0,0.0,0.0,0.0,0.0,0.0,0.0,0.0,0.0,0.0,0.0,0.0,0.0,0.0,0.0,0.0,0.0,0.0,0.0,0.0,0.0,0.0,0.0,0.0,0.0,0.0,0.0,0.0,0.0,0.0,0.0,0.0,-2.6245,0.0,0.0,0.0,0.0,0.0,0.0,0.0,0.0,0.0,0.0,0.0,0.0,0.0,0.0,0.0,0.0,0.0,0.0,0.0,0.0,0.0,0.0,0.0,0.0,0.0,0.0,0.0,0.0,0.0,0.0,0.0,0.0,0.0,0.0,0.0,0.0,0.0,0.0,0.0,0.0,0.0,0.0,0.0,0.0,0.0,0.0,0.0,0.0,0.0,0.0,0.0,0.0,0.0,0.0,0.0,0.0,0.0,0.0,0.0,0.0,0.0,0.0,0.0,0.0,0.0,0.0,0.0,0.0,0.0,0.0,0.0,0.0,0.0,0.0,0.0,0.0,0.0,0.0,0.0,0.0,0.0,0.0,0.0,0.0,0.0,0.0,0.0,0.0,0.0,0.0,0.0,0.0,0.0,0.0,0.0,0.0,0.0,0.0,0.0,0.0,0.0,0.0,0.0,0.0,0.0,0.0,0.0,0.0,0.0,0.0,-2.588,-2.5867,-2.6092,-2.6337,-2.658,0.0,0.0,0.0,0.0,0.0,0.0,0.0,0.0,0.0,0.0,0.0,0.0,0.0,0.0,0.0,0.0,0.0,0.0,0.0,0.0,0.0,0.0,0.0,0.0,0.0,0.0,0.0,0.0,0.0,0.0,0.0,0.0,0.0,0.0,0.0,0.0,0.0,0.0,0.0,0.0,0.0,0.0,0.0,0.0,0.0,0.0,0.0,0.0,0.0,0.0,0.0,0.0,0.0,0.0,0.0,0.0,0.0,0.0,0.0,0.0,0.0,0.0,0.0,0.0,0.0,0.0,0.0,0.0,0.0,0.0,0.0,0.0,0.0,0.0,0.0,0.0,0.0,0.0,0.0,0.0,0.0,0.0,0.0,0.0,0.0,0.0,0.0,0.0,0.0,0.0,0.0,0.0,0.0,0.0,0.0,0.0,0.0,0.0,0.0,0.0,0.0,0.0,0.0,0.0,0.0,0.0,0.0,0.0,0.0,0.0,0.0,0.0,-2.649,-2.6738,-2.6921,0.0,0.0,0.0,0.0,0.0,0.0,0.0,0.0,0.0,0.0,0.0,0.0,0.0,0.0,0.0,0.0,0.0,0.0,0.0,0.0,0.0,0.0,0.0,0.0,0.0,0.0,0.0,0.0,0.0,0.0,0.0,0.0,0.0,0.0,0.0,0.0,0.0,0.0,0.0,0.0,0.0,0.0,0.0,0.0,0.0,0.0,0.0,0.0,0.0,0.0,0.0,0.0,0.0,0.0,0.0,0.0,0.0,0.0,0.0,0.0,0.0,0.0,0.0,0.0,0.0,0.0,0.0,0.0,0.0,0.0,0.0,0.0,0.0,0.0,0.0,0.0,0.0,0.0,0.0,0.0,0.0,0.0,0.0,0.0,0.0,0.0,0.0,0.0,0.0,0.0,0.0,0.0,0.0,0.0,0.0,0.0,0.0,0.0,0.0,0.0,0.0,0.0,0.0,0.0,0.0,0.0,0.0,0.0,0.0,0.0,-2.6093,-2.655,-2.6592,0.0,-2.7149,0.0,0.0,0.0,0.0,0.0,0.0,0.0,0.0,0.0,0.0,0.0,0.0,0.0,0.0,0.0,0.0,0.0,0.0,0.0,0.0,0.0,0.0,0.0,0.0,0.0,0.0,0.0,0.0,0.0,0.0,0.0,0.0,0.0,0.0,0.0,0.0,0.0,0.0,0.0,0.0,0.0,0.0,0.0,0.0,0.0,0.0,0.0,0.0,0.0,0.0,0.0,0.0,0.0,0.0,0.0,0.0,0.0,0.0,0.0,0.0,0.0,0.0,0.0,0.0,0.0,0.0,0.0,0.0,0.0,0.0,0.0,0.0,0.0,0.0,0.0,0.0,0.0,0.0,0.0,0.0,0.0,0.0,0.0,0.0,0.0,0.0,0.0,0.0,0.0,0.0,0.0,0.0,0.0,0.0,0.0,0.0,0.0,0.0,0.0,0.0,0.0,0.0,0.0,0.0,0.0,0.0,0.0,0.0,0.0,0.0,-2.624,-2.6614,-2.6962,-2.7208,0.0,0.0,0.0,0.0,0.0,0.0,0.0,0.0,0.0,0.0,0.0,0.0,0.0,0.0,0.0,0.0,0.0,0.0,0.0,0.0,0.0,0.0,0.0,0.0,0.0,0.0,0.0,0.0,0.0,0.0,0.0,0.0,0.0,0.0,0.0,0.0,0.0,0.0,0.0,0.0,0.0,0.0,0.0,0.0,0.0,0.0,0.0,0.0,0.0,0.0,0.0,0.0,0.0,0.0,0.0,0.0,0.0,0.0,0.0,0.0,0.0,0.0,0.0,0.0,0.0,0.0,0.0,0.0,0.0,0.0,0.0,0.0,0.0,0.0,0.0,0.0,0.0,0.0,0.0,0.0,0.0,0.0,0.0,0.0,0.0,0.0,0.0,0.0,0.0,0.0,0.0,0.0,0.0,0.0,0.0,0.0,0.0,0.0,0.0,0.0,0.0,0.0,0.0,0.0,0.0,0.0,0.0,0.0,0.0,0.0,-2.5639,-2.5984,-2.635,-2.7054,-2.7405,-2.7405,0.0,0.0,0.0,0.0,0.0,0.0,0.0,0.0,0.0,0.0,0.0,0.0,0.0,0.0,0.0,0.0,0.0,0.0,0.0,0.0,0.0,0.0,0.0,0.0,0.0,0.0,0.0,0.0,0.0,0.0,0.0,0.0,0.0,0.0,0.0,0.0,0.0,0.0,0.0,0.0,0.0,0.0,0.0,0.0,0.0,0.0,0.0,0.0,0.0,0.0,0.0,0.0,0.0,0.0,0.0,0.0,0.0,0.0,0.0,0.0,0.0,0.0,0.0,0.0,0.0,0.0,0.0,0.0,0.0,0.0,0.0,0.0,0.0,0.0,0.0,0.0,0.0,0.0,0.0,0.0,0.0,0.0,0.0,0.0,0.0,0.0,0.0,0.0,0.0,0.0,0.0,0.0,0.0,0.0,0.0,0.0,0.0,0.0,0.0,0.0,0.0,0.0,0.0,0.0,0.0,0.0,0.0,0.0,-2.4837,-2.4807,-2.5077,-2.5769,-2.662,-2.7113,0.0,0.0,0.0,0.0,0.0,0.0,0.0,0.0,0.0,0.0,0.0,0.0,0.0,0.0,0.0,0.0,0.0,0.0,0.0,0.0,0.0,0.0,0.0,0.0,0.0,0.0,0.0,0.0,0.0,0.0,0.0,0.0,0.0,0.0,0.0,0.0,0.0,0.0,0.0,0.0,0.0,0.0,0.0,0.0,0.0,0.0,0.0,0.0,0.0,0.0,0.0,0.0,0.0,0.0,0.0,0.0,0.0,0.0,0.0,0.0,0.0,0.0,0.0,0.0,0.0,0.0,0.0,0.0,0.0,0.0,0.0,0.0,0.0,0.0,0.0,0.0,0.0,0.0,0.0,0.0,0.0,0.0,0.0,0.0,0.0,0.0,0.0,0.0,0.0,0.0,0.0,0.0,0.0,0.0,0.0,0.0,0.0,0.0,0.0,0.0,0.0,0.0,0.0,0.0,0.0,0.0,0.0,0.0,0.0,-2.4183,-2.4807,-2.5422,-2.6077,-2.6556,-2.6946,0.0,0.0,0.0,0.0,0.0,0.0,0.0,0.0,0.0,0.0,0.0,0.0,0.0,0.0,0.0,0.0,0.0,0.0,0.0,0.0,0.0,0.0,0.0,0.0,0.0,0.0,0.0,0.0,0.0,0.0,0.0,0.0,0.0,0.0,0.0,0.0,0.0,0.0,0.0,0.0,0.0,0.0,0.0,0.0,0.0,0.0,0.0,0.0,0.0,0.0,0.0,0.0,0.0,0.0,0.0,0.0,0.0,0.0,0.0,0.0,0.0,0.0,0.0,0.0,0.0,0.0,0.0,0.0,0.0,0.0,0.0,0.0,0.0,0.0,0.0,0.0,0.0,0.0,0.0,0.0,0.0,0.0,0.0,0.0,0.0,0.0,0.0,0.0,0.0,0.0,0.0,0.0,0.0,0.0,0.0,0.0,0.0,0.0,0.0,0.0,0.0,0.0,0.0,0.0,0.0,0.0,0.0,0.0,0.0,-2.391,0.0,-2.5386,-2.6244,-2.6557,-2.6947,0.0,0.0,0.0,0.0,0.0,0.0,0.0,0.0,0.0,0.0,0.0,0.0,0.0,0.0,0.0,0.0,0.0,0.0,0.0,0.0,0.0,0.0,0.0,0.0,0.0,0.0,0.0,0.0,0.0,0.0,0.0,0.0,0.0,0.0,0.0,0.0,0.0,0.0,0.0,0.0,0.0,0.0,0.0,0.0,0.0,0.0,0.0,0.0,0.0,0.0,0.0,0.0,0.0,0.0,0.0,0.0,0.0,0.0,0.0,0.0,0.0,0.0,0.0,0.0,0.0,0.0,0.0,0.0,0.0,0.0,0.0,0.0,0.0,0.0,0.0,0.0,0.0,0.0,0.0,0.0,0.0,0.0,0.0,0.0,0.0,0.0,0.0,0.0,0.0,0.0,0.0,0.0,0.0,0.0,0.0,0.0,0.0,0.0,0.0,0.0,0.0,0.0,0.0,0.0,0.0,0.0,0.0,0.0,-2.3264,-2.4088,-2.4249,-2.5006,-2.6282,-2.6733,-2.7162,0.0,0.0,0.0,0.0,0.0,0.0,0.0,0.0,0.0,0.0,0.0,0.0,0.0,0.0,0.0,0.0,0.0,0.0,0.0,0.0,0.0,0.0,0.0,0.0,0.0,0.0,0.0,0.0,0.0,0.0,0.0,0.0,0.0,0.0,0.0,0.0,0.0,0.0,0.0,0.0,0.0,0.0,0.0,0.0,0.0,0.0,0.0,0.0,0.0,0.0,0.0,0.0,0.0,0.0,0.0,0.0,0.0,0.0,0.0,0.0,0.0,0.0,0.0,0.0,0.0,0.0,0.0,0.0,0.0,0.0,0.0,0.0,0.0,0.0,0.0,0.0,0.0,0.0,0.0,0.0,0.0,0.0,0.0,0.0,0.0,0.0,0.0,0.0,0.0,0.0,0.0,0.0,0.0,0.0,0.0,0.0,0.0,0.0,0.0,0.0,0.0,0.0,0.0,0.0,0.0,0.0,0.0,0.0,0.0,-2.5063,-2.5519,-2.6317,-2.734,-2.7448,-2.7627,0.0,0.0,0.0,0.0,0.0,0.0,0.0,0.0,0.0,0.0,0.0,0.0,0.0,0.0,0.0,0.0,0.0,0.0,0.0,0.0,0.0,0.0,0.0,0.0,0.0,0.0,0.0,0.0,0.0,0.0,0.0,0.0,0.0,0.0,0.0,0.0,0.0,0.0,0.0,0.0,0.0,0.0,0.0,0.0,0.0,0.0,0.0,0.0,0.0,0.0,0.0,0.0,0.0,0.0,0.0,0.0,0.0,0.0,0.0,0.0,0.0,0.0,0.0,0.0,0.0,0.0,0.0,0.0,0.0,0.0,0.0,0.0,0.0,0.0,0.0,0.0,0.0,0.0,0.0,0.0,0.0,0.0,0.0,0.0,0.0,0.0,0.0,0.0,0.0,0.0,0.0,0.0,0.0,0.0,0.0,0.0,0.0,0.0,0.0,0.0,0.0,0.0,0.0,0.0,0.0,0.0,0.0,0.0,0.0,-2.7064,-2.7009,-2.752,-2.8715,-2.8474,-2.84,-2.8627,0.0,0.0,0.0,0.0,0.0,0.0,0.0,0.0,0.0,0.0,0.0,0.0,0.0,0.0,0.0,0.0,0.0,0.0,0.0,0.0,0.0,0.0,0.0,0.0,0.0,0.0,0.0,0.0,0.0,0.0,0.0,0.0,0.0,0.0,0.0,0.0,0.0,0.0,0.0,0.0,0.0,0.0,0.0,0.0,0.0,0.0,0.0,0.0,0.0,0.0,0.0,0.0,0.0,0.0,0.0,0.0,0.0,0.0,0.0,0.0,0.0,0.0,0.0,0.0,0.0,0.0,0.0,0.0,0.0,0.0,0.0,0.0,0.0,0.0,0.0,0.0,0.0,0.0,0.0,0.0,0.0,0.0,0.0,0.0,0.0,0.0,0.0,0.0,0.0,0.0,0.0,0.0,0.0,0.0,0.0,0.0,0.0,0.0,0.0,0.0,0.0,0.0,0.0,0.0,0.0,0.0,0.0,0.0,-3.0039,-2.8722,-2.883,-3.0354,-2.9834,-2.9511,0.0,0.0,0.0,0.0,0.0,0.0,0.0,0.0,0.0,0.0,0.0,0.0,0.0,0.0,0.0,0.0,0.0,0.0,0.0,0.0,0.0,0.0,0.0,0.0,0.0,0.0,0.0,0.0,0.0,0.0,0.0,0.0,0.0,0.0,0.0,0.0,0.0,0.0,0.0,0.0,0.0,0.0,0.0,0.0,0.0,0.0,0.0,0.0,0.0,0.0,0.0,0.0,0.0,0.0,0.0,0.0,0.0,0.0,0.0,0.0,0.0,0.0,0.0,0.0,0.0,0.0,0.0,0.0,0.0,0.0,0.0,0.0,0.0,0.0,0.0,0.0,0.0,0.0,0.0,0.0,0.0,0.0,0.0,0.0,0.0,0.0,0.0,0.0,0.0,0.0,0.0,0.0,0.0,0.0,0.0,0.0,0.0,0.0,0.0,0.0,0.0,0.0,0.0,0.0,0.0,0.0,0.0,0.0,0.0,-3.2084,-3.2865,-3.3109,-3.2914,-3.2413,-3.1669,0.0,0.0,0.0,0.0,0.0,0.0,0.0,0.0,0.0,0.0,0.0,0.0,0.0,0.0,0.0,0.0,0.0,0.0,0.0,0.0,0.0,0.0,0.0,0.0,0.0,0.0,0.0,0.0,0.0,0.0,0.0,0.0,0.0,0.0,0.0,0.0,0.0,0.0,0.0,0.0,0.0,0.0,0.0,0.0,0.0,0.0,0.0,0.0,0.0,0.0,0.0,0.0,0.0,0.0,0.0,0.0,0.0,0.0,0.0,0.0,0.0,0.0,0.0,0.0,0.0,0.0,0.0,0.0,0.0,0.0,0.0,0.0,0.0,0.0,0.0,0.0,0.0,0.0,0.0,0.0,0.0,0.0,0.0,0.0,0.0,0.0,0.0,0.0,0.0,0.0,0.0,0.0,0.0,0.0,0.0,0.0,0.0,0.0,0.0,0.0,0.0,0.0,0.0,0.0,0.0,0.0,0.0,0.0,-3.1127,-3.3847,-3.5935,-3.6868,-3.6496,-3.4949,-3.3398,0.0,0.0,0.0,0.0,0.0,0.0,0.0,0.0,0.0,0.0,0.0,0.0,0.0,0.0,0.0,0.0,0.0,0.0,0.0,0.0,0.0,0.0,0.0,0.0,0.0,0.0,0.0,0.0,0.0,0.0,0.0,0.0,0.0,0.0,0.0,0.0,0.0,0.0,0.0,0.0,0.0,0.0,0.0,0.0,0.0,0.0,0.0,0.0,0.0,0.0,0.0,0.0,0.0,0.0,0.0,0.0,0.0,0.0,0.0,0.0,0.0,0.0,0.0,0.0,0.0,0.0,0.0,0.0,0.0,0.0,0.0,0.0,0.0,0.0,0.0,0.0,0.0,0.0,0.0,0.0,0.0,0.0,0.0,0.0,0.0,0.0,0.0,0.0,0.0,0.0,0.0,0.0,0.0,0.0,0.0,0.0,0.0,0.0,0.0,0.0,0.0,0.0,0.0,0.0,0.0,0.0,0.0,0.0,-3.3146,-3.5617,-3.8315,-3.991,-4.0235,-3.731,-3.4933,0.0,0.0,0.0,0.0,0.0,0.0,0.0,0.0,0.0,0.0,0.0,0.0,0.0,0.0,0.0,0.0,0.0,0.0,0.0,0.0,0.0,0.0,0.0,0.0,0.0,0.0,0.0,0.0,0.0,0.0,0.0,0.0,0.0,0.0,0.0,0.0,0.0,0.0,0.0,0.0,0.0,0.0,0.0,0.0,0.0,0.0,0.0,0.0,0.0,0.0,0.0,0.0,0.0,0.0,0.0,0.0,0.0,0.0,0.0,0.0,0.0,0.0,0.0,0.0,0.0,0.0,0.0,0.0,0.0,0.0,0.0,0.0,0.0,0.0,0.0,0.0,0.0,0.0,0.0,0.0,0.0,0.0,0.0,0.0,0.0,0.0,0.0,0.0,0.0,0.0,0.0,0.0,0.0,0.0,0.0,0.0,0.0,0.0,0.0,0.0,0.0,0.0,0.0,0.0,0.0,0.0,0.0,0.0,-3.4831,-3.8408,-4.0167,-4.1438,-4.2074,-3.9616,-3.7086,0.0,0.0,0.0,0.0,0.0,0.0,0.0,0.0,0.0,0.0,0.0,0.0,0.0,0.0,0.0,0.0,0.0,0.0,0.0,0.0,0.0,0.0,0.0,0.0,0.0,0.0,0.0,0.0,0.0,0.0,0.0,0.0,0.0,0.0,0.0,0.0,0.0,0.0,0.0,0.0,0.0,0.0,0.0,0.0,0.0,0.0,0.0,0.0,-3.1008,0.0,0.0,0.0,0.0,0.0,0.0,0.0,0.0,0.0,0.0,0.0,0.0,0.0,0.0,0.0,0.0,0.0,0.0,0.0,0.0,0.0,0.0,0.0,0.0,0.0,0.0,0.0,0.0,0.0,0.0,0.0,0.0,0.0,0.0,0.0,0.0,0.0,0.0,0.0,0.0,0.0,0.0,0.0,0.0,0.0,0.0,0.0,0.0,0.0,0.0,0.0,0.0,0.0,0.0,0.0,0.0,0.0,0.0,0.0,-3.604,-3.9333,-4.1004,-4.2246,-4.294,-4.0921,-3.8451,0.0,0.0,0.0,0.0,0.0,0.0,0.0,0.0,0.0,0.0,0.0,0.0,0.0,0.0,0.0,0.0,0.0,0.0,0.0,0.0,0.0,0.0,0.0,0.0,0.0,0.0,0.0,0.0,0.0,0.0,0.0,0.0,0.0,0.0,0.0,0.0,0.0,0.0,0.0,0.0,0.0,0.0,0.0,0.0,0.0,0.0,0.0,0.0,0.0,0.0,0.0,0.0,0.0,0.0,0.0,0.0,0.0,0.0,0.0,0.0,0.0,0.0,0.0,0.0,0.0,0.0,0.0,0.0,0.0,0.0,0.0,0.0,0.0,0.0,0.0,0.0,0.0,0.0,0.0,0.0,0.0,0.0,0.0,0.0,0.0,0.0,0.0,0.0,0.0,0.0,0.0,0.0,0.0,0.0,0.0,0.0,0.0,0.0,0.0,0.0,0.0,0.0,0.0,0.0,0.0,0.0,0.0,-3.3782,-3.7011,-3.9765,-4.1531,-4.2743,-4.3476,-4.1601,-3.9245,-3.6514,0.0,0.0,0.0,0.0,0.0,0.0,0.0,0.0,0.0,0.0,0.0,0.0,0.0,0.0,0.0,0.0,0.0,0.0,0.0,0.0,0.0,0.0,0.0,0.0,0.0,0.0,0.0,0.0,0.0,0.0,0.0,0.0,0.0,0.0,0.0,0.0,0.0,0.0,-2.8856,-2.9663,0.0,0.0,0.0,0.0,0.0,0.0,0.0,0.0,-3.1857,0.0,0.0,0.0,0.0,0.0,0.0,0.0,0.0,0.0,0.0,0.0,0.0,0.0,0.0,0.0,0.0,0.0,0.0,0.0,0.0,0.0,0.0,0.0,0.0,0.0,0.0,0.0,0.0,0.0,0.0,0.0,0.0,0.0,0.0,0.0,0.0,0.0,0.0,0.0,0.0,0.0,0.0,0.0,0.0,0.0,0.0,0.0,0.0,0.0,0.0,0.0,0.0,0.0,0.0,0.0,0.0,-3.1133,-3.4734,-3.8088,-4.1151,-4.2633,-4.3421,-4.3504,-4.144,-3.9135,-3.6725,0.0,0.0,0.0,0.0,0.0,0.0,0.0,0.0,0.0,0.0,0.0,0.0,0.0,0.0,0.0,0.0,0.0,0.0,0.0,0.0,0.0,0.0,0.0,0.0,0.0,0.0,0.0,0.0,0.0,0.0,0.0,0.0,0.0,0.0,0.0,0.0,0.0,0.0,0.0,-3.0801,-3.1174,0.0,0.0,0.0,0.0,0.0,0.0,0.0,0.0,-3.4132,0.0,0.0,0.0,0.0,0.0,0.0,0.0,0.0,0.0,0.0,0.0,0.0,0.0,0.0,0.0,0.0,0.0,0.0,0.0,0.0,0.0,0.0,0.0,0.0,0.0,0.0,0.0,0.0,0.0,0.0,0.0,0.0,0.0,0.0,0.0,0.0,0.0,0.0,0.0,0.0,0.0,0.0,0.0,0.0,0.0,0.0,0.0,0.0,0.0,0.0,0.0,0.0,0.0,0.0,0.0,-3.2085,-3.5438,-3.8585,-4.1483,-4.2663,-4.3242,-4.3201,-4.1048,-3.8792,0.0,0.0,0.0,0.0,0.0,0.0,0.0,0.0,0.0,0.0,0.0,0.0,0.0,0.0,0.0,0.0,0.0,0.0,0.0,0.0,0.0,0.0,0.0,0.0,0.0,0.0,0.0,0.0,0.0,0.0,0.0,0.0,0.0,0.0,0.0,0.0,0.0,0.0,0.0,0.0,-3.165,-3.2168,-3.2395,0.0,0.0,0.0,0.0,0.0,0.0,-3.4941,-3.5024,0.0,0.0,0.0,0.0,0.0,0.0,0.0,0.0,0.0,0.0,0.0,0.0,0.0,0.0,0.0,0.0,0.0,0.0,0.0,0.0,0.0,0.0,0.0,0.0,0.0,0.0,0.0,0.0,0.0,0.0,0.0,0.0,0.0,0.0,0.0,0.0,0.0,0.0,0.0,0.0,0.0,0.0,0.0,0.0,0.0,0.0,0.0,0.0,0.0,0.0,0.0,0.0,0.0,0.0,0.0,-3.2851,-3.6018,-3.8957,-4.1586,-4.2497,-4.2932,-4.287,-4.0563,-3.8316,0.0,0.0,0.0,0.0,0.0,0.0,0.0,0.0,0.0,0.0,0.0,0.0,0.0,0.0,0.0,0.0,0.0,0.0,0.0,0.0,0.0,0.0,0.0,0.0,0.0,0.0,0.0,0.0,0.0,0.0,0.0,0.0,0.0,0.0,0.0,0.0,0.0,0.0,0.0,0.0,0.0,-3.3265,-3.3617,-3.4527,0.0,0.0,0.0,0.0,-3.5851,-3.587,0.0,0.0,0.0,0.0,0.0,0.0,0.0,0.0,0.0,0.0,0.0,0.0,0.0,0.0,0.0,0.0,0.0,0.0,0.0,0.0,0.0,0.0,0.0,0.0,0.0,0.0,0.0,0.0,0.0,0.0,0.0,0.0,0.0,0.0,0.0,0.0,0.0,0.0,0.0,0.0,0.0,0.0,0.0,0.0,0.0,0.0,0.0,0.0,0.0,0.0,0.0,0.0,0.0,0.0,0.0,0.0,-3.3285,-3.6473,-3.9433,-4.2115,-4.2663,-4.2932,-4.289,-4.0253,-3.7794,0.0,0.0,0.0,0.0,0.0,0.0,0.0,0.0,0.0,0.0,0.0,0.0,0.0,0.0,0.0,0.0,0.0,0.0,0.0,0.0,0.0,0.0,0.0,0.0,0.0,0.0,0.0,0.0,0.0,0.0,0.0,0.0,0.0,0.0,0.0,0.0,0.0,0.0,0.0,0.0,0.0,-3.4608,-3.465,-3.5728,-3.6577,0.0,0.0,-3.731,-3.7376,-3.7388,0.0,0.0,0.0,0.0,0.0,0.0,0.0,0.0,0.0,0.0,0.0,0.0,0.0,0.0,0.0,0.0,0.0,0.0,0.0,0.0,0.0,0.0,0.0,0.0,0.0,0.0,0.0,0.0,0.0,0.0,0.0,0.0,0.0,0.0,0.0,0.0,0.0,0.0,0.0,0.0,0.0,0.0,0.0,0.0,0.0,0.0,0.0,0.0,0.0,0.0,0.0,0.0,0.0,0.0,0.0,-3.0843,-3.382,-3.6929,-3.964,-4.1845,-4.2559,-4.2683,-4.2166,-3.9943,-3.7653,0.0,0.0,0.0,0.0,0.0,0.0,0.0,0.0,0.0,0.0,0.0,0.0,0.0,0.0,0.0,0.0,0.0,0.0,0.0,0.0,0.0,0.0,0.0,0.0,0.0,0.0,0.0,0.0,0.0,0.0,0.0,0.0,0.0,0.0,0.0,0.0,0.0,0.0,0.0,0.0,0.0,0.0,-3.5674,-3.7034,0.0,0.0,0.0,-3.9101,-3.8838,0.0,0.0,0.0,0.0,0.0,0.0,0.0,0.0,0.0,0.0,0.0,0.0,0.0,0.0,0.0,0.0,0.0,0.0,0.0,0.0,0.0,0.0,0.0,0.0,0.0,0.0,0.0,0.0,0.0,0.0,0.0,0.0,0.0,0.0,0.0,0.0,0.0,0.0,0.0,0.0,0.0,0.0,0.0,0.0,0.0,0.0,0.0,0.0,0.0,0.0,0.0,0.0,0.0,0.0,0.0,0.0,0.0,-3.3813,-3.6958,-3.9445,-4.1213,-4.2159,-4.2241,-4.1439,-3.9569,0.0,0.0,0.0,0.0,0.0,0.0,0.0,0.0,0.0,0.0,0.0,0.0,0.0,0.0,0.0,0.0,0.0,0.0,0.0,0.0,0.0,0.0,0.0,0.0,0.0,0.0,0.0,-2.8607,0.0,0.0,0.0,0.0,0.0,0.0,0.0,0.0,0.0,0.0,0.0,0.0,0.0,0.0,-3.6127,-3.675,-3.8276,-3.922,0.0,0.0,-4.0358,-3.9938,-3.9505,-3.9138,0.0,0.0,0.0,0.0,0.0,0.0,0.0,0.0,0.0,0.0,0.0,0.0,0.0,0.0,0.0,0.0,0.0,0.0,0.0,0.0,0.0,0.0,0.0,0.0,0.0,0.0,0.0,0.0,0.0,0.0,0.0,0.0,0.0,0.0,0.0,0.0,0.0,0.0,0.0,0.0,0.0,0.0,0.0,0.0,0.0,0.0,0.0,0.0,0.0,0.0,0.0,0.0,0.0,0.0,-3.0515,-3.3155,-3.6219,-3.8678,-4.0411,-4.1338,-4.158,-4.113,-3.894,-3.6743,0.0,0.0,0.0,0.0,0.0,0.0,0.0,0.0,0.0,0.0,0.0,0.0,0.0,0.0,0.0,0.0,0.0,0.0,0.0,0.0,0.0,0.0,0.0,0.0,0.0,0.0,0.0,0.0,0.0,0.0,0.0,0.0,0.0,0.0,0.0,0.0,0.0,0.0,0.0,0.0,0.0,-3.728,-3.8096,-3.9381,-4.0151,0.0,-4.0669,-4.0881,-4.0425,-4.0046,-3.9559,-3.868,0.0,0.0,0.0,0.0,0.0,0.0,0.0,0.0,0.0,0.0,0.0,0.0,0.0,0.0,0.0,0.0,0.0,0.0,0.0,0.0,0.0,0.0,0.0,0.0,0.0,0.0,0.0,0.0,0.0,0.0,0.0,0.0,0.0,0.0,0.0,0.0,0.0,0.0,0.0,0.0,0.0,0.0,0.0,0.0,0.0,0.0,0.0,0.0,0.0,0.0,0.0,0.0,0.0,-3.0866,-3.3201,-3.6028,-3.8181,-3.9603,-4.0492,-4.0611,-3.9919,-3.83,-3.6491,0.0,0.0,0.0,0.0,0.0,0.0,0.0,0.0,0.0,0.0,0.0,0.0,0.0,0.0,0.0,0.0,0.0,0.0,0.0,0.0,0.0,0.0,0.0,0.0,0.0,0.0,0.0,0.0,-2.9891,-2.9994,-3.0284,0.0,0.0,0.0,0.0,0.0,0.0,0.0,0.0,0.0,0.0,-3.7272,-3.7649,-3.9023,0.0,0.0,-4.0434,-4.0666,-4.0472,-3.9891,-3.9213,-3.8588,-3.7893,0.0,0.0,0.0,0.0,0.0,0.0,0.0,0.0,0.0,0.0,0.0,0.0,0.0,0.0,0.0,0.0,0.0,0.0,0.0,0.0,0.0,0.0,0.0,0.0,0.0,0.0,0.0,0.0,0.0,0.0,0.0,0.0,0.0,0.0,0.0,0.0,0.0,0.0,0.0,0.0,0.0,0.0,0.0,0.0,0.0,0.0,0.0,0.0,0.0,0.0,0.0,0.0,-3.0957,-3.3019,-3.55,-3.7408,-3.866,-3.9548,-3.9702,-3.9065,-3.7904,-3.6499,0.0,0.0,0.0,0.0,0.0,0.0,0.0,0.0,0.0,0.0,0.0,0.0,0.0,0.0,0.0,0.0,0.0,0.0,0.0,0.0,0.0,0.0,0.0,0.0,0.0,0.0,0.0,0.0,-3.0905,-3.1029,-3.134,0.0,0.0,0.0,0.0,0.0,0.0,0.0,0.0,0.0,0.0,-3.6872,-3.7287,-3.8629,-3.9548,-3.9702,-4.0179,-4.0502,-4.0472,-3.9893,-3.9235,-3.874,0.0,0.0,0.0,0.0,0.0,0.0,0.0,0.0,0.0,0.0,0.0,0.0,0.0,0.0,0.0,0.0,0.0,0.0,0.0,0.0,0.0,0.0,0.0,0.0,0.0,0.0,0.0,0.0,0.0,0.0,-2.4231,0.0,0.0,0.0,0.0,0.0,0.0,0.0,0.0,0.0,0.0,0.0,0.0,0.0,0.0,0.0,0.0,0.0,0.0,0.0,0.0,0.0,0.0,-3.0617,-3.2422,-3.449,-3.6178,-3.7408,-3.8698,-3.9108,-3.8583,-3.7802,-3.6777,-3.5452,0.0,0.0,0.0,0.0,0.0,0.0,0.0,0.0,0.0,0.0,0.0,0.0,0.0,0.0,0.0,0.0,0.0,0.0,0.0,0.0,0.0,0.0,0.0,0.0,0.0,0.0,-3.136,-3.1381,-3.1381,0.0,0.0,0.0,0.0,0.0,0.0,0.0,0.0,0.0,0.0,-3.5024,-3.6072,-3.7213,-3.8122,-3.8823,-3.9222,-3.999,-4.0472,-4.0452,-4.01,-3.9726,0.0,0.0,0.0,0.0,0.0,0.0,0.0,0.0,0.0,0.0,0.0,0.0,0.0,0.0,0.0,0.0,0.0,0.0,0.0,0.0,0.0,0.0,0.0,0.0,0.0,0.0,0.0,-2.4402,-2.4757,0.0,0.0,0.0,0.0,0.0,0.0,0.0,0.0,0.0,0.0,0.0,-2.7807,-2.8194,0.0,0.0,0.0,0.0,0.0,0.0,0.0,0.0,0.0,0.0,0.0,0.0,-3.0076,-3.21,-3.3889,-3.5332,-3.6579,-3.7517,-3.7806,-3.7409,-3.666,-3.5449,-3.3927,0.0,0.0,0.0,0.0,0.0,0.0,0.0,0.0,0.0,0.0,0.0,0.0,0.0,0.0,0.0,0.0,0.0,0.0,0.0,0.0,0.0,0.0,0.0,0.0,0.0,-3.1505,0.0,0.0,0.0,0.0,0.0,0.0,0.0,0.0,0.0,0.0,0.0,-3.3341,-3.3719,-3.4852,-3.5835,-3.649,-3.7334,-3.8028,0.0,0.0,0.0,0.0,0.0,0.0,0.0,0.0,0.0,0.0,0.0,0.0,0.0,0.0,-3.5171,-3.5211,-3.4859,-3.4636,-3.5175,0.0,0.0,0.0,0.0,0.0,0.0,0.0,0.0,0.0,0.0,0.0,0.0,0.0,0.0,-2.5364,0.0,-2.5548,0.0,0.0,0.0,0.0,0.0,0.0,0.0,0.0,-2.8,-2.8682,-2.9171,-2.969,-2.9942,0.0,-3.0248,-2.9786,0.0,0.0,0.0,0.0,0.0,0.0,0.0,0.0,-3.0202,-3.2165,-3.3499,-3.4782,-3.5927,-3.672,-3.7002,-3.6755,-3.6153,-3.5124,-3.383,-3.2991,-3.2572,0.0,0.0,0.0,0.0,0.0,0.0,0.0,0.0,0.0,0.0,0.0,0.0,0.0,0.0,0.0,0.0,0.0,0.0,0.0,0.0,0.0,0.0,0.0,-3.2205,0.0,0.0,0.0,0.0,0.0,0.0,0.0,0.0,0.0,-3.2289,-3.2892,-3.35,-3.3766,-3.4746,-3.5523,-3.5977,0.0,0.0,0.0,0.0,0.0,0.0,0.0,-3.8735,-3.8676,-3.8676,-3.8539,-3.7758,-3.7532,-3.7517,-3.7659,0.0,0.0,-3.6178,-3.5551,-3.5331,-3.597,-3.6201,-3.645,-3.6966,-3.7072,-3.7126,0.0,0.0,0.0,0.0,0.0,0.0,0.0,0.0,-2.6076,-2.6459,0.0,-2.6667,0.0,0.0,0.0,0.0,0.0,-2.7013,0.0,0.0,-2.933,-2.9813,-3.0549,-3.1298,-3.1587,-3.162,-3.1932,-3.1909,-3.1377,-2.9658,0.0,0.0,0.0,0.0,0.0,0.0,-3.0956,-3.2561,-3.3443,-3.4423,-3.5652,-3.6341,-3.6724,-3.6689,-3.6385,-3.5833,-3.5026,-3.4486,-3.4098,-3.3737,-3.3345,0.0,0.0,0.0,0.0,0.0,0.0,0.0,0.0,0.0,0.0,0.0,0.0,0.0,0.0,0.0,0.0,0.0,0.0,0.0,0.0,-3.3151,0.0,0.0,0.0,0.0,0.0,0.0,0.0,0.0,0.0,0.0,-3.3021,-3.3105,-3.3427,-3.419,0.0,0.0,0.0,0.0,-3.6918,-3.7314,-3.8077,-3.8844,-3.9726,-3.9481,-3.9343,-3.9733,0.0,0.0,-3.8432,-3.8169,-3.8167,-3.8627,-3.8141,-3.7571,-3.6719,-3.619,-3.5896,-3.6285,-3.6641,-3.6878,-3.6929,-3.7064,-3.7115,-2.7929,0.0,0.0,0.0,0.0,-2.6102,-2.6568,-2.7258,-2.7715,-2.8194,-2.8643,-2.8225,0.0,0.0,0.0,0.0,0.0,0.0,-3.0035,-3.0909,-3.2053,-3.2825,-3.33,-3.3817,-3.4104,-3.4087,-3.4144,-3.3887,-3.3179,-3.2625,-3.1339,-2.9429,0.0,0.0,0.0,0.0,-3.1502,-3.2615,-3.398,-3.5122,-3.6022,-3.6799,-3.7082,-3.6817,-3.6666,-3.6427,-3.5836,-3.5412,-3.5277,-3.5401,-3.4887,0.0,0.0,0.0,0.0,0.0,0.0,0.0,0.0,0.0,0.0,0.0,0.0,0.0,0.0,0.0,0.0,0.0,0.0,0.0,-3.2814,-3.3377,-3.3518,0.0,0.0,0.0,0.0,0.0,0.0,0.0,0.0,0.0,-3.4163,-3.4084,-3.4134,0.0,0.0,-3.5284,-3.5944,-3.6194,-3.6645,-3.7304,-3.7812,0.0,-3.8798,-3.8996,-3.9285,-3.9623,-3.9398,-3.9218,-3.9071,-3.8795,-3.8536,-3.851,-3.8097,-3.7707,-3.7771,-3.6877,-3.6411,-3.6893,-3.7135,-3.7466,-3.781,-3.7939,-3.7955,-3.1507,-2.9975,-2.8102,-2.7496,-2.7864,-2.8143,-2.8589,-2.9193,-2.9615,-3.0053,-3.0463,-3.0173,-3.0137,-3.0172,-2.9926,0.0,0.0,0.0,-3.2524,-3.3564,-3.4622,-3.551,-3.6164,-3.6587,-3.67,-3.6518,-3.6531,-3.6073,-3.5263,-3.4962,-3.386,-3.2118,0.0,0.0,-3.0698,-3.1418,-3.2173,-3.3055,-3.4612,-3.5775,-3.6409,-3.7335,-3.7726,-3.727,-3.7252,-3.7108,-3.6691,-3.6422,-3.6346,-3.6333,-3.6064,-3.5713,0.0,0.0,0.0,0.0,0.0,0.0,0.0,0.0,0.0,0.0,0.0,-3.0227,-3.0844,0.0,0.0,0.0,-3.2385,-3.2695,-3.3437,-3.3776,0.0,0.0,0.0,0.0,0.0,0.0,0.0,-3.4475,-3.4041,-3.418,-3.5449,-3.5594,-3.541,-3.5194,-3.5357,-3.5698,-3.6312,0.0,-3.6827,-3.7488,-3.8077,-3.8554,-3.8944,-3.9204,-3.9442,-3.9526,-3.9217,-3.9034,-3.8965,-3.8799,-3.859,-3.8504,-3.8174,-3.8035,-3.8347,-3.7521,-3.7036,-3.7505,-3.7631,-3.7786,-3.8174,-3.8237,-3.8237,-3.5031,-3.4913,-3.1474,-3.0137,-3.015,-3.015,-3.0814,-3.1728,-3.182,-3.2047,-3.25,-3.2542,-3.2328,-3.1976,-3.2455,0.0,-3.381,-3.4236,-3.5192,-3.6722,-3.7067,-3.7865,-3.9091,-3.9486,-3.9456,-3.9003,-3.9012,-3.8576,-3.7666,-3.6941,-3.6297,-3.5654,-3.3513,-3.227,-3.203,-3.2467,-3.3063,-3.3835,-3.5448,-3.6492,-3.695,-3.8084,-3.8425,-3.8002,-3.8002,-3.7865,-3.7484,-3.7465,-3.7236,-3.6836,-3.7064,-3.6714,-3.5851,0.0,0.0,0.0,0.0,0.0,0.0,0.0,0.0,0.0,0.0,0.0,0.0,0.0,0.0,0.0,-3.2815,0.0,-3.406,-3.4164,0.0,0.0,0.0,-3.448,-3.3851,-3.4463,-3.5065,-3.5622,0.0,0.0,-3.6879,-3.7298,-3.7099,-3.6006,-3.6142,-3.6539,-3.6851,-3.7206,-3.7515,-3.8011,-3.8618,-3.9236,-3.9559,-3.9792,-3.9805,-3.9472,-3.9,-3.8545,-3.8376,-3.8497,-3.8531,-3.8477,-3.838,-3.8257,-3.8272,-3.7865,-3.7734,-3.7991,-3.8098,-3.8113,-3.8189,-3.8204,-3.8204,-3.743,-3.7434,-3.6625,-3.5137,-3.3244,-3.3228,-3.3553,-3.4123,-3.4442,-3.484,-3.5237,-3.5339,-3.5277,-3.521,-3.5646,-3.6142,-3.6551,-3.7334,-3.8198,-3.9133,-3.9858,-4.0496,-4.1132,-4.1551,-4.1732,-4.1616,-4.1618,-4.1113,-4.0297,-4.0075,-3.9259,-3.7834,-3.7173,-3.5835,-3.3731,-3.406,-3.4535,-3.5167,-3.613,-3.7127,-3.8176,-3.8778,-3.8761,-3.8028,-3.8009,-3.7915,-3.7794,-3.7744,-3.787,-3.7968,-3.7637,-3.7206,-3.6668,-3.5745,0.0,0.0,0.0,0.0,0.0,0.0,0.0,0.0,0.0,-3.1239,-3.1974,0.0,-3.2061,0.0,-3.4108,-3.4437,-3.4599,-3.4667,0.0,0.0,-3.4997,-3.5257,-3.5093,-3.5515,-3.6165,-3.6826,-3.6691,-3.6918,-3.8036,-3.8222,-3.822,-3.7825,-3.7918,-3.8145,-3.8473,-3.8327,-3.8424,-3.9003,-3.8977,-3.9035,-3.9648,-3.9666,-3.9462,-3.9354,-3.8846,-3.8326,-3.806,-3.8073,-3.7984,-3.7906,-3.7823,-3.778,-3.778,-3.787,-3.7987,-3.8059,-3.8131,-3.8205,-3.8324,-3.8369,-3.8369,-3.9649,-4.0036,-3.9947,-3.9073,-3.7809,-3.6654,-3.6389,-3.6741,-3.699,-3.7383,-3.7766,-3.7846,-3.7975,-3.8158,-3.8467,-3.891,-3.944,-3.9934,-4.069,-4.1702,-4.2123,-4.2658,-4.3232,-4.3475,-4.3537,-4.3339,-4.3339,-4.2784,-4.1773,-4.1745,-4.0923,-3.9365,-3.9231,-3.8197,-3.6445,-3.6219,-3.6269,-3.6654,-3.7822,-3.8941,-3.9965,-4.0238,-4.0043,-3.9362,-3.8973,-3.8657,-3.8445,-3.8228,-3.8125,-3.8117,-3.7968,-3.7616,-3.6963,-3.6364,-3.5832,0.0,0.0,0.0,0.0,0.0,0.0,0.0,0.0,0.0,0.0,0.0,-3.3283,-3.4642,-3.5193,-3.5384,-3.5454,-3.541,-3.5433,-3.5433,-3.596,-3.6312,-3.6386,-3.6881,-3.7539,-3.8163,-3.8225,-3.8504,-3.9359,-3.971,-3.9994,-3.9974,-4.0065,-4.0014,-3.9479,-3.9298,-3.9413,-3.9791,-3.963,-3.9626,-3.9807,-3.9368,-3.891,-3.8588,-3.8318,-3.8067,-3.7635,-3.7613,-3.7675,-3.7635,-3.7578,-3.7578,-3.7578,-3.7709,-3.7841,-3.7841,-3.7841,-3.7973,-3.8265,-3.8324,-3.8295,-4.1675,-4.2524,-4.2196,-4.2399,-4.2673,-4.0428,-3.9491,-3.9489,-3.9592,-3.989,-4.037,-4.0414,-4.069,-4.1072,-4.1238,-4.1679,-4.233,-4.233,-4.3011,-4.4057,-4.4057,-4.448,-4.5127,-4.5127,-4.5007,-4.4623,-4.4603,-4.3977,-4.2786,-4.2803,-4.2135,-4.0921,-4.0436,-3.995,-3.9445,-3.8737,-3.8306,-3.8166,-3.9778,-4.0963,-4.157,-4.1646,-4.1404,-4.0955,-4.0036,-3.9372,-3.898,-3.8557,-3.8154,-3.7819,-3.801,-3.7867,-3.7131,-3.6941,-3.6742,0.0,-3.5583,0.0,0.0,0.0,0.0,0.0,0.0,0.0,0.0,-3.4817,-3.5113,-3.592,-3.6284,-3.6551,-3.6607,-3.6534,-3.6512,-3.6549,-3.7191,-3.7668,-3.7763,-3.8406,-3.905,-3.9571,-3.994,-4.0409,-4.0925,-4.1542,-4.2002,-4.1953,-4.2278,-4.1988,-4.0662,-4.0433,-4.054,-4.0421,-4.0628,-4.0446,-3.9789,-3.9156,-3.8513,-3.7801,-3.7614,-3.7516,-3.7019,-3.7153,-3.7373,-3.7417,-3.7402,-3.7417,-3.7446,-3.7475,-3.7504,-3.762,-3.7766,-3.7796,-3.7929,-3.8002,-3.79,-4.3848,-4.4379,-4.4762,-4.5075,-4.5474,-4.5058,-4.3646,-4.1755,-4.2118,-4.2769,-4.3528,-4.3545,-4.376,-4.424,-4.4582,-4.4833,-4.4996,-4.535,-4.544,-4.5345,-4.5715,-4.582,-4.5556,-4.5942,-4.5982,-4.5981,-4.5981,-4.5651,-4.5054,-4.4663,-4.3983,-4.3015,-4.2542,-4.1904,-4.1142,0.0,0.0,0.0,-4.0445,-4.1102,-4.1183,-4.1183,-4.0875,-4.0089,-3.9111,0.0,-3.8438,-3.797,-3.7861,-3.8094,-3.781,0.0,0.0,0.0,0.0,0.0,0.0,0.0,0.0,0.0,0.0,0.0,-3.8589,-3.8105,-3.732,-3.7538,-3.788,-3.8064,-3.814,-3.834,-3.8657,-3.8361,-3.8181,-3.8199,-3.8603,-3.9037,-3.9374,-3.9882,-4.054,-4.1617,-4.1869,-4.2189,-4.297,-4.3555,-4.3665,-4.3336,-4.3953,-4.4071,-4.3342,-4.2345,-4.1727,-4.1656,-4.1343,-4.0695,-3.9564,-3.9002,-3.8308,-3.7494,-3.6964,-3.6624,-3.6373,-3.6363,-3.6509,-3.6729,-3.6787,-3.6787,-3.6787,-3.6992,-3.7339,-3.7784,-3.8093,-3.8114,-3.7767,-3.7665,-3.7651,-4.548,0.0,-4.6201,-4.6551,0.0,-4.7205,-4.6523,-4.5329,-4.4856,-4.4885,-4.5293,-4.5333,-4.5509,-4.5763,-4.5932,-4.6185,-4.6437,-4.6606,-4.6735,-4.6678,-4.6947,-4.6784,-4.6372,-4.6515,-4.6575,-4.6266,-4.6266,-4.6119,-4.5685,-4.5436,-4.4981,-4.4298,-4.3594,-4.3139,-4.2911,-4.2704,-4.2101,-4.1056,-4.1637,-4.1963,-4.1963,-4.1759,-4.1506,-4.1056,0.0,0.0,0.0,0.0,0.0,0.0,0.0,0.0,0.0,0.0,0.0,-3.9185,-3.9392,-3.962,-3.9847,-4.0075,-4.0489,-4.1151,-4.1503,-4.0922,-3.9238,-3.9411,-3.9732,-4.0202,-4.0195,-4.0375,-4.0773,-4.0696,-4.0546,-4.0565,-4.067,-4.0939,-4.1372,-4.1429,-4.1858,-4.2842,-4.3212,-4.3602,-4.426,-4.4722,-4.4805,-4.4667,-4.475,-4.4794,-4.451,-4.3918,-4.335,-4.2801,-4.181,-4.0817,-3.9806,-3.8901,-3.8072,-3.7141,-3.6677,-3.6267,-3.5948,-3.5895,-3.5939,-3.61,-3.6129,-3.6129,-3.6144,-3.6471,-3.6853,-3.7079,-3.7493,-3.7712,-3.7431,-3.767,-3.7735,-4.6813,-4.7268,-4.7347,-4.7648,-4.8123,-4.8568,-4.875,-4.8621,0.0,0.0,0.0,-4.6736,-4.6828,-4.6933,-4.6912,-4.7101,-4.7438,-4.7438,-4.7565,-4.7796,-4.7817,-4.7568,-4.7154,-4.7154,-4.6906,-4.639,-4.639,-4.6244,-4.5809,-4.5726,-4.5498,-4.5064,-4.4277,-4.4049,-4.436,-4.3594,-4.3035,-4.2841,-4.2849,-4.2952,-4.3035,-4.26,-4.2373,-4.2373,-4.1131,-4.0282,-3.9909,-3.9454,-3.9137,-3.9137,-3.9206,-3.9454,-3.9992,-4.0386,-4.0696,-4.0965,-4.1648,-4.2083,-4.2166,-4.26,-4.3056,-4.3339,-4.3639,-4.3111,-4.1323,-4.1201,-4.1561,-4.2407,-4.2336,-4.2481,-4.2905,-4.2818,-4.2694,-4.2694,-4.2694,-4.293,-4.33,-4.3098,-4.3234,-4.3994,-4.4414,-4.4732,-4.517,-4.5413,-4.5638,-4.5551,-4.5212,-4.4995,-4.5052,-4.4914,-4.4422,-4.3552,-4.2407,-4.1218,-3.9964,-3.8988,-3.7881,-3.6788,-3.6515,-3.614,-3.5735,-3.5654,-3.5684,-3.5786,-3.5742,-3.5757,-3.5742,-3.609,-3.64,-3.6496,-3.6878,-3.7261,-3.7402,-3.7755,-3.7837,-4.7788,-4.822,-4.8606,-4.9051,-4.9527,-4.996,-5.0146,-5.0037,-4.8729,-4.809,-4.8098,-4.8102,-4.836,-4.8702,-4.8702,-4.8787,-4.8787,-4.8787,-4.8666,0.0,-4.8272,-4.8024,-4.761,-4.7589,-4.7361,-4.6886,-4.6927,-4.6699,-4.6264,-4.5871,-4.5643,-4.554,-4.5064,-4.4836,-4.4857,-4.4381,-4.4277,-4.4567,-4.3491,-4.3118,-4.3491,-4.3056,-4.2828,-4.2787,-4.1897,-4.1358,-4.1276,-4.0841,-4.0593,-4.0593,-4.0593,-4.0986,-4.1814,-4.1938,-4.2497,-4.3615,-4.3842,-4.4091,-4.4484,-4.494,-4.5236,-4.5289,-4.4985,-4.4541,-4.3891,-4.3809,-4.4219,-4.5084,-4.4439,-4.4174,-4.4583,-4.4021,-4.3633,-4.3633,-4.3889,-4.4249,-4.4647,-4.4699,-4.4936,-4.5772,-4.574,-4.5637,-4.6021,-4.5902,-4.5786,-4.5661,-4.5351,-4.5114,-4.529,-4.5201,-4.451,-4.373,-4.2909,-4.1832,-4.0203,-3.9325,-3.8212,-3.6529,-3.631,-3.6088,-3.5477,-3.5382,-3.5361,-3.5654,-3.561,-3.564,-3.5654,-3.6031,-3.6486,-3.6837,-3.7298,-3.7708,-3.804,-3.8119,-3.7725,-4.8999,-4.9193,-4.9399,-4.9713,-5.0156,-5.0591,-5.0798,-5.0688,-5.0128,-4.9568,-4.9172,-4.8925,-4.8887,-4.9059,-4.9059,-4.9059,-4.9059,-4.9059,-4.8955,-4.8748,-4.8748,-4.85,-4.8086,-4.8065,-4.7693,-4.7072,-4.703,-4.6721,-4.6368,-4.614,-4.6037,-4.6037,-4.583,-4.5602,-4.5374,-4.5167,-4.5147,-4.5333,-4.4484,-4.4153,-4.436,-4.3905,-4.3656,-4.3656,-4.3014,-4.2559,-4.2311,-4.2083,-4.1979,-4.1979,-4.1979,-4.2393,-4.3304,-4.3594,-4.4132,-4.5002,-4.5519,-4.5711,-4.5675,-4.5861,-4.6044,-4.5999,-4.5868,-4.5764,-4.5817,-4.5143,-4.5032,-4.5659,-4.5333,-4.5234,-4.5644,-4.5357,-4.5097,-4.5097,-4.5077,-4.5383,-4.593,-4.5673,-4.5797,-4.6565,-4.6527,-4.6552,-4.6678,-4.6568,-4.6289,-4.6036,-4.5529,-4.5012,-4.4931,-4.478,-4.4565,-4.4239,-4.3533,-4.2353,-4.0566,-3.9565,-3.8467,-3.6823,-3.6637,-3.6327,-3.5795,-3.5439,-3.5178,-3.5267,-3.502,-3.4715,-3.473,-3.5353,-3.5942,-3.6436,-3.6853,-3.7299,-3.7436,-3.7065,-3.6467,-4.9908,-4.9908,-5.0032,-5.0322,-5.0756,-5.1108,-5.1274,-5.1253,-5.115,-5.0715,-5.0052,-4.9473,-4.9162,-4.9059,-4.9059,-4.9059,-4.9059,-4.9059,-4.9059,-4.9059,-4.9059,-4.8873,-4.8562,-4.8541,-4.8107,-4.7382,-4.7237,-4.6947,-4.6452,-4.6328,-4.6266,-4.6266,-4.6266,-4.6182,-4.585,-4.583,-4.583,-4.5809,-4.5478,-4.5209,-4.4981,-4.4629,-4.4443,-4.4422,-4.4112,-4.376,-4.3408,-4.3387,-4.3428,-4.3532,-4.3553,-4.3967,-4.4857,-4.525,-4.5626,-4.6103,-4.6783,-4.6988,-4.6654,-4.6558,-4.6486,-4.6401,-4.6316,-4.6476,-4.6669,-4.5937,-4.5535,-4.6021,-4.606,-4.6111,-4.6366,-4.6357,-4.6308,-4.6289,-4.6102,-4.6284,-4.6955,-4.655,-4.643,-4.7188,-4.7274,-4.7215,-4.7155,-4.6988,-4.655,-4.5884,-4.5227,-4.4609,-4.4249,-4.4051,-4.4109,-4.4022,-4.3616,-4.2353,-4.0713,-3.9657,-3.8559,-3.7193,-3.6822,-3.6514,-3.6005,-3.5423,-3.5044,-3.4845,-3.4406,-3.4058,-3.4076,-3.4713,-3.5303,-3.5849,-3.6286,-3.6686,-3.6717,-3.5903,-3.5317,-5.0363,-5.0425,-5.0777,-5.1253,-5.1626,-5.1708,-5.1708,-5.1667,-5.1294,-5.1087,-5.086,-5.0073,-4.9473,-4.91,-4.908,-4.9059,-4.9059,-4.9059,-4.9059,-4.9059,-4.9059,-4.9038,-4.8976,-4.8976,-4.8748,-4.821,-4.7796,-4.7361,-4.6927,-4.6452,-4.6266,-4.6266,-4.6266,-4.6246,-4.6204,-4.6285,-4.6184,-4.6204,-4.6244,-4.583,-4.5043,-4.494,-4.494,-4.4919,-4.4898,-4.4836,-4.4774,-4.4815,-4.4981,-4.5374,-4.5395,-4.583,-4.6555,-4.6823,-4.699,-4.7456,-4.7555,-4.7589,-4.7546,-4.7215,-4.6935,-4.6888,-4.6481,-4.6327,-4.6385,-4.6279,-4.654,-4.7101,-4.7014,-4.686,-4.692,-4.6571,-4.6308,-4.6308,-4.6599,-4.7054,-4.7468,-4.7536,-4.7742,-4.8229,-4.7878,-4.7651,-4.7506,-4.6927,-4.6,-4.4912,-4.4258,-4.3741,-4.3507,-4.3226,-4.2888,-4.2678,-4.2305,-4.1604,-4.0248,-3.9474,-3.8651,-3.7362,-3.6742,-3.645,-3.6097,-3.5577,-3.494,-3.4668,-3.4336,-3.4095,-3.4139,-3.4562,-3.515,-3.5344,-3.5884,-3.6469,-3.6469,-3.5549,-3.4891,-5.0591,-5.0798,-5.0736,-5.1129,-5.175,-5.1791,-5.1791,-5.1771,-5.1605,-5.1377,-5.1087,-5.0715,-5.0156,-4.9559,-4.9204,-4.9059,-4.9059,-4.9059,-4.9059,-4.9059,-4.9059,-4.9059,-4.9059,-4.9059,-4.8831,-4.8355,-4.79,-4.7465,-4.6948,-4.6493,-4.6266,-4.6266,-4.6266,-4.6266,-4.6266,-4.6266,-4.6266,-4.6266,-4.6266,-4.6161,-4.585,-4.5788,-4.5788,-4.5788,-4.5788,-4.5788,-4.5788,-4.5788,-4.6016,-4.643,-4.6471,-4.6742,-4.7378,-4.7419,-4.7538,-4.7637,-4.744,-4.7241,-4.7248,-4.6832,-4.6571,-4.6571,-4.6396,-4.6308,-4.6308,-4.6308,-4.6483,-4.6745,-4.6638,-4.6571,-4.6571,-4.6396,-4.6308,-4.6396,-4.6745,-4.7181,-4.7615,-4.7971,-4.8196,-4.8333,-4.821,-4.7982,-4.7609,-4.672,-4.5649,-4.4581,-4.3832,-4.3105,-4.2331,-4.1955,-4.1653,-4.1101,-4.0913,-4.0701,-3.9993,-3.9721,-3.9092,-3.8418,-3.7917,-3.751,-3.6976,-3.6189,-3.5502,-3.4696,-3.4307,-3.3844,-3.3323,-3.3799,-3.4245,-3.4647,-3.4794,-3.5191,-3.5191,-3.4567,-3.4124,-5.0715,-5.088,-5.0673,-5.1067,-5.1791,-5.1791,-5.1791,-5.1791,-5.1791,-5.1605,-5.1294,-5.117,-5.0756,-5.0115,-4.9638,-4.9369,-4.9266,-4.9245,-4.9183,-4.908,-4.9059,-4.9059,-4.9059,-4.9059,-4.8893,-4.8521,-4.7962,-4.7382,-4.6803,-4.6533,-4.6266,-4.6266,-4.6266,-4.6266,-4.6266,-4.6266,-4.6266,-4.6266,-4.6266,-4.6266,-4.6246,-4.6266,-4.6266,-4.6266,-4.6266,-4.6266,-4.6266,-4.639,-4.6761,-4.7175,-4.7175,-4.7421,-4.7841,-4.7732,-4.7637,-4.7488,-4.7094,-4.6832,-4.6832,-4.6483,-4.6308,-4.6308,-4.6308,-4.6367,-4.6426,-4.6367,-4.6367,-4.6484,-4.6367,-4.6308,-4.6308,-4.6308,-4.6308,-4.6483,-4.6832,-4.7181,-4.7854,-4.8199,-4.8401,-4.8539,-4.8583,-4.8312,-4.771,-4.6525,-4.5361,-4.4375,-4.333,-4.231,-4.1181,-4.0747,-4.0439,-4.0018,-4.0087,-4.0063,-4.0014,-3.9869,-3.9673,-3.9283,-3.8762,-3.8235,-3.8023,-3.7007,-3.5955,-3.5129,-3.428,-3.35,-3.3132,-3.325,-3.3676,-3.4059,-3.4235,-3.4204,-3.4441,-3.3837,-3.3573,-5.0839,-5.0529,-5.0901,-5.1294,-5.1771,-5.1771,-5.1771,-5.175,-5.1791,-5.1771,-5.1688,-5.1315,-5.1087,-5.1005,-5.0549,-5.0135,-4.9763,-4.9701,-4.9473,-4.9121,-4.908,-4.9059,-4.9059,-4.9059,-4.9038,-4.8893,-4.8086,-4.7258,-4.637,-4.6287,-4.6266,-4.6266,-4.6266,-4.6266,-4.6266,-4.6266,-4.6266,-4.6266,-4.6266,-4.6266,-4.6266,-4.6266,-4.6266,-4.6389,-4.6266,-4.6266,-4.6328,-4.67,-4.7113,-4.7651,-4.7624,-4.7841,-4.827,-4.79,-4.7488,-4.7094,-4.6571,-4.6396,-4.6416,-4.6328,-4.6348,-4.6348,-4.6406,-4.6504,-4.6836,-4.6621,-4.6562,-4.6855,-4.6631,-4.6435,-4.6396,-4.6396,-4.6571,-4.692,-4.7007,-4.7441,-4.8306,-4.8453,-4.863,-4.8973,-4.9059,-4.8596,-4.776,-4.6484,-4.5071,-4.3887,-4.2584,-4.133,-4.0601,-3.9975,-3.9773,-3.9739,-3.9838,-4.0048,-3.9937,-4.0112,-4.0038,-3.9903,-3.9441,-3.8385,-3.7998,-3.754,-3.6545,-3.555,-3.4643,-3.3895,-3.3234,-3.3161,-3.3558,-3.3837,-3.3925,-3.3998,-3.3822,-3.3734,-3.347,-5.0156,-5.0052,-5.0487,-5.0777,-5.0943,-5.1232,-5.1357,-5.1398,-5.1667,-5.1791,-5.1771,-5.1626,-5.1543,-5.1543,-5.1377,-5.088,-5.0197,-4.9887,-4.9659,-4.9473,-4.9204,-4.9059,-4.9059,-4.9059,-4.9059,-4.8935,-4.8107,-4.7217,-4.6349,-4.6266,-4.6266,-4.6266,-4.6266,-4.6266,-4.6266,-4.6266,-4.6266,-4.6266,-4.6266,-4.6266,-4.6266,-4.6266,-4.639,-4.6761,-4.6411,-4.6411,-4.67,-4.6619,-4.6864,-4.7686,-4.7382,-4.7324,-4.7448,-4.7094,-4.6745,-4.6571,-4.6396,-4.6426,-4.666,-4.6699,-4.6836,-4.709,-4.7129,-4.7237,-4.7285,-4.7207,-4.7179,-4.7288,-4.7258,-4.7148,-4.7153,-4.692,-4.692,-4.7354,-4.7681,-4.8149,-4.8719,-4.9147,-4.9424,-4.9717,-4.944,-4.8551,-4.7088,-4.582,-4.4645,-4.3341,-4.1937,-4.0836,-3.9966,-3.9617,-3.9492,-3.9573,-4.0008,-4.0514,-4.0821,-4.0782,-4.0821,-4.0902,-4.0589,-3.9747,-3.914,-3.8036,-3.6905,-3.5518,-3.4612,-3.391,-3.3176,-3.2911,-3.3293,-3.3293,-3.347,-3.347,-3.3308,-3.3293,-3.3117,-4.9704,-4.987,-5.0073,-5.0301,-5.0466,-5.0756,-5.0984,-5.1129,-5.1439,-5.1667,-5.1771,-5.1791,-5.1791,-5.1791,-5.1791,-5.1501,-5.086,-5.0404,-5.0052,-4.9742,-4.9431,-4.9204,-4.908,-4.9059,-4.9059,-4.8914,-4.8127,-4.7217,-4.643,-4.6266,-4.6266,-4.6266,-4.6266,-4.6266,-4.6266,-4.6266,-4.6266,-4.6266,-4.6266,-4.6266,-4.6266,-4.6266,-4.6493,-4.666,-4.6475,-4.6537,-4.699,-4.6719,-4.6814,-4.7297,-4.7178,-4.6949,-4.6793,-4.6483,-4.6308,-4.6308,-4.6445,-4.6709,-4.7091,-4.7228,-4.7533,-4.7987,-4.8027,-4.8066,-4.8204,-4.8106,-4.8107,-4.8255,-4.8076,-4.8102,-4.8023,-4.7836,-4.7755,-4.7915,-4.8199,-4.8642,-4.9245,-4.9568,-4.9862,-4.9846,-4.9006,-4.7766,-4.6523,-4.522,-4.3796,-4.2365,-4.1196,-4.0226,-3.9205,-3.9219,-3.9338,-3.943,-4.0211,-4.0939,-4.1436,-4.1579,-4.1687,-4.178,-4.114,-4.056,-3.9737,-3.8506,-3.7095,-3.5621,-3.4525,-3.3822,-3.3293,-3.294,-3.2763,-3.2763,-3.294,-3.3117,-3.294,-3.2852,-3.2852,-4.9349,-4.9701,-4.9742,-4.997,-5.028,-5.0384,-5.0673,-5.0984,-5.1108,-5.1377,-5.1688,-5.1771,-5.1791,-5.1791,-5.1791,-5.1771,-5.1605,-5.117,-5.0549,-4.9866,-4.9742,-4.9452,-4.9165,-4.9059,-4.8976,-4.8893,-4.8107,-4.7217,-4.6308,-4.6266,-4.6266,-4.6266,-4.6266,-4.6266,-4.6266,-4.6266,-4.6266,-4.6266,-4.6266,-4.6266,-4.6266,-4.6308,-4.6311,-4.6372,-4.633,-4.6554,-4.6982,-4.6925,-4.6977,-4.7012,-4.7008,-4.6813,-4.6376,-4.6308,-4.6308,-4.6494,-4.6699,-4.718,-4.776,-4.8097,-4.8494,-4.8882,-4.896,-4.9201,-4.9392,-4.9172,-4.9161,-4.9411,-4.919,-4.9073,-4.906,-4.9045,-4.8862,-4.854,-4.8499,-4.8897,-4.9593,-4.9825,-4.9774,-4.9508,-4.8244,-4.6864,-4.5929,-4.459,-4.2817,-4.1408,-4.0304,-3.9558,-3.8568,-3.8881,-3.9284,-3.9565,-4.0365,-4.1401,-4.1904,-4.2389,-4.2568,-4.2515,-4.155,-4.0753,-3.9838,-3.869,-3.72,-3.574,-3.4292,-3.3485,-3.3117,-3.2763,-3.2763,-3.2763,-3.2763,-3.2763,-3.2763,-3.2763,-3.2763,-4.9162,-4.9266,-4.9287,-4.9349,-4.9535,-4.9825,-5.0052,-5.0259,-5.0818,-5.1191,-5.1357,-5.1667,-5.1791,-5.1791,-5.1791,-5.1791,-5.175,-5.1315,-5.0777,-5.0218,-4.9887,-4.9514,-4.9142,-4.9059,-4.8728,-4.8169,-4.7838,-4.7217,-4.6513,-4.6287,-4.6266,-4.6266,-4.6266,-4.6266,-4.6287,-4.6266,-4.6266,-4.6266,-4.6266,-4.6266,-4.6308,-4.6331,-4.6454,-4.6717,-4.6454,-4.6561,-4.6981,-4.6689,-4.6663,-4.6942,-4.6666,-4.6483,-4.6308,-4.6308,-4.6621,-4.7159,-4.7386,-4.7978,-4.8942,-4.9212,-4.9432,-4.9834,-4.9894,-4.9975,-5.0095,-4.9995,-4.9994,-5.0184,-5.0071,-4.9984,-4.997,-5.0022,-4.9625,-4.897,-4.9176,-4.9527,-5.0089,-5.0381,-5.0022,-4.8872,-4.7906,-4.6658,-4.4969,-4.336,-4.1959,-4.0683,-3.9654,-3.877,-3.8464,-3.8811,-3.9126,-3.925,-4.0566,-4.1759,-4.2029,-4.2209,-4.2389,-4.2264,-4.1567,-4.0572,-3.9744,-3.8708,-3.7208,-3.5753,-3.4299,-3.3456,-3.2999,-3.2807,-3.2837,-3.2778,-3.2763,-3.2763,-3.2763,-3.2763,-3.2763,-4.9059,-4.9059,-4.9059,-4.9059,-4.91,-4.939,-4.9684,-4.9891,-5.0342,-5.0694,-5.088,-5.115,-5.1294,-5.1294,-5.1294,-5.1294,-5.1253,-5.0984,-5.0611,-5.0197,-4.9908,-4.9494,-4.9121,-4.9059,-4.8707,-4.8086,-4.7941,-4.7568,-4.6885,-4.6844,-4.6844,-4.6844,-4.6699,-4.6535,-4.6493,-4.6349,-4.6266,-4.6266,-4.6266,-4.6266,-4.6349,-4.6455,-4.6576,-4.6689,-4.6626,-4.6637,-4.6773,-4.6643,-4.6623,-4.6686,-4.6571,-4.6571,-4.6551,-4.6745,-4.7205,-4.7758,-4.8213,-4.8751,-4.9772,-5.0085,-5.0398,-5.0732,-5.0884,-5.0884,-5.0884,-5.0884,-5.0903,-5.0899,-5.0907,-5.0812,-5.0688,-5.0673,-5.0234,-4.9399,-4.9738,-5.011,-5.0408,-5.0326,-4.9882,-4.8581,-4.7294,-4.5785,-4.4106,-4.2422,-4.1054,-3.9947,-3.9125,-3.85,-3.8683,-3.92,-3.9399,-3.993,-4.12,-4.1939,-4.2029,-4.2119,-4.2119,-4.1779,-4.1314,-4.0369,-3.9413,-3.8276,-3.6939,-3.5432,-3.4038,-3.3531,-3.3129,-3.3027,-3.2997,-3.291,-3.2793,-3.2763,-3.2763,-3.2763,-3.2763,-4.9059,-4.9059,-4.9059,-4.9059,-4.9059,-4.91,-4.9328,-4.9659,-4.9804,-5.0052,-5.0342,-5.0508,-5.0508,-5.0466,-5.057,-5.057,-5.0425,-5.0404,-5.0197,-4.9887,-4.968,-4.9431,-4.91,-4.9059,-4.879,-4.8376,-4.8334,-4.8065,-4.7548,-4.7548,-4.7672,-4.7527,-4.7217,-4.7072,-4.6989,-4.6637,-4.643,-4.6451,-4.6308,-4.6266,-4.6308,-4.6701,-4.6782,-4.6458,-4.6771,-4.6869,-4.6666,-4.686,-4.688,-4.6571,-4.692,-4.7007,-4.7094,-4.7461,-4.7896,-4.8446,-4.8828,-4.9518,-5.0323,-5.0871,-5.1186,-5.161,-5.161,-5.1791,-5.161,-5.161,-5.159,-5.1639,-5.1639,-5.1494,-5.1232,-5.106,-5.0655,-4.995,-4.9848,-5.0142,-5.0193,-4.9437,-4.8677,-4.8119,-4.6387,-4.4288,-4.337,-4.1761,-4.0305,-3.9217,-3.8942,-3.885,-3.8942,-3.9582,-4.0311,-4.1037,-4.1669,-4.1759,-4.1669,-4.1489,-4.1398,-4.0459,-4.0209,-3.9547,-3.8712,-3.7585,-3.655,-3.5031,-3.411,-3.3615,-3.3378,-3.3261,-3.3115,-3.2983,-3.2895,-3.2807,-3.2763,-3.2763,-3.2763,-4.9059,-4.9059,-4.9059,-4.9059,-4.9059,-4.9059,-4.9121,-4.9287,-4.9597,-4.9763,-4.997,-5.028,-5.0363,-5.0404,-5.0384,-5.0404,-5.0301,-5.0052,-4.9887,-4.9721,-4.9476,-4.9204,-4.908,-4.9059,-4.8831,-4.8459,-4.8417,-4.8148,-4.7713,-4.7755,-4.7734,-4.7672,-4.761,-4.7506,-4.7444,-4.7072,-4.6803,-4.6721,-4.6411,-4.6287,-4.6411,-4.6804,-4.6902,-4.6918,-4.7289,-4.7474,-4.7354,-4.7441,-4.7441,-4.7354,-4.7441,-4.7528,-4.7568,-4.8003,-4.8628,-4.925,-4.9765,-5.0392,-5.1231,-5.1528,-5.1701,-5.1791,-5.1791,-5.1791,-5.1791,-5.1791,-5.1791,-5.1791,-5.1791,-5.175,-5.1535,-5.1224,-5.0599,-4.9793,-4.9402,-4.9201,-4.9104,-4.8381,-4.755,-4.6635,-4.5132,-4.3844,-4.2654,-4.1464,-4.0328,-3.9599,-3.9308,-3.9308,-3.9565,-4.0129,-4.0946,-4.0946,-4.1308,-4.1308,-4.1308,-4.1037,-4.0493,-3.92,-3.8634,-3.8343,-3.7524,-3.6649,-3.5608,-3.4356,-3.4223,-3.3802,-3.3597,-3.3436,-3.3261,-3.31,-3.291,-3.2793,-3.2778,-3.2763,-3.2763,-4.8479,-4.85,-4.8479,-4.8479,-4.8479,-4.8479,-4.8479,-4.8583,-4.8976,-4.9183,-4.9266,-4.9659,-4.9845,-4.9845,-4.9845,-4.9845,-4.9804,-4.9576,-4.9473,-4.9411,-4.9183,-4.908,-4.9059,-4.9059,-4.8914,-4.8707,-4.8666,-4.8521,-4.8314,-4.8272,-4.8272,-4.8252,-4.8065,-4.7982,-4.7941,-4.7548,-4.7217,-4.6948,-4.6761,-4.6555,-4.6617,-4.7072,-4.7106,-4.7203,-4.7597,-4.8021,-4.8204,-4.8406,-4.8365,-4.7909,-4.7874,-4.8128,-4.8331,-4.8728,-4.9352,-5.0189,-5.0518,-5.1046,-5.1597,-5.1791,-5.1791,-5.1791,-5.1791,-5.1791,-5.1791,-5.1791,-5.1791,-5.1791,-5.1791,-5.1701,-5.1338,-5.0682,-4.9859,-4.8973,-4.8153,-4.7838,-4.8181,-4.7158,-4.6242,-4.5254,-4.4167,-4.3019,-4.2082,-4.1035,-4.0305,-3.9947,-3.9856,-4.0021,-4.0385,-4.1019,-4.1398,-4.1489,-4.1471,-4.1579,-4.0856,-4.0402,-3.9565,-3.83,-3.727,-3.6915,-3.6575,-3.579,-3.5282,-3.4529,-3.4304,-3.408,-3.389,-3.3671,-3.3422,-3.3232,-3.2983,-3.2807,-3.2778,-3.2763,-3.2763,-4.7693,-4.7693,-4.7693,-4.7672,-4.7734,-4.7693,-4.7796,-4.7796,-4.8169,-4.8355,-4.8417,-4.8748,-4.8914,-4.8935,-4.8914,-4.8955,-4.9017,-4.9017,-4.9059,-4.908,-4.9059,-4.9059,-4.9059,-4.9059,-4.9038,-4.8997,-4.9059,-4.9017,-4.8893,-4.8955,-4.9017,-4.8873,-4.8583,-4.8479,-4.8355,-4.7982,-4.7568,-4.732,-4.7175,-4.7031,-4.7031,-4.734,-4.7395,-4.7147,-4.8037,-4.8637,-4.9092,-4.9419,-4.9243,-4.8056,-4.8428,-4.8846,-4.9261,-4.9671,-5.028,-5.0833,-5.1081,-5.1329,-5.1708,-5.1791,-5.1791,-5.1791,-5.1791,-5.1791,-5.1791,-5.1721,-5.161,-5.161,-5.161,-5.1248,-5.0702,-4.9584,-4.857,-4.781,-4.656,-4.6261,-4.6448,-4.5698,-4.4724,-4.4422,-4.3209,-4.2174,-4.1367,-4.0658,-4.0146,-4.0765,-4.0748,-4.12,-4.1561,-4.2102,-4.2299,-4.2299,-4.2102,-4.1922,-4.0838,-3.9748,-3.8651,-3.747,-3.6266,-3.5708,-3.5708,-3.5275,-3.5118,-3.4779,-3.4446,-3.4358,-3.4271,-3.4007,-3.3656,-3.3349,-3.3085,-3.2895,-3.2763,-3.2763,-3.2763,-4.7672,-4.7672,-4.7672,-4.7672,-4.7672,-4.7672,-4.7672,-4.7672,-4.7775,-4.7838,-4.7858,-4.7962,-4.8024,-4.8024,-4.8086,-4.8169,-4.85,-4.8562,-4.8686,-4.9059,-4.9059,-4.9059,-4.9059,-4.9059,-4.9059,-4.9059,-4.9059,-4.9059,-4.9059,-4.9059,-4.9059,-4.9038,-4.8955,-4.8914,-4.881,-4.8459,-4.8189,-4.8024,-4.7734,-4.7319,-4.7151,-4.7395,-4.7427,-4.7223,-4.8215,-4.9076,-4.963,-5.0001,-5.0125,-4.9914,-4.9872,-5.0022,-5.0125,-5.0482,-5.088,-5.1129,-5.146,-5.1688,-5.1771,-5.1701,-5.1791,-5.1701,-5.161,-5.1791,-5.1791,-5.1429,-5.1248,-5.1157,-5.0884,-5.0337,-4.9512,-4.8385,-4.7326,-4.6261,-4.5122,-4.4191,-4.3968,-4.3704,-4.3357,-4.3005,-4.2469,-4.1988,-4.1774,-4.1625,-4.1451,-4.1579,-4.1939,-4.2371,-4.2837,-4.3195,-4.2909,-4.2658,-4.2102,-4.1652,-4.0294,-3.9017,-3.7639,-3.673,-3.5615,-3.4961,-3.4976,-3.4976,-3.4882,-3.4789,-3.468,-3.4592,-3.449,-3.4124,-3.3729,-3.3451,-3.3202,-3.2968,-3.2807,-3.2793,-3.2763,-4.7051,-4.7051,-4.7051,-4.7051,-4.7051,-4.7051,-4.7072,-4.7113,-4.7299,-4.7382,-4.7444,-4.7568,-4.7672,-4.7672,-4.7693,-4.7858,-4.8065,-4.8293,-4.85,-4.8769,-4.8935,-4.9059,-4.9059,-4.9059,-4.9059,-4.9059,-4.9059,-4.9059,-4.9059,-4.9059,-4.9059,-4.9059,-4.9059,-4.9038,-4.9059,-4.881,-4.8498,-4.8017,-4.7832,-4.7436,-4.7159,-4.7237,-4.7606,-4.7657,-4.8418,-4.9127,-5.0006,-5.0508,-5.0818,-5.1005,-5.1046,-5.0943,-5.0798,-5.0984,-5.1191,-5.146,-5.1355,-5.152,-5.1429,-5.1248,-5.1066,-5.1066,-5.1066,-5.1066,-5.0975,-5.0702,-5.0428,-5.0317,-4.9859,-4.9216,-4.8293,-4.6691,-4.5604,-4.4728,-4.3721,-4.28,-4.2148,-4.2166,-4.2335,-4.2192,-4.2023,-4.1996,-4.1968,-4.2046,-4.2443,-4.2389,-4.264,-4.3106,-4.3463,-4.3641,-4.3106,-4.264,-4.2012,-4.111,-3.9657,-3.8191,-3.6715,-3.5894,-3.5163,-3.4789,-3.4789,-3.4803,-3.471,-3.471,-3.471,-3.471,-3.4563,-3.4183,-3.3861,-3.3627,-3.3363,-3.3041,-3.2837,-3.2793,-3.2778,-4.6266,-4.6266,-4.6266,-4.6266,-4.6266,-4.6287,-4.6308,-4.637,-4.6679,-4.6927,-4.6989,-4.7341,-4.7341,-4.7444,-4.7403,-4.7486,-4.7713,-4.8148,-4.8438,-4.8479,-4.8893,-4.9038,-4.9059,-4.9059,-4.9059,-4.9059,-4.9059,-4.9059,-4.9059,-4.9059,-4.9059,-4.9059,-4.9059,-4.8973,-4.8973,-4.8973,-4.8551,-4.7837,-4.7776,-4.748,-4.7052,-4.7007,-4.7445,-4.7814,-4.8345,-4.8925,-4.9887,-5.0626,-5.1232,-5.1667,-5.1771,-5.1584,-5.1246,-5.1143,-5.1267,-5.159,-5.1227,-5.0884,-5.0702,-5.0428,-5.0245,-5.0154,-5.0062,-5.0042,-4.9951,-4.9584,-4.9216,-4.894,-4.8459,-4.7531,-4.6878,-4.5187,-4.3891,-4.319,-4.2597,-4.1697,-4.1086,-4.1364,-4.1672,-4.1792,-4.2109,-4.224,-4.2279,-4.2407,-4.2837,-4.3284,-4.3463,-4.3641,-4.3926,-4.3926,-4.3284,-4.2551,-4.1832,-4.0186,-3.8651,-3.7547,-3.5972,-3.5428,-3.471,-3.471,-3.471,-3.471,-3.471,-3.471,-3.471,-3.471,-3.4622,-3.4329,-3.4036,-3.3802,-3.3495,-3.3144,-3.2954,-3.2807,-3.2822,-4.6266,-4.6266,-4.6266,-4.6266,-4.6266,-4.6266,-4.6308,-4.6266,-4.6432,-4.639,-4.6432,-4.6473,-4.6637,-4.6616,-4.6575,-4.6782,-4.7258,-4.7879,-4.8314,-4.8417,-4.881,-4.9059,-4.9059,-4.9059,-4.9059,-4.9059,-4.9059,-4.9059,-4.9059,-4.9059,-4.9059,-4.9059,-4.9059,-4.8973,-4.863,-4.8544,-4.8265,-4.7713,-4.7606,-4.7348,-4.7002,-4.6915,-4.7021,-4.7374,-4.7909,-4.8608,-4.9398,-5.0455,-5.115,-5.1253,-5.1605,-5.1528,-5.1195,-5.1084,-5.1055,-5.1025,-5.0611,-5.0245,-4.9768,-4.9696,-4.94,-4.9216,-4.894,-4.9032,-4.8848,-4.8181,-4.7624,-4.7158,-4.611,-4.5074,-4.4791,-4.3479,-4.2792,-4.2413,-4.2021,-4.1408,-4.1711,-4.1804,-4.1692,-4.1786,-4.2242,-4.2604,-4.2712,-4.2766,-4.3016,-4.3284,-4.3463,-4.3552,-4.373,-4.3641,-4.3087,-4.2371,-4.1561,-3.9565,-3.7639,-3.6529,-3.5428,-3.5163,-3.471,-3.471,-3.471,-3.471,-3.471,-3.471,-3.471,-3.471,-3.4578,-3.4417,-3.4256,-3.4036,-3.3656,-3.3171,-3.3188,-3.3115,-3.3071,-4.6844,-4.703,-4.703,-4.703,-4.703,-4.703,-4.703,-4.701,-4.6803,-4.6699,-4.6555,-4.639,-4.6266,-4.6266,-4.6266,-4.6411,-4.6885,-4.761,-4.7982,-4.8148,-4.8707,-4.9059,-4.9059,-4.9059,-4.9059,-4.9059,-4.9059,-4.9059,-4.9059,-4.9059,-4.9059,-4.9059,-4.9059,-4.8887,-4.8544,-4.8458,-4.7941,-4.7528,-4.7268,-4.7094,-4.6745,-4.6658,-4.6745,-4.7066,-4.7467,-4.8124,-4.9107,-4.9548,-5.0387,-5.0957,-5.1336,-5.1273,-5.0984,-5.0611,-5.0337,-5.0245,-4.9787,-4.9216,-4.857,-4.82,-4.7736,-4.7364,-4.727,-4.727,-4.7084,-4.641,-4.5659,-4.4903,-4.424,-4.3192,-4.3192,-4.1963,-4.159,-4.1582,-4.142,-4.1476,-4.1804,-4.2298,-4.2379,-4.2258,-4.2604,-4.2892,-4.3142,-4.3213,-4.3303,-4.3374,-4.3392,-4.3428,-4.3465,-4.3035,-4.2532,-4.1325,-4.0254,-3.8543,-3.6807,-3.5987,-3.5241,-3.4882,-3.471,-3.471,-3.471,-3.471,-3.471,-3.471,-3.471,-3.471,-3.468,-3.4563,-3.4417,-3.4271,-3.3978,-3.3715,-3.3539,-3.3436,-3.3378,-4.7361,-4.7672,-4.7672,-4.7672,-4.7672,-4.7672,-4.7672,-4.7589,-4.7196,-4.701,-4.6968,-4.6493,-4.6266,-4.6266,-4.6266,-4.6328,-4.6452,-4.7382,-4.7755,-4.8065,-4.8686,-4.9059,-4.9059,-4.9059,-4.9059,-4.9059,-4.9059,-4.9059,-4.9059,-4.9059,-4.9059,-4.9059,-4.9059,-4.8716,-4.8372,-4.8027,-4.7595,-4.7181,-4.6832,-4.6658,-4.6396,-4.6308,-4.6483,-4.6832,-4.692,-4.7621,-4.858,-4.9066,-4.9785,-5.0455,-5.0826,-5.0915,-5.0681,-4.9911,-4.9328,-4.9052,-4.8663,-4.7922,-4.6971,-4.6429,-4.5959,-4.53,-4.53,-4.5318,-4.5016,-4.4335,-4.327,-4.233,-4.177,-4.1481,-4.1481,-4.0804,-4.0593,-4.0991,-4.1381,-4.1602,-4.2214,-4.2821,-4.3411,-4.336,-4.3145,-4.3199,-4.3361,-4.3181,-4.318,-4.2908,-4.2926,-4.2708,-4.2635,-4.2109,-4.1418,-3.9949,-3.8657,-3.7193,-3.6065,-3.5615,-3.5069,-3.4803,-3.471,-3.471,-3.471,-3.471,-3.471,-3.471,-3.471,-3.471,-3.471,-3.471,-3.4578,-3.4432,-3.43,-3.4124,-3.389,-3.3729,-3.3641,-4.7631,-4.7693,-4.7693,-4.7672,-4.7713,-4.7734,-4.7713,-4.7672,-4.7299,-4.703,-4.7072,-4.6596,-4.6308,-4.6266,-4.6266,-4.6493,-4.6989,-4.7424,-4.7879,-4.8252,-4.879,-4.9059,-4.9059,-4.9059,-4.9059,-4.9059,-4.9059,-4.9059,-4.9059,-4.9059,-4.9059,-4.9059,-4.8716,-4.8286,-4.7961,-4.7595,-4.692,-4.6483,-4.6396,-4.6396,-4.6308,-4.6308,-4.6396,-4.6483,-4.6745,-4.7307,-4.7969,-4.8627,-4.9302,-4.9924,-5.036,-5.0282,-4.9814,-4.9314,-4.8254,-4.7364,-4.6728,-4.6241,-4.5093,-4.4619,-4.4145,-4.3479,-4.3192,-4.3192,-4.2905,-4.233,-4.1255,-4.0206,-3.9736,-3.9834,-4.0044,-3.9557,-3.9996,-4.0754,-4.1532,-4.2313,-4.3105,-4.3448,-4.4044,-4.3826,-4.35,-4.3426,-4.3572,-4.3278,-4.2984,-4.2707,-4.2412,-4.2064,-4.1642,-4.0984,-4.0157,-3.8691,-3.7707,-3.631,-3.569,-3.5222,-3.4976,-3.471,-3.471,-3.471,-3.471,-3.471,-3.471,-3.471,-3.471,-3.471,-3.471,-3.4695,-3.468,-3.4592,-3.4446,-3.4329,-3.4197,-3.4051,-3.3949,-4.8459,-4.8459,-4.8459,-4.8459,-4.8479,-4.8459,-4.8479,-4.8376,-4.7982,-4.7631,-4.7361,-4.6927,-4.6596,-4.6308,-4.6266,-4.6514,-4.7051,-4.7506,-4.7941,-4.8396,-4.8831,-4.9059,-4.9059,-4.9059,-4.9059,-4.9059,-4.9059,-4.9059,-4.9059,-4.9059,-4.9059,-4.8973,-4.863,-4.8199,-4.7655,-4.7268,-4.6745,-4.6483,-4.6308,-4.6308,-4.6308,-4.6308,-4.6308,-4.6308,-4.6483,-4.7007,-4.7675,-4.8016,-4.8821,-4.9502,-4.9984,-4.979,-4.9151,-4.8502,-4.7364,-4.5883,-4.4827,-4.4145,-4.3479,-4.2984,-4.233,-4.1657,-4.1271,-4.0885,-4.0594,-4.0303,-3.9736,-3.8971,-3.8678,-3.8776,-3.9167,-3.9069,-3.9947,-4.0852,-4.1682,-4.2562,-4.3515,-4.4245,-4.4548,-4.4142,-4.3679,-4.3287,-4.2936,-4.2498,-4.1944,-4.1331,-4.0922,-4.0497,-3.9977,-3.9331,-3.8434,-3.7441,-3.6628,-3.5836,-3.5385,-3.5044,-3.4926,-3.471,-3.471,-3.471,-3.471,-3.471,-3.471,-3.471,-3.471,-3.471,-3.471,-3.471,-3.4695,-3.4651,-3.4592,-3.4505,-3.4417,-3.4461,-3.4388,-4.9059,-4.9059,-4.9059,-4.9059,-4.9059,-4.9059,-4.9038,-4.8997,-4.8541,-4.8086,-4.7631,-4.7113,-4.6555,-4.639,-4.6432,-4.6823,-4.7237,-4.7651,-4.8107,-4.8541,-4.8852,-4.9038,-4.9059,-4.9059,-4.9059,-4.9059,-4.9059,-4.8973,-4.8887,-4.8887,-4.8887,-4.8887,-4.8372,-4.8042,-4.7688,-4.7225,-4.6806,-4.6826,-4.6582,-4.6504,-4.6484,-4.6348,-4.6308,-4.6308,-4.6396,-4.6658,-4.7354,-4.7548,-4.8183,-4.8862,-4.9298,-4.9031,-4.8461,-4.7669,-4.6672,-4.5205,-4.3877,-4.2827,-4.2251,-4.1674,-4.0707,-4.0125,-3.9639,-3.9346,-3.876,-3.858,-3.8384,-3.7795,-3.7795,-3.809,-3.858,-3.8776,-3.9655,-4.0821,-4.2042,-4.2812,-4.3638,-4.4199,-4.4252,-4.3691,-4.2993,-4.224,-4.1835,-4.1375,-4.0768,-4.0037,-3.9513,-3.9021,-3.8528,-3.813,-3.759,-3.6808,-3.6265,-3.5617,-3.5345,-3.4973,-3.4841,-3.4724,-3.4724,-3.471,-3.471,-3.471,-3.471,-3.471,-3.471,-3.471,-3.471,-3.471,-3.471,-3.468,-3.4651,-3.468,-3.4666,-3.471,-3.4695,-4.9059,-4.9059,-4.9059,-4.9059,-4.9059,-4.9059,-4.9059,-4.9038,-4.8603,-4.8148,-4.7672,-4.6885,-4.6554,-4.6513,-4.6865,-4.7237,-4.7672,-4.8127,-4.8521,-4.8831,-4.9038,-4.9059,-4.9059,-4.9059,-4.9059,-4.9059,-4.8973,-4.8802,-4.8564,-4.8581,-4.8519,-4.8372,-4.8082,-4.7829,-4.757,-4.7337,-4.7228,-4.7168,-4.7031,-4.6894,-4.6797,-4.6621,-4.6426,-4.6387,-4.6348,-4.6571,-4.7026,-4.7213,-4.7554,-4.8305,-4.8442,-4.8285,-4.7839,-4.7004,-4.6016,-4.4921,-4.3114,-4.2172,-4.1497,-4.053,-3.9639,-3.9069,-3.858,-3.809,-3.7697,-3.7598,-3.7303,-3.7007,-3.7007,-3.7401,-3.7991,-3.8482,-3.9362,-4.0821,-4.1979,-4.2697,-4.3469,-4.3979,-4.3937,-4.3175,-4.2409,-4.1674,-4.0707,-4.0238,-3.9772,-3.9034,-3.8663,-3.8276,-3.7985,-3.7581,-3.7199,-3.6706,-3.6179,-3.5721,-3.5346,-3.5119,-3.4988,-3.4841,-3.4768,-3.4739,-3.471,-3.471,-3.471,-3.471,-3.471,-3.471,-3.471,-3.471,-3.471,-3.471,-3.471,-3.471,-3.471,-3.471,-3.471,-4.9059,-4.9059,-4.9059,-4.9059,-4.9059,-4.9059,-4.9059,-4.9038,-4.8873,-4.8541,-4.8065,-4.7465,-4.7154,-4.7217,-4.732,-4.7693,-4.8086,-4.8252,-4.8666,-4.8935,-4.9059,-4.9059,-4.9059,-4.9059,-4.9059,-4.8973,-4.8802,-4.8815,-4.878,-4.8432,-4.8305,-4.8169,-4.7894,-4.7965,-4.781,-4.7631,-4.757,-4.75,-4.7441,-4.7344,-4.7305,-4.7226,-4.709,-4.709,-4.709,-4.7356,-4.7731,-4.78,-4.8065,-4.8293,-4.8285,-4.7922,-4.7333,-4.6336,-4.5452,-4.456,-4.2748,-4.169,-4.1014,-3.9849,-3.8482,-3.7681,-3.7288,-3.7204,-3.7007,-3.6908,-3.6809,-3.6711,-3.6612,-3.7106,-3.8007,-3.8301,-3.8987,-4.0724,-4.1787,-4.246,-4.3035,-4.3531,-4.3418,-4.2522,-4.185,-4.1111,-4.0044,-3.9038,-3.8534,-3.8044,-3.778,-3.7485,-3.7326,-3.7198,-3.6883,-3.6696,-3.628,-3.6021,-3.5661,-3.5397,-3.5149,-3.4988,-3.4856,-3.4797,-3.4783,-3.471,-3.471,-3.471,-3.471,-3.471,-3.471,-3.471,-3.471,-3.471,-3.471,-3.471,-3.471,-3.471,-3.471,-4.9059,-4.9059,-4.9059,-4.9059,-4.9059,-4.9059,-4.9059,-4.9059,-4.9059,-4.881,-4.8355,-4.79,-4.7672,-4.7713,-4.7858,-4.8003,-4.8334,-4.8541,-4.8769,-4.9041,-4.9059,-4.9059,-4.9059,-4.9059,-4.8973,-4.8908,-4.8749,-4.8693,-4.8372,-4.8378,-4.8324,-4.8147,-4.7968,-4.8027,-4.8145,-4.8181,-4.7949,-4.7949,-4.7812,-4.7773,-4.7773,-4.7617,-4.7539,-4.7519,-4.75,-4.759,-4.7839,-4.7908,-4.8107,-4.8156,-4.8071,-4.7689,-4.6963,-4.5964,-4.4998,-4.3895,-4.2652,-4.1401,-4.0821,-3.946,-3.7795,-3.6992,-3.6696,-3.6711,-3.6612,-3.6612,-3.6612,-3.6612,-3.6612,-3.7007,-3.8007,-3.8301,-3.8971,-4.053,-4.1111,-4.1674,-4.2172,-4.2556,-4.2364,-4.1866,-4.1191,-4.053,-3.9264,-3.8188,-3.7795,-3.7401,-3.7204,-3.6992,-3.6879,-3.6765,-3.6765,-3.6579,-3.6476,-3.6231,-3.6085,-3.5822,-3.5544,-3.5295,-3.5134,-3.4958,-3.4885,-3.4812,-3.4724,-3.471,-3.471,-3.471,-3.471,-3.471,-3.471,-3.471,-3.471,-3.471,-3.471,-3.471,-3.471,-4.9124,-4.9059,-4.9059,-4.9059,-4.9059,-4.9059,-4.9059,-4.9059,-4.9059,-4.8831,-4.8438,-4.7982,-4.7817,-4.79,-4.8231,-4.8417,-4.8521,-4.8831,-4.9017,-4.9038,-4.9059,-4.9059,-4.9059,-4.9059,-4.8863,-4.8581,-4.8545,-4.8285,-4.7868,-4.8117,-4.8244,-4.8267,-4.8307,-4.8216,-4.8223,-4.8705,-4.8808,-4.875,-4.8359,-4.8242,-4.8144,-4.791,-4.7812,-4.7793,-4.7812,-4.7942,-4.8032,-4.8013,-4.8032,-4.791,-4.778,-4.7313,-4.6724,-4.5682,-4.4827,-4.4275,-4.246,-4.1417,-4.1031,-3.9264,-3.7893,-3.6908,-3.6711,-3.6612,-3.6612,-3.6612,-3.6612,-3.6612,-3.6612,-3.7106,-3.7697,-3.8301,-3.9167,-3.9947,-4.0513,-4.0998,-4.1594,-4.1883,-4.169,-4.1288,-4.0707,-3.9931,-3.858,-3.75,-3.7007,-3.6711,-3.6612,-3.6612,-3.6612,-3.6612,-3.6612,-3.6583,-3.6509,-3.6436,-3.629,-3.6158,-3.5939,-3.5661,-3.5412,-3.5207,-3.5031,-3.4914,-3.4841,-3.4753,-3.471,-3.471,-3.471,-3.471,-3.471,-3.471,-3.471,-3.471,-3.471,-3.471,-3.471,-4.8603,-4.8624,-4.8935,-4.9059,-4.9059,-4.9059,-4.9059,-4.9059,-4.9059,-4.8976,-4.8831,-4.8645,-4.8603,-4.8666,-4.8686,-4.879,-4.8852,-4.8893,-4.9059,-4.9059,-4.9059,-4.9059,-4.9059,-4.8822,-4.8687,-4.8606,-4.852,-4.8393,-4.8533,-4.8401,-4.8496,-4.8535,-4.8574,-4.8633,-4.8652,-4.8828,-4.8848,-4.8848,-4.8691,-4.8633,-4.8613,-4.8476,-4.8379,-4.8359,-4.8359,-4.834,-4.834,-4.832,-4.8137,-4.7863,-4.7634,-4.7117,-4.6486,-4.5488,-4.4655,-4.399,-4.246,-4.0821,-3.9947,-3.8678,-3.7908,-3.7303,-3.6795,-3.6612,-3.6612,-3.6612,-3.6612,-3.6612,-3.6612,-3.7007,-3.75,-3.8007,-3.8776,-3.9655,-4.0319,-4.0821,-4.1208,-4.1401,-4.1304,-4.0804,-4.0222,-3.9249,-3.7991,-3.7303,-3.6711,-3.6612,-3.6612,-3.6612,-3.6612,-3.6612,-3.6612,-3.6612,-3.6568,-3.6539,-3.6451,-3.6319,-3.6217,-3.5997,-3.569,-3.5412,-3.5236,-3.5119,-3.4929,-3.4841,-3.4768,-3.471,-3.471,-3.471,-3.471,-3.471,-3.4803,-3.4803,-3.4789,-3.4803,-3.471,-4.8376,-4.8438,-4.8873,-4.9059,-4.9059,-4.9059,-4.9059,-4.9059,-4.9059,-4.9059,-4.9059,-4.9059,-4.9038,-4.9038,-4.9059,-4.9059,-4.9059,-4.9059,-4.9059,-4.9059,-4.9059,-4.8973,-4.8802,-4.8564,-4.8357,-4.844,-4.8233,-4.8166,-4.8468,-4.8522,-4.8574,-4.8842,-4.8848,-4.8808,-4.8828,-4.8848,-4.8848,-4.8848,-4.8789,-4.8808,-4.8808,-4.8789,-4.8808,-4.8808,-4.8808,-4.8808,-4.8848,-4.8682,-4.8497,-4.8034,-4.7476,-4.6916,-4.6166,-4.5223,-4.437,-4.3609,-4.2364,-4.0724,-3.9655,-3.8595,-3.8007,-3.7712,-3.7007,-3.6612,-3.6612,-3.6612,-3.6612,-3.6612,-3.6626,-3.6923,-3.7318,-3.7825,-3.8482,-3.9362,-3.9947,-4.0433,-4.053,-4.0724,-4.0627,-4.0141,-3.9639,-3.8565,-3.7681,-3.7204,-3.6612,-3.6612,-3.6612,-3.6612,-3.6612,-3.6711,-3.6711,-3.6711,-3.6711,-3.6681,-3.6539,-3.6451,-3.6363,-3.6305,-3.6124,-3.5897,-3.5602,-3.55,-3.5207,-3.4958,-3.4944,-3.49,-3.4753,-3.471,-3.4724,-3.4803,-3.4882,-3.4976,-3.4882,-3.4976,-3.4976,-4.8334,-4.8417,-4.8852,-4.9038,-4.9059,-4.9059,-4.9059,-4.9059,-4.9059,-4.9059,-4.9059,-4.9059,-4.9059,-4.9059,-4.9059,-4.9059,-4.9059,-4.9059,-4.9059,-4.9059,-4.8973,-4.8802,-4.8544,-4.8306,-4.811,-4.7965,-4.7968,-4.8095,-4.8333,-4.8555,-4.8789,-4.894,-4.8848,-4.8848,-4.8848,-4.8848,-4.8848,-4.8848,-4.8848,-4.8848,-4.8848,-4.8848,-4.8848,-4.8848,-4.8775,-4.8775,-4.859,-4.8312,-4.8034,-4.7662,-4.7102,-4.6447,-4.5695,-4.4957,-4.4198,-4.3244,-4.19,-4.0821,-3.9768,-3.8791,-3.8378,-3.7999,-3.718,-3.6839,-3.667,-3.6714,-3.6773,-3.6773,-3.6787,-3.7011,-3.7362,-3.7825,-3.8301,-3.8874,-3.9362,-3.9655,-3.9752,-3.9865,-3.9849,-3.9557,-3.9069,-3.8286,-3.7485,-3.6893,-3.6612,-3.6612,-3.6612,-3.6696,-3.6795,-3.6809,-3.6908,-3.6908,-3.6809,-3.6809,-3.6765,-3.6918,-3.6903,-3.7041,-3.6809,-3.6557,-3.6274,-3.6,-3.5831,-3.5691,-3.5302,-3.509,-3.4929,-3.4812,-3.4753,-3.4912,-3.5069,-3.5148,-3.5148,-3.5521,-3.5708,-4.761,-4.792,-4.8376,-4.8769,-4.9124,-4.9059,-4.9059,-4.9059,-4.9059,-4.9059,-4.9059,-4.9059,-4.9059,-4.9059,-4.9059,-4.9059,-4.9059,-4.9059,-4.9059,-4.8973,-4.8802,-4.8544,-4.8199,-4.7828,-4.7706,-4.7899,-4.8046,-4.8111,-4.8627,-4.8848,-4.8848,-4.8848,-4.8848,-4.8848,-4.8848,-4.8848,-4.8848,-4.8848,-4.8848,-4.8848,-4.8848,-4.8848,-4.8848,-4.8775,-4.8497,-4.8405,-4.8219,-4.7848,-4.7476,-4.6916,-4.6447,-4.5883,-4.5318,-4.437,-4.3435,-4.2076,-4.1111,-4.0416,-3.9752,-3.8791,-3.831,-3.831,-3.7546,-3.7048,-3.6948,-3.6978,-3.7051,-3.7051,-3.7022,-3.7163,-3.7273,-3.7611,-3.7946,-3.8279,-3.8838,-3.9167,-3.928,-3.9167,-3.9167,-3.8971,-3.8482,-3.7893,-3.7091,-3.6795,-3.6612,-3.6612,-3.6711,-3.6795,-3.6893,-3.7007,-3.7204,-3.7204,-3.7303,-3.7401,-3.7598,-3.7765,-3.778,-3.7765,-3.7448,-3.7215,-3.7162,-3.6982,-3.669,-3.6208,-3.5647,-3.5375,-3.5105,-3.5111,-3.5191,-3.5237,-3.5365,-3.5428,-3.5506,-3.6095,-3.6637,-4.7196,-4.7506,-4.8127,-4.8645,-4.9017,-4.9059,-4.9059,-4.9059,-4.9059,-4.9059,-4.9059,-4.9059,-4.9059,-4.9059,-4.9059,-4.9059,-4.9059,-4.9059,-4.9059,-4.8973,-4.8544,-4.8286,-4.7854,-4.7501,-4.7522,-4.7662,-4.7875,-4.8098,-4.8652,-4.8848,-4.8848,-4.8848,-4.8848,-4.8848,-4.8848,-4.8848,-4.8848,-4.8848,-4.8848,-4.8848,-4.8848,-4.8682,-4.859,-4.8497,-4.8146,-4.7867,-4.7774,-4.7308,-4.6822,-4.6353,-4.5883,-4.5223,-4.456,-4.3513,-4.246,-4.1304,-4.0804,-4.0432,-3.9959,-3.9008,-3.8798,-3.8484,-3.7888,-3.7574,-3.7387,-3.7402,-3.7431,-3.7431,-3.7344,-3.7356,-3.7339,-3.7436,-3.7516,-3.771,-3.8211,-3.8693,-3.8678,-3.8678,-3.8482,-3.8286,-3.7795,-3.7303,-3.6908,-3.6711,-3.6612,-3.6711,-3.6809,-3.7106,-3.7204,-3.7204,-3.75,-3.7697,-3.7893,-3.8007,-3.8332,-3.859,-3.8476,-3.8378,-3.7976,-3.784,-3.7913,-3.7739,-3.7327,-3.6699,-3.5853,-3.5691,-3.5559,-3.575,-3.5881,-3.5941,-3.6385,-3.6945,-3.7258,-3.7319,-3.775,-4.701,-4.7134,-4.8003,-4.8603,-4.8976,-4.9038,-4.9059,-4.9059,-4.9059,-4.9059,-4.9059,-4.9059,-4.9059,-4.9059,-4.9059,-4.9059,-4.9059,-4.8973,-4.8887,-4.8973,-4.8286,-4.7941,-4.7595,-4.724,-4.7199,-4.7444,-4.7695,-4.8008,-4.8633,-4.8848,-4.8848,-4.8848,-4.8848,-4.8848,-4.8848,-4.8848,-4.8848,-4.8848,-4.8848,-4.8848,-4.8775,-4.8497,-4.8034,-4.8034,-4.7681,-4.7308,-4.7215,-4.6822,-4.6259,-4.5789,-4.5223,-4.4465,-4.36,-4.2658,-4.158,-4.1081,-4.0756,-4.0396,-4.0063,-3.9234,-3.892,-3.8701,-3.823,-3.7972,-3.7826,-3.7739,-3.7724,-3.7797,-3.7739,-3.7636,-3.7736,-3.7513,-3.7506,-3.7487,-3.7862,-3.8067,-3.809,-3.809,-3.7893,-3.7697,-3.7401,-3.6908,-3.6809,-3.6612,-3.6809,-3.6809,-3.7096,-3.7407,-3.7847,-3.7847,-3.8045,-3.8454,-3.8941,-3.9298,-3.9283,-3.9413,-3.9122,-3.8962,-3.8848,-3.8879,-3.9303,-3.8786,-3.8013,-3.735,-3.6691,-3.6305,-3.609,-3.6363,-3.6606,-3.7013,-3.7615,-3.8781,-3.9108,-3.9249,-3.9498,-4.6638,-4.7113,-4.8003,-4.8438,-4.8583,-4.8914,-4.9059,-4.9059,-4.9059,-4.9059,-4.9059,-4.9059,-4.9059,-4.9059,-4.9059,-4.9059,-4.8973,-4.8802,-4.863,-4.8286,-4.7854,-4.7508,-4.7094,-4.6852,-4.6817,-4.712,-4.748,-4.8047,-4.8672,-4.8848,-4.8848,-4.8848,-4.8848,-4.8848,-4.8848,-4.8848,-4.8848,-4.8848,-4.8848,-4.8848,-4.8775,-4.8405,-4.8034,-4.7755,-4.7382,-4.6822,-4.6541,-4.5978,-4.5601,-4.5129,-4.437,-4.367,-4.2867,-4.1912,-4.1473,-4.1275,-4.0863,-4.0531,-4.0012,-3.9505,-3.9054,-3.8744,-3.8382,-3.8369,-3.8192,-3.8046,-3.8017,-3.8104,-3.8119,-3.8017,-3.7929,-3.7648,-3.741,-3.7476,-3.7412,-3.7506,-3.7613,-3.75,-3.7303,-3.7106,-3.6908,-3.6711,-3.6612,-3.6711,-3.6908,-3.7125,-3.7502,-3.8004,-3.8806,-3.915,-3.9265,-3.9694,-4.0499,-4.0745,-4.0665,-4.0601,-4.0423,-4.0569,-4.0617,-4.0665,-4.0598,-3.9798,-3.8956,-3.8301,-3.7651,-3.7177,-3.6848,-3.69,-3.7212,-3.7859,-3.8942,-4.0067,-4.1399,-4.1855,-4.1948,-4.6326,-4.6721,-4.7486,-4.79,-4.8127,-4.8562,-4.8748,-4.879,-4.8976,-4.9059,-4.9059,-4.9059,-4.9059,-4.9059,-4.9059,-4.8887,-4.8802,-4.8544,-4.8286,-4.7941,-4.7441,-4.7181,-4.6832,-4.6503,-4.6689,-4.6953,-4.7617,-4.8223,-4.873,-4.8848,-4.8848,-4.8848,-4.8848,-4.8848,-4.894,-4.894,-4.894,-4.8848,-4.894,-4.8755,-4.859,-4.8127,-4.7662,-4.7289,-4.6822,-4.6259,-4.5789,-4.5336,-4.5065,-4.4558,-4.3852,-4.3037,-4.2359,-4.1702,-4.1404,-4.1104,-4.0769,-4.0363,-3.9969,-3.9556,-3.9053,-3.8853,-3.8575,-3.8412,-3.8426,-3.8295,-3.8295,-3.8368,-3.8368,-3.828,-3.8104,-3.7884,-3.7591,-3.7501,-3.7218,-3.7036,-3.7007,-3.7007,-3.6908,-3.6809,-3.6711,-3.6711,-3.6612,-3.6612,-3.6854,-3.7586,-3.7964,-3.8644,-3.9466,-4.0184,-4.04,-4.0717,-4.1412,-4.1847,-4.1684,-4.175,-4.1866,-4.2047,-4.2278,-4.1765,-4.1171,-4.0578,-3.9809,-3.9132,-3.8424,-3.7991,-3.7674,-3.7636,-3.8077,-3.8775,-4.0044,-4.1219,-4.2724,-4.4056,-4.434,-4.5975,-4.6389,-4.6783,-4.7258,-4.7651,-4.8086,-4.8334,-4.8459,-4.879,-4.9017,-4.9059,-4.9059,-4.9059,-4.9059,-4.8973,-4.8716,-4.8458,-4.8113,-4.7854,-4.7615,-4.7094,-4.6832,-4.6658,-4.6503,-4.6689,-4.7031,-4.7637,-4.8164,-4.8672,-4.8769,-4.8848,-4.8848,-4.894,-4.894,-4.894,-4.9032,-4.9032,-4.9032,-4.8959,-4.859,-4.8127,-4.7569,-4.7196,-4.6728,-4.6072,-4.5619,-4.5277,-4.4893,-4.4576,-4.407,-4.3407,-4.2591,-4.193,-4.148,-4.1144,-4.0822,-4.0482,-4.0303,-4.0005,-3.9453,-3.9208,-3.9048,-3.8722,-3.8529,-3.8543,-3.8529,-3.8529,-3.8529,-3.8514,-3.8456,-3.8295,-3.8002,-3.7724,-3.7431,-3.6992,-3.6612,-3.6597,-3.6612,-3.6612,-3.6612,-3.6626,-3.6626,-3.6685,-3.6685,-3.7229,-3.785,-3.866,-3.9328,-4.0015,-4.0699,-4.1176,-4.1448,-4.1867,-4.224,-4.2608,-4.2808,-4.299,-4.314,-4.3223,-4.2425,-4.178,-4.1248,-4.0621,-3.984,-3.9256,-3.8592,-3.834,-3.8286,-3.894,-3.9575,-4.093,-4.225,-4.3691,-4.5049,-4.6188,-4.5933,-4.6389,-4.6844,-4.7092,-4.7237,-4.7631,-4.8024,-4.8355,-4.8459,-4.8707,-4.8976,-4.9059,-4.9059,-4.9059,-4.8716,-4.8372,-4.8113,-4.7681,-4.7354,-4.7094,-4.6745,-4.6571,-4.6396,-4.6308,-4.6562,-4.6923,-4.7301,-4.791,-4.8182,-4.8546,-4.8848,-4.8867,-4.8867,-4.9032,-4.942,-4.94,-4.94,-4.94,-4.9236,-4.8867,-4.7867,-4.7401,-4.7102,-4.6541,-4.5695,-4.5612,-4.5203,-4.4333,-4.4015,-4.3475,-4.279,-4.2209,-4.1738,-4.1246,-4.092,-4.0709,-4.0245,-4.0,-3.968,-3.9298,-3.9107,-3.8811,-3.8543,-3.8543,-3.8543,-3.8543,-3.8529,-3.8529,-3.8529,-3.8529,-3.8339,-3.79,-3.7563,-3.7329,-3.6963,-3.6729,-3.6612,-3.6612,-3.6612,-3.6641,-3.667,-3.6802,-3.7007,-3.7351,-3.7954,-3.8696,-3.9489,-4.0163,-4.0778,-4.1351,-4.1895,-4.2152,-4.2376,-4.32,-4.369,-4.3859,-4.4076,-4.4228,-4.3892,-4.3005,-4.227,-4.202,-4.1441,-4.0469,-3.9703,-3.9089,-3.895,-3.8879,-3.9425,-4.0125,-4.1657,-4.3062,-4.4542,-4.5753,-4.6616]},{"header":{"parameterUnit":"m.s-1","parameterCategory":1,"la1":31.0,"la2":29.5877,"lo1":-88.7671,"lo2":-86.6584,"dy":0.0162,"dx":0.0185,"nx":115,"ny":88,"refTime":"2024-02-22T06:00:00:Z","depth":0,"parameterNumber":3,"parameterNumberName":"V-component_of_WINDS"},"data":[0.0,0.0,0.0,0.0,0.0,0.0,0.0,0.0,0.0,0.0,0.0,0.0,0.0,0.0,0.0,0.0,0.0,0.0,0.0,0.0,0.0,0.0,0.0,0.0,0.0,0.0,0.0,0.0,0.0,0.0,0.0,0.0,0.0,0.0,0.0,0.0,0.0,0.0,0.0,0.0,0.0,0.0,0.0,0.0,0.0,0.0,0.0,0.0,0.0,0.0,0.0,0.0,0.0,0.0,0.0,0.0,0.0,0.0,0.0,0.0,0.0,0.0,0.0,0.0,0.0,0.0,0.0,0.0,0.0,0.0,0.0,0.0,0.0,0.0,0.0,0.0,0.0,0.0,0.0,0.0,0.0,0.0,0.0,0.0,0.0,0.0,0.0,0.0,0.0,0.0,0.0,0.0,0.0,0.0,0.0,0.0,0.0,0.0,0.0,0.0,0.0,0.0,0.0,0.0,0.0,0.0,0.0,0.0,0.0,0.0,0.0,0.0,0.0,0.0,0.0,0.0,0.0,0.0,0.0,0.0,0.0,0.0,0.0,0.0,0.0,0.0,0.0,0.0,0.0,0.0,0.0,0.0,0.0,0.0,0.0,0.0,0.0,0.0,0.0,0.0,0.0,0.0,0.0,0.0,0.0,0.0,0.0,0.0,0.0,0.0,0.0,0.0,0.0,0.0,0.0,0.0,0.0,0.0,0.0,0.0,0.0,0.0,0.0,0.0,0.0,0.0,0.0,0.0,0.0,0.0,0.0,0.0,0.0,0.0,0.0,0.0,0.0,0.0,0.0,0.0,0.0,0.0,0.0,0.0,0.0,0.0,0.0,0.0,0.0,0.0,0.0,0.0,0.0,0.0,0.0,0.0,0.0,0.0,0.0,0.0,0.0,0.0,0.0,0.0,0.0,0.0,0.0,0.0,0.0,0.0,0.0,0.0,0.0,0.0,0.0,0.0,0.0,0.0,0.0,0.0,0.0,0.0,0.0,0.0,0.0,0.0,0.0,0.0,0.0,0.0,0.0,0.0,0.0,0.0,0.0,0.0,0.0,0.0,0.0,0.0,0.0,0.0,0.0,0.0,0.0,0.0,0.0,0.0,0.0,0.0,0.0,0.0,0.0,0.0,0.0,0.0,0.0,0.0,0.0,0.0,0.0,0.0,0.0,0.0,0.0,0.0,0.0,0.0,0.0,0.0,0.0,0.0,0.0,0.0,0.0,0.0,0.0,0.0,0.0,0.0,0.0,0.0,0.0,0.0,0.0,0.0,0.0,0.0,0.0,0.0,0.0,0.0,0.0,0.0,0.0,0.0,0.0,0.0,0.0,0.0,0.0,0.0,0.0,0.0,0.0,0.0,0.0,0.0,0.0,0.0,0.0,0.0,0.0,0.0,0.0,0.0,0.0,0.0,0.0,0.0,0.0,0.0,0.0,0.0,0.0,0.0,0.0,0.0,0.0,0.0,0.0,0.0,0.0,0.0,0.0,0.0,0.0,0.0,0.0,0.0,0.0,0.0,0.0,0.0,0.0,0.0,0.0,0.0,0.0,0.0,0.0,0.0,0.0,0.0,0.0,0.0,0.0,0.0,0.0,0.0,0.0,0.0,0.0,0.0,0.0,0.0,0.0,0.0,0.0,0.0,0.0,0.0,0.0,0.0,0.0,0.0,0.0,0.0,0.0,0.0,0.0,0.0,0.0,0.0,0.0,0.0,0.0,0.0,0.0,0.0,0.0,0.0,0.0,0.0,0.0,0.0,0.0,0.0,0.0,0.0,0.0,0.0,0.0,0.0,0.0,0.0,0.0,0.0,0.0,0.0,0.0,0.0,0.0,0.0,0.0,0.0,0.0,0.0,0.0,0.0,0.0,0.0,0.0,0.0,0.0,0.0,0.0,0.0,0.0,0.0,0.0,0.0,0.0,0.0,0.0,0.0,0.0,0.0,0.0,0.0,0.0,0.0,0.0,0.0,0.0,0.0,0.0,0.0,0.0,0.0,0.0,0.0,0.0,0.0,0.0,0.0,0.0,0.0,0.0,0.0,0.0,0.0,0.0,0.0,0.0,0.0,0.0,0.0,0.0,0.0,0.0,0.0,0.0,0.0,0.0,0.0,0.0,0.0,0.0,0.0,0.0,0.0,0.0,0.0,0.0,0.0,0.0,0.0,0.0,0.0,0.0,0.0,0.0,0.0,0.0,0.0,0.0,0.0,0.0,0.0,0.0,0.0,0.0,0.0,0.0,0.0,0.0,0.0,0.0,0.0,0.0,0.0,0.0,0.0,0.0,0.0,0.0,0.0,0.0,0.0,0.0,0.0,0.0,0.0,0.0,0.0,0.0,0.0,0.0,0.0,0.0,0.0,0.0,0.0,0.0,0.0,0.0,0.0,0.0,0.0,0.0,0.0,0.0,0.0,0.0,0.0,0.0,0.0,0.0,0.0,0.0,0.0,0.0,0.0,0.0,0.0,0.0,0.0,0.0,0.0,0.0,0.0,0.0,0.0,0.0,0.0,0.0,0.0,0.0,0.0,0.0,0.0,0.0,0.0,0.0,0.0,0.0,0.0,0.0,0.0,0.0,0.0,0.0,0.0,0.0,0.0,0.0,0.0,0.0,0.0,0.0,0.0,0.0,0.0,0.0,0.0,0.0,0.0,0.0,0.0,0.0,0.0,0.0,0.0,0.0,0.0,0.0,0.0,0.0,0.0,0.0,0.0,0.0,0.0,0.0,0.0,0.0,0.0,0.0,0.0,0.0,0.0,0.0,0.0,0.0,0.0,0.0,0.0,0.0,0.0,0.0,0.0,0.0,0.0,0.0,0.0,0.0,0.0,0.0,0.0,0.0,0.0,0.0,0.0,0.0,0.0,0.0,0.0,0.0,0.0,0.0,0.0,0.0,0.0,0.0,0.0,0.0,0.0,0.0,0.0,0.0,0.0,0.0,0.0,0.0,0.0,0.0,0.0,0.0,0.0,0.0,0.0,0.0,0.0,0.0,0.0,0.0,0.0,0.0,0.0,0.0,0.0,0.0,0.0,0.0,0.0,0.0,0.0,0.0,0.0,0.0,0.0,0.0,0.0,0.0,0.0,0.0,0.0,0.0,0.0,0.0,0.0,0.0,0.0,0.0,0.0,0.0,0.0,0.0,0.0,0.0,0.0,0.0,0.0,0.0,0.0,0.0,0.0,0.0,0.0,0.0,0.0,0.0,0.0,0.0,0.0,0.0,0.0,0.0,0.0,0.0,0.0,0.0,0.0,0.0,0.0,0.0,0.0,0.0,0.0,0.0,0.0,0.0,0.0,0.0,0.0,0.0,0.0,0.0,0.0,0.0,0.0,0.0,0.0,0.0,0.0,0.0,0.0,0.0,0.0,0.0,0.0,0.0,0.0,0.0,0.0,0.0,0.0,0.0,0.0,0.0,0.0,0.0,0.0,0.0,0.0,0.0,0.0,0.0,0.0,0.0,0.0,0.0,0.0,0.0,0.0,0.0,0.0,0.0,0.0,0.0,0.0,0.0,0.0,0.0,0.0,0.0,0.0,0.0,0.0,0.0,0.0,0.0,0.0,0.0,0.0,0.0,0.0,0.0,0.0,0.0,0.0,0.0,0.0,0.0,0.0,0.0,0.0,0.0,0.0,0.0,0.0,0.0,0.0,0.0,0.0,0.0,0.0,0.0,0.0,0.0,0.0,0.0,0.0,0.0,0.0,0.0,0.0,0.0,0.0,0.0,0.0,0.0,0.0,0.0,0.0,0.0,0.0,0.0,0.0,0.0,0.0,0.0,0.0,0.0,0.0,0.0,0.0,0.0,0.0,0.0,0.0,0.0,0.0,0.0,0.0,0.0,0.0,0.0,0.0,0.0,0.0,0.0,0.0,0.0,0.0,0.0,0.0,0.0,0.0,0.0,0.0,0.0,0.0,0.0,0.0,0.0,0.0,0.0,0.0,0.0,0.0,0.0,0.0,0.0,0.0,0.0,0.0,0.0,0.0,0.0,0.0,0.0,0.0,0.0,0.0,0.0,0.0,0.0,0.0,0.0,0.0,0.0,0.0,0.0,0.0,0.0,0.0,0.0,0.0,0.0,0.0,0.0,0.0,0.0,0.0,0.0,0.0,0.0,0.0,0.0,0.0,0.0,0.0,0.0,0.0,0.0,0.0,0.0,0.0,0.0,0.0,0.0,0.0,0.0,0.0,0.0,0.0,0.0,0.0,0.0,0.0,0.0,0.0,0.0,0.0,0.0,0.0,0.0,0.0,0.0,0.0,0.0,0.0,0.0,0.0,-3.6794,0.0,0.0,0.0,0.0,0.0,0.0,0.0,0.0,0.0,0.0,0.0,0.0,0.0,0.0,0.0,0.0,0.0,0.0,0.0,0.0,0.0,0.0,0.0,0.0,0.0,0.0,0.0,0.0,0.0,0.0,0.0,0.0,0.0,0.0,0.0,0.0,0.0,0.0,0.0,0.0,0.0,0.0,0.0,0.0,0.0,0.0,0.0,0.0,0.0,0.0,0.0,0.0,0.0,0.0,0.0,0.0,0.0,0.0,0.0,0.0,0.0,0.0,0.0,0.0,0.0,0.0,0.0,0.0,0.0,0.0,0.0,0.0,0.0,0.0,0.0,0.0,0.0,0.0,0.0,0.0,0.0,0.0,0.0,0.0,0.0,0.0,0.0,0.0,0.0,0.0,0.0,0.0,0.0,0.0,0.0,0.0,0.0,0.0,0.0,0.0,0.0,0.0,0.0,0.0,0.0,0.0,0.0,0.0,0.0,0.0,-3.8189,-3.7725,-3.7523,-3.7352,-3.7179,0.0,0.0,0.0,0.0,0.0,0.0,0.0,0.0,0.0,0.0,0.0,0.0,0.0,0.0,0.0,0.0,0.0,0.0,0.0,0.0,0.0,0.0,0.0,0.0,0.0,0.0,0.0,0.0,0.0,0.0,0.0,0.0,0.0,0.0,0.0,0.0,0.0,0.0,0.0,0.0,0.0,0.0,0.0,0.0,0.0,0.0,0.0,0.0,0.0,0.0,0.0,0.0,0.0,0.0,0.0,0.0,0.0,0.0,0.0,0.0,0.0,0.0,0.0,0.0,0.0,0.0,0.0,0.0,0.0,0.0,0.0,0.0,0.0,0.0,0.0,0.0,0.0,0.0,0.0,0.0,0.0,0.0,0.0,0.0,0.0,0.0,0.0,0.0,0.0,0.0,0.0,0.0,0.0,0.0,0.0,0.0,0.0,0.0,0.0,0.0,0.0,0.0,0.0,0.0,0.0,0.0,0.0,0.0,0.0,0.0,0.0,0.0,-3.8008,-3.7833,-3.7655,0.0,0.0,0.0,0.0,0.0,0.0,0.0,0.0,0.0,0.0,0.0,0.0,0.0,0.0,0.0,0.0,0.0,0.0,0.0,0.0,0.0,0.0,0.0,0.0,0.0,0.0,0.0,0.0,0.0,0.0,0.0,0.0,0.0,0.0,0.0,0.0,0.0,0.0,0.0,0.0,0.0,0.0,0.0,0.0,0.0,0.0,0.0,0.0,0.0,0.0,0.0,0.0,0.0,0.0,0.0,0.0,0.0,0.0,0.0,0.0,0.0,0.0,0.0,0.0,0.0,0.0,0.0,0.0,0.0,0.0,0.0,0.0,0.0,0.0,0.0,0.0,0.0,0.0,0.0,0.0,0.0,0.0,0.0,0.0,0.0,0.0,0.0,0.0,0.0,0.0,0.0,0.0,0.0,0.0,0.0,0.0,0.0,0.0,0.0,0.0,0.0,0.0,0.0,0.0,0.0,0.0,0.0,0.0,0.0,0.0,-3.8234,-3.7918,-3.7889,0.0,-3.7539,0.0,0.0,0.0,0.0,0.0,0.0,0.0,0.0,0.0,0.0,0.0,0.0,0.0,0.0,0.0,0.0,0.0,0.0,0.0,0.0,0.0,0.0,0.0,0.0,0.0,0.0,0.0,0.0,0.0,0.0,0.0,0.0,0.0,0.0,0.0,0.0,0.0,0.0,0.0,0.0,0.0,0.0,0.0,0.0,0.0,0.0,0.0,0.0,0.0,0.0,0.0,0.0,0.0,0.0,0.0,0.0,0.0,0.0,0.0,0.0,0.0,0.0,0.0,0.0,0.0,0.0,0.0,0.0,0.0,0.0,0.0,0.0,0.0,0.0,0.0,0.0,0.0,0.0,0.0,0.0,0.0,0.0,0.0,0.0,0.0,0.0,0.0,0.0,0.0,0.0,0.0,0.0,0.0,0.0,0.0,0.0,0.0,0.0,0.0,0.0,0.0,0.0,0.0,0.0,0.0,0.0,0.0,0.0,0.0,0.0,-3.818,-3.7921,-3.7626,-3.7449,0.0,0.0,0.0,0.0,0.0,0.0,0.0,0.0,0.0,0.0,0.0,0.0,0.0,0.0,0.0,0.0,0.0,0.0,0.0,0.0,0.0,0.0,0.0,0.0,0.0,0.0,0.0,0.0,0.0,0.0,0.0,0.0,0.0,0.0,0.0,0.0,0.0,0.0,0.0,0.0,0.0,0.0,0.0,0.0,0.0,0.0,0.0,0.0,0.0,0.0,0.0,0.0,0.0,0.0,0.0,0.0,0.0,0.0,0.0,0.0,0.0,0.0,0.0,0.0,0.0,0.0,0.0,0.0,0.0,0.0,0.0,0.0,0.0,0.0,0.0,0.0,0.0,0.0,0.0,0.0,0.0,0.0,0.0,0.0,0.0,0.0,0.0,0.0,0.0,0.0,0.0,0.0,0.0,0.0,0.0,0.0,0.0,0.0,0.0,0.0,0.0,0.0,0.0,0.0,0.0,0.0,0.0,0.0,0.0,0.0,-3.7834,-3.7455,-3.7199,-3.6981,-3.6867,-3.6867,0.0,0.0,0.0,0.0,0.0,0.0,0.0,0.0,0.0,0.0,0.0,0.0,0.0,0.0,0.0,0.0,0.0,0.0,0.0,0.0,0.0,0.0,0.0,0.0,0.0,0.0,0.0,0.0,0.0,0.0,0.0,0.0,0.0,0.0,0.0,0.0,0.0,0.0,0.0,0.0,0.0,0.0,0.0,0.0,0.0,0.0,0.0,0.0,0.0,0.0,0.0,0.0,0.0,0.0,0.0,0.0,0.0,0.0,0.0,0.0,0.0,0.0,0.0,0.0,0.0,0.0,0.0,0.0,0.0,0.0,0.0,0.0,0.0,0.0,0.0,0.0,0.0,0.0,0.0,0.0,0.0,0.0,0.0,0.0,0.0,0.0,0.0,0.0,0.0,0.0,0.0,0.0,0.0,0.0,0.0,0.0,0.0,0.0,0.0,0.0,0.0,0.0,0.0,0.0,0.0,0.0,0.0,0.0,-3.7525,-3.6605,-3.5897,-3.5549,-3.5893,-3.6062,0.0,0.0,0.0,0.0,0.0,0.0,0.0,0.0,0.0,0.0,0.0,0.0,0.0,0.0,0.0,0.0,0.0,0.0,0.0,0.0,0.0,0.0,0.0,0.0,0.0,0.0,0.0,0.0,0.0,0.0,0.0,0.0,0.0,0.0,0.0,0.0,0.0,0.0,0.0,0.0,0.0,0.0,0.0,0.0,0.0,0.0,0.0,0.0,0.0,0.0,0.0,0.0,0.0,0.0,0.0,0.0,0.0,0.0,0.0,0.0,0.0,0.0,0.0,0.0,0.0,0.0,0.0,0.0,0.0,0.0,0.0,0.0,0.0,0.0,0.0,0.0,0.0,0.0,0.0,0.0,0.0,0.0,0.0,0.0,0.0,0.0,0.0,0.0,0.0,0.0,0.0,0.0,0.0,0.0,0.0,0.0,0.0,0.0,0.0,0.0,0.0,0.0,0.0,0.0,0.0,0.0,0.0,0.0,0.0,-3.6973,-3.6179,-3.5558,-3.508,-3.5161,-3.5355,0.0,0.0,0.0,0.0,0.0,0.0,0.0,0.0,0.0,0.0,0.0,0.0,0.0,0.0,0.0,0.0,0.0,0.0,0.0,0.0,0.0,0.0,0.0,0.0,0.0,0.0,0.0,0.0,0.0,0.0,0.0,0.0,0.0,0.0,0.0,0.0,0.0,0.0,0.0,0.0,0.0,0.0,0.0,0.0,0.0,0.0,0.0,0.0,0.0,0.0,0.0,0.0,0.0,0.0,0.0,0.0,0.0,0.0,0.0,0.0,0.0,0.0,0.0,0.0,0.0,0.0,0.0,0.0,0.0,0.0,0.0,0.0,0.0,0.0,0.0,0.0,0.0,0.0,0.0,0.0,0.0,0.0,0.0,0.0,0.0,0.0,0.0,0.0,0.0,0.0,0.0,0.0,0.0,0.0,0.0,0.0,0.0,0.0,0.0,0.0,0.0,0.0,0.0,0.0,0.0,0.0,0.0,0.0,0.0,-3.6124,0.0,-3.4861,-3.4906,-3.4767,-3.496,0.0,0.0,0.0,0.0,0.0,0.0,0.0,0.0,0.0,0.0,0.0,0.0,0.0,0.0,0.0,0.0,0.0,0.0,0.0,0.0,0.0,0.0,0.0,0.0,0.0,0.0,0.0,0.0,0.0,0.0,0.0,0.0,0.0,0.0,0.0,0.0,0.0,0.0,0.0,0.0,0.0,0.0,0.0,0.0,0.0,0.0,0.0,0.0,0.0,0.0,0.0,0.0,0.0,0.0,0.0,0.0,0.0,0.0,0.0,0.0,0.0,0.0,0.0,0.0,0.0,0.0,0.0,0.0,0.0,0.0,0.0,0.0,0.0,0.0,0.0,0.0,0.0,0.0,0.0,0.0,0.0,0.0,0.0,0.0,0.0,0.0,0.0,0.0,0.0,0.0,0.0,0.0,0.0,0.0,0.0,0.0,0.0,0.0,0.0,0.0,0.0,0.0,0.0,0.0,0.0,0.0,0.0,0.0,-3.5567,-3.4967,-3.3996,-3.4026,-3.4878,-3.4682,-3.4844,0.0,0.0,0.0,0.0,0.0,0.0,0.0,0.0,0.0,0.0,0.0,0.0,0.0,0.0,0.0,0.0,0.0,0.0,0.0,0.0,0.0,0.0,0.0,0.0,0.0,0.0,0.0,0.0,0.0,0.0,0.0,0.0,0.0,0.0,0.0,0.0,0.0,0.0,0.0,0.0,0.0,0.0,0.0,0.0,0.0,0.0,0.0,0.0,0.0,0.0,0.0,0.0,0.0,0.0,0.0,0.0,0.0,0.0,0.0,0.0,0.0,0.0,0.0,0.0,0.0,0.0,0.0,0.0,0.0,0.0,0.0,0.0,0.0,0.0,0.0,0.0,0.0,0.0,0.0,0.0,0.0,0.0,0.0,0.0,0.0,0.0,0.0,0.0,0.0,0.0,0.0,0.0,0.0,0.0,0.0,0.0,0.0,0.0,0.0,0.0,0.0,0.0,0.0,0.0,0.0,0.0,0.0,0.0,0.0,-3.6382,-3.5776,-3.5729,-3.6282,-3.561,-3.5521,0.0,0.0,0.0,0.0,0.0,0.0,0.0,0.0,0.0,0.0,0.0,0.0,0.0,0.0,0.0,0.0,0.0,0.0,0.0,0.0,0.0,0.0,0.0,0.0,0.0,0.0,0.0,0.0,0.0,0.0,0.0,0.0,0.0,0.0,0.0,0.0,0.0,0.0,0.0,0.0,0.0,0.0,0.0,0.0,0.0,0.0,0.0,0.0,0.0,0.0,0.0,0.0,0.0,0.0,0.0,0.0,0.0,0.0,0.0,0.0,0.0,0.0,0.0,0.0,0.0,0.0,0.0,0.0,0.0,0.0,0.0,0.0,0.0,0.0,0.0,0.0,0.0,0.0,0.0,0.0,0.0,0.0,0.0,0.0,0.0,0.0,0.0,0.0,0.0,0.0,0.0,0.0,0.0,0.0,0.0,0.0,0.0,0.0,0.0,0.0,0.0,0.0,0.0,0.0,0.0,0.0,0.0,0.0,0.0,-3.9936,-3.8216,-3.7705,-3.8717,-3.753,-3.7095,-3.7561,0.0,0.0,0.0,0.0,0.0,0.0,0.0,0.0,0.0,0.0,0.0,0.0,0.0,0.0,0.0,0.0,0.0,0.0,0.0,0.0,0.0,0.0,0.0,0.0,0.0,0.0,0.0,0.0,0.0,0.0,0.0,0.0,0.0,0.0,0.0,0.0,0.0,0.0,0.0,0.0,0.0,0.0,0.0,0.0,0.0,0.0,0.0,0.0,0.0,0.0,0.0,0.0,0.0,0.0,0.0,0.0,0.0,0.0,0.0,0.0,0.0,0.0,0.0,0.0,0.0,0.0,0.0,0.0,0.0,0.0,0.0,0.0,0.0,0.0,0.0,0.0,0.0,0.0,0.0,0.0,0.0,0.0,0.0,0.0,0.0,0.0,0.0,0.0,0.0,0.0,0.0,0.0,0.0,0.0,0.0,0.0,0.0,0.0,0.0,0.0,0.0,0.0,0.0,0.0,0.0,0.0,0.0,0.0,-4.5277,-4.1499,-4.0324,-4.1874,-4.0318,-3.9341,0.0,0.0,0.0,0.0,0.0,0.0,0.0,0.0,0.0,0.0,0.0,0.0,0.0,0.0,0.0,0.0,0.0,0.0,0.0,0.0,0.0,0.0,0.0,0.0,0.0,0.0,0.0,0.0,0.0,0.0,0.0,0.0,0.0,0.0,0.0,0.0,0.0,0.0,0.0,0.0,0.0,0.0,0.0,0.0,0.0,0.0,0.0,0.0,0.0,0.0,0.0,0.0,0.0,0.0,0.0,0.0,0.0,0.0,0.0,0.0,0.0,0.0,0.0,0.0,0.0,0.0,0.0,0.0,0.0,0.0,0.0,0.0,0.0,0.0,0.0,0.0,0.0,0.0,0.0,0.0,0.0,0.0,0.0,0.0,0.0,0.0,0.0,0.0,0.0,0.0,0.0,0.0,0.0,0.0,0.0,0.0,0.0,0.0,0.0,0.0,0.0,0.0,0.0,0.0,0.0,0.0,0.0,0.0,0.0,-4.8936,-4.8839,-4.7726,-4.5615,-4.3804,-4.2507,0.0,0.0,0.0,0.0,0.0,0.0,0.0,0.0,0.0,0.0,0.0,0.0,0.0,0.0,0.0,0.0,0.0,0.0,0.0,0.0,0.0,0.0,0.0,0.0,0.0,0.0,0.0,0.0,0.0,0.0,0.0,0.0,0.0,0.0,0.0,0.0,0.0,0.0,0.0,0.0,0.0,0.0,0.0,0.0,0.0,0.0,0.0,0.0,0.0,0.0,0.0,0.0,0.0,0.0,0.0,0.0,0.0,0.0,0.0,0.0,0.0,0.0,0.0,0.0,0.0,0.0,0.0,0.0,0.0,0.0,0.0,0.0,0.0,0.0,0.0,0.0,0.0,0.0,0.0,0.0,0.0,0.0,0.0,0.0,0.0,0.0,0.0,0.0,0.0,0.0,0.0,0.0,0.0,0.0,0.0,0.0,0.0,0.0,0.0,0.0,0.0,0.0,0.0,0.0,0.0,0.0,0.0,0.0,-4.8625,-5.2495,-5.4163,-5.4148,-5.2365,-4.8771,-4.6181,0.0,0.0,0.0,0.0,0.0,0.0,0.0,0.0,0.0,0.0,0.0,0.0,0.0,0.0,0.0,0.0,0.0,0.0,0.0,0.0,0.0,0.0,0.0,0.0,0.0,0.0,0.0,0.0,0.0,0.0,0.0,0.0,0.0,0.0,0.0,0.0,0.0,0.0,0.0,0.0,0.0,0.0,0.0,0.0,0.0,0.0,0.0,0.0,0.0,0.0,0.0,0.0,0.0,0.0,0.0,0.0,0.0,0.0,0.0,0.0,0.0,0.0,0.0,0.0,0.0,0.0,0.0,0.0,0.0,0.0,0.0,0.0,0.0,0.0,0.0,0.0,0.0,0.0,0.0,0.0,0.0,0.0,0.0,0.0,0.0,0.0,0.0,0.0,0.0,0.0,0.0,0.0,0.0,0.0,0.0,0.0,0.0,0.0,0.0,0.0,0.0,0.0,0.0,0.0,0.0,0.0,0.0,0.0,-5.2155,-5.5907,-5.8162,-5.9729,-6.0216,-5.4414,-5.0121,0.0,0.0,0.0,0.0,0.0,0.0,0.0,0.0,0.0,0.0,0.0,0.0,0.0,0.0,0.0,0.0,0.0,0.0,0.0,0.0,0.0,0.0,0.0,0.0,0.0,0.0,0.0,0.0,0.0,0.0,0.0,0.0,0.0,0.0,0.0,0.0,0.0,0.0,0.0,0.0,0.0,0.0,0.0,0.0,0.0,0.0,0.0,0.0,0.0,0.0,0.0,0.0,0.0,0.0,0.0,0.0,0.0,0.0,0.0,0.0,0.0,0.0,0.0,0.0,0.0,0.0,0.0,0.0,0.0,0.0,0.0,0.0,0.0,0.0,0.0,0.0,0.0,0.0,0.0,0.0,0.0,0.0,0.0,0.0,0.0,0.0,0.0,0.0,0.0,0.0,0.0,0.0,0.0,0.0,0.0,0.0,0.0,0.0,0.0,0.0,0.0,0.0,0.0,0.0,0.0,0.0,0.0,0.0,-5.5203,-6.0289,-6.2596,-6.3961,-6.4479,-5.8184,-5.3334,0.0,0.0,0.0,0.0,0.0,0.0,0.0,0.0,0.0,0.0,0.0,0.0,0.0,0.0,0.0,0.0,0.0,0.0,0.0,0.0,0.0,0.0,0.0,0.0,0.0,0.0,0.0,0.0,0.0,0.0,0.0,0.0,0.0,0.0,0.0,0.0,0.0,0.0,0.0,0.0,0.0,0.0,0.0,0.0,0.0,0.0,0.0,0.0,-4.9624,0.0,0.0,0.0,0.0,0.0,0.0,0.0,0.0,0.0,0.0,0.0,0.0,0.0,0.0,0.0,0.0,0.0,0.0,0.0,0.0,0.0,0.0,0.0,0.0,0.0,0.0,0.0,0.0,0.0,0.0,0.0,0.0,0.0,0.0,0.0,0.0,0.0,0.0,0.0,0.0,0.0,0.0,0.0,0.0,0.0,0.0,0.0,0.0,0.0,0.0,0.0,0.0,0.0,0.0,0.0,0.0,0.0,0.0,0.0,-5.7397,-6.2339,-6.4518,-6.5995,-6.6757,-6.1825,-5.7275,0.0,0.0,0.0,0.0,0.0,0.0,0.0,0.0,0.0,0.0,0.0,0.0,0.0,0.0,0.0,0.0,0.0,0.0,0.0,0.0,0.0,0.0,0.0,0.0,0.0,0.0,0.0,0.0,0.0,0.0,0.0,0.0,0.0,0.0,0.0,0.0,0.0,0.0,0.0,0.0,0.0,0.0,0.0,0.0,0.0,0.0,0.0,0.0,0.0,0.0,0.0,0.0,0.0,0.0,0.0,0.0,0.0,0.0,0.0,0.0,0.0,0.0,0.0,0.0,0.0,0.0,0.0,0.0,0.0,0.0,0.0,0.0,0.0,0.0,0.0,0.0,0.0,0.0,0.0,0.0,0.0,0.0,0.0,0.0,0.0,0.0,0.0,0.0,0.0,0.0,0.0,0.0,0.0,0.0,0.0,0.0,0.0,0.0,0.0,0.0,0.0,0.0,0.0,0.0,0.0,0.0,0.0,-5.4063,-5.9231,-6.3637,-6.5664,-6.7254,-6.8408,-6.4832,-6.0867,-5.6632,0.0,0.0,0.0,0.0,0.0,0.0,0.0,0.0,0.0,0.0,0.0,0.0,0.0,0.0,0.0,0.0,0.0,0.0,0.0,0.0,0.0,0.0,0.0,0.0,0.0,0.0,0.0,0.0,0.0,0.0,0.0,0.0,0.0,0.0,0.0,0.0,0.0,0.0,-4.6179,-4.7471,0.0,0.0,0.0,0.0,0.0,0.0,0.0,0.0,-5.0982,0.0,0.0,0.0,0.0,0.0,0.0,0.0,0.0,0.0,0.0,0.0,0.0,0.0,0.0,0.0,0.0,0.0,0.0,0.0,0.0,0.0,0.0,0.0,0.0,0.0,0.0,0.0,0.0,0.0,0.0,0.0,0.0,0.0,0.0,0.0,0.0,0.0,0.0,0.0,0.0,0.0,0.0,0.0,0.0,0.0,0.0,0.0,0.0,0.0,0.0,0.0,0.0,0.0,0.0,0.0,0.0,-4.9823,-5.5587,-6.0953,-6.5856,-6.8062,-6.932,-6.9453,-6.5998,-6.2326,-5.8488,0.0,0.0,0.0,0.0,0.0,0.0,0.0,0.0,0.0,0.0,0.0,0.0,0.0,0.0,0.0,0.0,0.0,0.0,0.0,0.0,0.0,0.0,0.0,0.0,0.0,0.0,0.0,0.0,0.0,0.0,0.0,0.0,0.0,0.0,0.0,0.0,0.0,0.0,0.0,-4.9293,-4.9889,0.0,0.0,0.0,0.0,0.0,0.0,0.0,0.0,-5.449,0.0,0.0,0.0,0.0,0.0,0.0,0.0,0.0,0.0,0.0,0.0,0.0,0.0,0.0,0.0,0.0,0.0,0.0,0.0,0.0,0.0,0.0,0.0,0.0,0.0,0.0,0.0,0.0,0.0,0.0,0.0,0.0,0.0,0.0,0.0,0.0,0.0,0.0,0.0,0.0,0.0,0.0,0.0,0.0,0.0,0.0,0.0,0.0,0.0,0.0,0.0,0.0,0.0,0.0,0.0,-5.1347,-5.6713,-6.1748,-6.6386,-6.8274,-6.9202,-6.9136,-6.569,-6.208,0.0,0.0,0.0,0.0,0.0,0.0,0.0,0.0,0.0,0.0,0.0,0.0,0.0,0.0,0.0,0.0,0.0,0.0,0.0,0.0,0.0,0.0,0.0,0.0,0.0,0.0,0.0,0.0,0.0,0.0,0.0,0.0,0.0,0.0,0.0,0.0,0.0,0.0,0.0,0.0,-5.0651,-5.1479,-5.1843,0.0,0.0,0.0,0.0,0.0,0.0,-5.5918,-5.6051,0.0,0.0,0.0,0.0,0.0,0.0,0.0,0.0,0.0,0.0,0.0,0.0,0.0,0.0,0.0,0.0,0.0,0.0,0.0,0.0,0.0,0.0,0.0,0.0,0.0,0.0,0.0,0.0,0.0,0.0,0.0,0.0,0.0,0.0,0.0,0.0,0.0,0.0,0.0,0.0,0.0,0.0,0.0,0.0,0.0,0.0,0.0,0.0,0.0,0.0,0.0,0.0,0.0,0.0,0.0,-5.2572,-5.7641,-6.2345,-6.6552,-6.8009,-6.8705,-6.8606,-6.5072,-6.1318,0.0,0.0,0.0,0.0,0.0,0.0,0.0,0.0,0.0,0.0,0.0,0.0,0.0,0.0,0.0,0.0,0.0,0.0,0.0,0.0,0.0,0.0,0.0,0.0,0.0,0.0,0.0,0.0,0.0,0.0,0.0,0.0,0.0,0.0,0.0,0.0,0.0,0.0,0.0,0.0,0.0,-5.3235,-5.3798,-5.5256,0.0,0.0,0.0,0.0,-5.7653,-5.7825,0.0,0.0,0.0,0.0,0.0,0.0,0.0,0.0,0.0,0.0,0.0,0.0,0.0,0.0,0.0,0.0,0.0,0.0,0.0,0.0,0.0,0.0,0.0,0.0,0.0,0.0,0.0,0.0,0.0,0.0,0.0,0.0,0.0,0.0,0.0,0.0,0.0,0.0,0.0,0.0,0.0,0.0,0.0,0.0,0.0,0.0,0.0,0.0,0.0,0.0,0.0,0.0,0.0,0.0,0.0,0.0,-5.3268,-5.8369,-6.3107,-6.7235,-6.8274,-6.8705,-6.8639,-6.4575,-6.063,0.0,0.0,0.0,0.0,0.0,0.0,0.0,0.0,0.0,0.0,0.0,0.0,0.0,0.0,0.0,0.0,0.0,0.0,0.0,0.0,0.0,0.0,0.0,0.0,0.0,0.0,0.0,0.0,0.0,0.0,0.0,0.0,0.0,0.0,0.0,0.0,0.0,0.0,0.0,0.0,0.0,-5.5251,-5.5317,-5.7177,-5.8535,0.0,0.0,-6.0884,-6.0843,-6.1614,0.0,0.0,0.0,0.0,0.0,0.0,0.0,0.0,0.0,0.0,0.0,0.0,0.0,0.0,0.0,0.0,0.0,0.0,0.0,0.0,0.0,0.0,0.0,0.0,0.0,0.0,0.0,0.0,0.0,0.0,0.0,0.0,0.0,0.0,0.0,0.0,0.0,0.0,0.0,0.0,0.0,0.0,0.0,0.0,0.0,0.0,0.0,0.0,0.0,0.0,0.0,0.0,0.0,0.0,0.0,-4.9359,-5.3993,-5.9098,-6.3438,-6.6804,-6.8109,-6.8307,-6.7479,-6.4078,-6.0258,0.0,0.0,0.0,0.0,0.0,0.0,0.0,0.0,0.0,0.0,0.0,0.0,0.0,0.0,0.0,0.0,0.0,0.0,0.0,0.0,0.0,0.0,0.0,0.0,0.0,0.0,0.0,0.0,0.0,0.0,0.0,0.0,0.0,0.0,0.0,0.0,0.0,0.0,0.0,0.0,0.0,0.0,-5.8358,-6.0731,0.0,0.0,0.0,-6.4595,-6.4161,0.0,0.0,0.0,0.0,0.0,0.0,0.0,0.0,0.0,0.0,0.0,0.0,0.0,0.0,0.0,0.0,0.0,0.0,0.0,0.0,0.0,0.0,0.0,0.0,0.0,0.0,0.0,0.0,0.0,0.0,0.0,0.0,0.0,0.0,0.0,0.0,0.0,0.0,0.0,0.0,0.0,0.0,0.0,0.0,0.0,0.0,0.0,0.0,0.0,0.0,0.0,0.0,0.0,0.0,0.0,0.0,0.0,-5.4642,-5.9724,-6.3743,-6.66,-6.8128,-6.8261,-6.6965,-6.3942,0.0,0.0,0.0,0.0,0.0,0.0,0.0,0.0,0.0,0.0,0.0,0.0,0.0,0.0,0.0,0.0,0.0,0.0,0.0,0.0,0.0,0.0,0.0,0.0,0.0,0.0,0.0,-4.5781,0.0,0.0,0.0,0.0,0.0,0.0,0.0,0.0,0.0,0.0,0.0,0.0,0.0,0.0,-5.9683,-6.1314,-6.386,-6.5435,0.0,0.0,-6.7668,-6.6963,-6.6402,-6.5621,0.0,0.0,0.0,0.0,0.0,0.0,0.0,0.0,0.0,0.0,0.0,0.0,0.0,0.0,0.0,0.0,0.0,0.0,0.0,0.0,0.0,0.0,0.0,0.0,0.0,0.0,0.0,0.0,0.0,0.0,0.0,0.0,0.0,0.0,0.0,0.0,0.0,0.0,0.0,0.0,0.0,0.0,0.0,0.0,0.0,0.0,0.0,0.0,0.0,0.0,0.0,0.0,0.0,0.0,-5.066,-5.5043,-6.013,-6.4212,-6.7089,-6.8629,-6.903,-6.8115,-6.4647,-6.1,0.0,0.0,0.0,0.0,0.0,0.0,0.0,0.0,0.0,0.0,0.0,0.0,0.0,0.0,0.0,0.0,0.0,0.0,0.0,0.0,0.0,0.0,0.0,0.0,0.0,0.0,0.0,0.0,0.0,0.0,0.0,0.0,0.0,0.0,0.0,0.0,0.0,0.0,0.0,0.0,0.0,-6.2044,-6.3559,-6.5703,-6.7154,0.0,-6.8528,-6.9401,-6.8627,-6.8668,-6.8003,-6.5665,0.0,0.0,0.0,0.0,0.0,0.0,0.0,0.0,0.0,0.0,0.0,0.0,0.0,0.0,0.0,0.0,0.0,0.0,0.0,0.0,0.0,0.0,0.0,0.0,0.0,0.0,0.0,0.0,0.0,0.0,0.0,0.0,0.0,0.0,0.0,0.0,0.0,0.0,0.0,0.0,0.0,0.0,0.0,0.0,0.0,0.0,0.0,0.0,0.0,0.0,0.0,0.0,0.0,-5.227,-5.6788,-6.147,-6.5143,-6.7569,-6.9086,-6.9288,-6.8109,-6.5345,-6.2104,0.0,0.0,0.0,0.0,0.0,0.0,0.0,0.0,0.0,0.0,0.0,0.0,0.0,0.0,0.0,0.0,0.0,0.0,0.0,0.0,0.0,0.0,0.0,0.0,0.0,0.0,0.0,0.0,-4.7835,-4.8001,-4.8465,0.0,0.0,0.0,0.0,0.0,0.0,0.0,0.0,0.0,0.0,-6.3276,-6.5046,-6.759,0.0,0.0,-7.0744,-7.1512,-7.0633,-6.9795,-6.8608,-6.6669,-6.4814,0.0,0.0,0.0,0.0,0.0,0.0,0.0,0.0,0.0,0.0,0.0,0.0,0.0,0.0,0.0,0.0,0.0,0.0,0.0,0.0,0.0,0.0,0.0,0.0,0.0,0.0,0.0,0.0,0.0,0.0,0.0,0.0,0.0,0.0,0.0,0.0,0.0,0.0,0.0,0.0,0.0,0.0,0.0,0.0,0.0,0.0,0.0,0.0,0.0,0.0,0.0,0.0,-5.3619,-5.8065,-6.2586,-6.595,-6.8158,-6.99,-7.0172,-6.8872,-6.6656,-6.386,0.0,0.0,0.0,0.0,0.0,0.0,0.0,0.0,0.0,0.0,0.0,0.0,0.0,0.0,0.0,0.0,0.0,0.0,0.0,0.0,0.0,0.0,0.0,0.0,0.0,0.0,0.0,0.0,-4.9458,-4.9657,-5.0154,0.0,0.0,0.0,0.0,0.0,0.0,0.0,0.0,0.0,0.0,-6.4187,-6.6242,-6.8625,-7.0259,-7.0172,-7.1562,-7.2322,-7.1352,-7.0153,-6.882,-6.7438,0.0,0.0,0.0,0.0,0.0,0.0,0.0,0.0,0.0,0.0,0.0,0.0,0.0,0.0,0.0,0.0,0.0,0.0,0.0,0.0,0.0,0.0,0.0,0.0,0.0,0.0,0.0,0.0,0.0,0.0,-4.3826,0.0,0.0,0.0,0.0,0.0,0.0,0.0,0.0,0.0,0.0,0.0,0.0,0.0,0.0,0.0,0.0,0.0,0.0,0.0,0.0,0.0,0.0,-5.4532,-5.849,-6.3193,-6.6632,-6.8898,-7.1087,-7.1842,-7.106,-6.8727,-6.6348,-6.3956,0.0,0.0,0.0,0.0,0.0,0.0,0.0,0.0,0.0,0.0,0.0,0.0,0.0,0.0,0.0,0.0,0.0,0.0,0.0,0.0,0.0,0.0,0.0,0.0,0.0,0.0,-5.0187,-5.022,-5.022,0.0,0.0,0.0,0.0,0.0,0.0,0.0,0.0,0.0,0.0,-6.254,-6.4908,-6.7134,-6.8774,-6.968,-6.9501,-7.0682,-7.1352,-7.0419,-6.963,-6.8808,0.0,0.0,0.0,0.0,0.0,0.0,0.0,0.0,0.0,0.0,0.0,0.0,0.0,0.0,0.0,0.0,0.0,0.0,0.0,0.0,0.0,0.0,0.0,0.0,0.0,0.0,0.0,-4.881,-4.8851,0.0,0.0,0.0,0.0,0.0,0.0,0.0,0.0,0.0,0.0,0.0,-5.4135,-5.4595,0.0,0.0,0.0,0.0,0.0,0.0,0.0,0.0,0.0,0.0,0.0,0.0,-5.6121,-6.0531,-6.4754,-6.8054,-7.0268,-7.2069,-7.2624,-7.1862,-7.0049,-6.72,-6.3142,0.0,0.0,0.0,0.0,0.0,0.0,0.0,0.0,0.0,0.0,0.0,0.0,0.0,0.0,0.0,0.0,0.0,0.0,0.0,0.0,0.0,0.0,0.0,0.0,0.0,-5.0419,0.0,0.0,0.0,0.0,0.0,0.0,0.0,0.0,0.0,0.0,0.0,-5.8781,-5.9599,-6.2233,-6.4816,-6.6685,-6.8227,-6.9316,0.0,0.0,0.0,0.0,0.0,0.0,0.0,0.0,0.0,0.0,0.0,0.0,0.0,0.0,-6.5799,-6.3196,-6.3213,-6.3958,-6.4954,0.0,0.0,0.0,0.0,0.0,0.0,0.0,0.0,0.0,0.0,0.0,0.0,0.0,0.0,-5.2732,0.0,-5.1948,0.0,0.0,0.0,0.0,0.0,0.0,0.0,0.0,-5.6313,-5.737,-5.8349,-5.8744,-5.8923,0.0,-5.7798,-5.5434,0.0,0.0,0.0,0.0,0.0,0.0,0.0,0.0,-5.7557,-6.1952,-6.5746,-6.8819,-7.1085,-7.2654,-7.3212,-7.2724,-7.1146,-6.8381,-6.43,-6.2048,-5.9834,0.0,0.0,0.0,0.0,0.0,0.0,0.0,0.0,0.0,0.0,0.0,0.0,0.0,0.0,0.0,0.0,0.0,0.0,0.0,0.0,0.0,0.0,0.0,-5.1916,0.0,0.0,0.0,0.0,0.0,0.0,0.0,0.0,0.0,-5.5646,-5.8137,-6.0125,-6.0603,-6.3007,-6.5255,-6.6608,0.0,0.0,0.0,0.0,0.0,0.0,0.0,-7.1156,-7.1232,-7.1232,-7.1351,-7.1767,-7.2678,-7.3432,-7.371,0.0,0.0,-6.8582,-6.8293,-6.9154,-7.0406,-7.0858,-7.1345,-7.2354,-7.2563,-7.2667,0.0,0.0,0.0,0.0,0.0,0.0,0.0,0.0,-5.6241,-5.658,0.0,-5.6223,0.0,0.0,0.0,0.0,0.0,-5.6317,0.0,0.0,-5.9969,-6.1125,-6.2461,-6.2264,-6.2161,-6.2057,-6.1016,-6.0013,-5.9012,-5.4482,0.0,0.0,0.0,0.0,0.0,0.0,-5.8838,-6.2715,-6.6169,-6.9043,-7.1311,-7.2888,-7.3657,-7.3587,-7.1991,-6.9949,-6.7465,-6.572,-6.3626,-6.1021,-5.8194,0.0,0.0,0.0,0.0,0.0,0.0,0.0,0.0,0.0,0.0,0.0,0.0,0.0,0.0,0.0,0.0,0.0,0.0,0.0,0.0,-5.4498,0.0,0.0,0.0,0.0,0.0,0.0,0.0,0.0,0.0,0.0,-5.8513,-6.0032,-6.1725,-6.3134,0.0,0.0,0.0,0.0,-6.925,-6.9082,-7.0312,-7.1541,-7.2038,-7.1593,-7.1713,-7.337,0.0,0.0,-7.7083,-7.8258,-7.9128,-7.986,-8.0871,-7.9887,-7.4052,-7.3791,-7.4628,-7.5438,-7.6177,-7.667,-7.6775,-7.7057,-7.7163,-6.1107,0.0,0.0,0.0,0.0,-5.7776,-5.9151,-6.0511,-6.099,-6.1158,-6.1078,-5.9677,0.0,0.0,0.0,0.0,0.0,0.0,-6.1581,-6.3024,-6.4114,-6.5125,-6.6066,-6.6549,-6.6753,-6.6719,-6.5766,-6.4579,-6.323,-6.056,-5.7124,-5.3092,0.0,0.0,0.0,0.0,-5.9875,-6.2819,-6.651,-6.9304,-7.1081,-7.2614,-7.3171,-7.2649,-7.2156,-7.0918,-6.9025,-6.7307,-6.5654,-6.4029,-6.0732,0.0,0.0,0.0,0.0,0.0,0.0,0.0,0.0,0.0,0.0,0.0,0.0,0.0,0.0,0.0,0.0,0.0,0.0,0.0,-5.4747,-5.5412,-5.5509,0.0,0.0,0.0,0.0,0.0,0.0,0.0,0.0,0.0,-6.3414,-6.3102,-6.303,0.0,0.0,-6.6359,-6.7601,-6.8794,-6.9836,-7.0903,-7.2444,0.0,-7.453,-7.4911,-7.5465,-7.6522,-7.7953,-7.9745,-8.2376,-8.3196,-8.3832,-8.4746,-8.5318,-8.5192,-8.4094,-8.1626,-8.0594,-8.1662,-8.2196,-8.2689,-8.3691,-8.3976,-8.4012,-6.9136,-6.4465,-6.1844,-6.1218,-6.2037,-6.3025,-6.4024,-6.4995,-6.5361,-6.5376,-6.5143,-6.4157,-6.3007,-6.1862,-6.0852,0.0,0.0,0.0,-6.5232,-6.659,-6.7585,-6.8578,-6.9471,-6.9911,-6.994,-6.9594,-6.8704,-6.7487,-6.5972,-6.4225,-6.14,-5.7497,0.0,0.0,-5.5381,-5.8016,-6.0669,-6.3162,-6.6667,-6.9276,-7.0883,-7.2296,-7.2665,-7.1978,-7.1943,-7.1094,-6.9371,-6.832,-6.6941,-6.521,-6.2623,-6.0477,0.0,0.0,0.0,0.0,0.0,0.0,0.0,0.0,0.0,0.0,0.0,-5.0058,-5.2102,0.0,0.0,0.0,-5.5952,-5.663,-5.7193,-5.7628,0.0,0.0,0.0,0.0,0.0,0.0,0.0,-6.2354,-6.2859,-6.4114,-6.6846,-6.6592,-6.6247,-6.6539,-6.738,-6.8392,-6.957,0.0,-7.1503,-7.2788,-7.433,-7.5666,-7.6431,-7.757,-7.8893,-8.0595,-8.222,-8.3947,-8.5998,-8.7143,-8.7962,-8.8553,-8.9121,-8.9605,-9.0067,-8.8126,-8.6464,-8.6773,-8.6803,-8.7162,-8.8058,-8.8201,-8.8201,-7.577,-7.4446,-6.9064,-6.7097,-6.7519,-6.7519,-6.8206,-6.9421,-6.9422,-6.9317,-6.9106,-6.9,-6.7588,-6.5198,-6.4917,0.0,-6.7078,-6.7738,-6.8698,-6.9796,-7.0453,-7.1401,-7.2562,-7.2348,-7.1919,-7.1276,-7.0379,-6.9236,-6.7776,-6.6302,-6.4648,-6.2858,-5.9536,-5.777,-5.7635,-5.9179,-6.1212,-6.3634,-6.6493,-6.8813,-7.0603,-7.1815,-7.2077,-7.1284,-7.1284,-7.0471,-6.8857,-6.8645,-6.7523,-6.5107,-6.3714,-6.2018,-5.9667,0.0,0.0,0.0,0.0,0.0,0.0,0.0,0.0,0.0,0.0,0.0,0.0,0.0,0.0,0.0,-5.8897,0.0,-6.0663,-6.0693,0.0,0.0,0.0,-6.1726,-6.1226,-6.2494,-6.408,-6.5778,0.0,0.0,-6.936,-7.0331,-7.0701,-7.0475,-7.0932,-7.1519,-7.2325,-7.3021,-7.3827,-7.4802,-7.6203,-7.7422,-7.8484,-8.0028,-8.2067,-8.4648,-8.6325,-8.7341,-8.8524,-8.9875,-9.105,-9.12,-9.2088,-9.2646,-9.2682,-9.2554,-9.2523,-9.0599,-9.03,-9.0336,-9.0516,-9.0552,-9.0552,-7.8917,-7.8482,-7.6358,-7.4082,-7.1906,-7.187,-7.2365,-7.3177,-7.3028,-7.2839,-7.2647,-7.1858,-7.0756,-6.9478,-6.9211,-6.9614,-7.059,-7.04,-7.109,-7.245,-7.2277,-7.2683,-7.3446,-7.3255,-7.3017,-7.2813,-7.2632,-7.1751,-7.0328,-6.9238,-6.7318,-6.4713,-6.3107,-6.1447,-5.9772,-6.0663,-6.2142,-6.3935,-6.5857,-6.785,-6.9947,-7.0865,-7.0652,-6.9316,-6.9282,-6.8754,-6.766,-6.6882,-6.6091,-6.5268,-6.3105,-6.1313,-6.0131,-5.7764,0.0,0.0,0.0,0.0,0.0,0.0,0.0,0.0,0.0,-5.2639,-5.5242,0.0,-5.6812,0.0,-6.1217,-6.2286,-6.2419,-6.2381,0.0,0.0,-6.3627,-6.4599,-6.4465,-6.5925,-6.7483,-6.9078,-6.9371,-7.0355,-7.268,-7.3816,-7.4608,-7.5247,-7.3622,-7.2887,-7.4302,-7.4817,-7.5819,-7.7802,-7.9254,-8.0703,-8.1969,-8.3866,-8.5599,-8.7109,-8.7764,-8.8673,-9.0485,-9.1073,-9.1702,-9.2368,-9.274,-9.2926,-9.2926,-9.3438,-9.3727,-9.3318,-9.3205,-9.3385,-9.397,-9.4078,-9.4078,-8.0622,-8.0299,-7.947,-7.7942,-7.6041,-7.578,-7.5865,-7.6172,-7.6052,-7.5598,-7.4926,-7.3483,-7.2756,-7.2527,-7.1966,-7.2038,-7.264,-7.2414,-7.2843,-7.3708,-7.3513,-7.3701,-7.4317,-7.4175,-7.3911,-7.3575,-7.3575,-7.2632,-7.0916,-7.0342,-6.8786,-6.6167,-6.5292,-6.4044,-6.2493,-6.2263,-6.2821,-6.4131,-6.6343,-6.8133,-6.9572,-7.0046,-6.9708,-6.8522,-6.7845,-6.7125,-6.6255,-6.5387,-6.4723,-6.4228,-6.2724,-6.1383,-6.0317,-5.8621,-5.7342,0.0,0.0,0.0,0.0,0.0,0.0,0.0,0.0,0.0,0.0,0.0,-5.9128,-6.1858,-6.3653,-6.4663,-6.4624,-6.5049,-6.5259,-6.5259,-6.675,-6.7758,-6.7718,-6.9181,-7.0601,-7.1774,-7.2271,-7.3184,-7.4809,-7.608,-7.7033,-7.7615,-7.6556,-7.6053,-7.686,-7.7128,-7.7771,-7.9592,-8.0805,-8.2153,-8.3929,-8.5642,-8.7137,-8.8219,-8.9187,-9.0228,-9.1423,-9.1939,-9.2378,-9.2858,-9.3008,-9.3008,-9.3008,-9.3334,-9.366,-9.366,-9.366,-9.3986,-9.471,-9.4855,-9.4783,-8.1353,-8.0824,-8.0202,-7.9741,-7.9418,-7.8919,-7.8562,-7.8345,-7.8337,-7.7659,-7.6528,-7.4822,-7.4361,-7.4864,-7.4014,-7.3856,-7.425,-7.425,-7.4309,-7.4421,-7.4421,-7.4579,-7.4919,-7.4919,-7.4536,-7.39,-7.3867,-7.283,-7.0857,-7.071,-6.9608,-6.7603,-6.6801,-6.5999,-6.5163,-6.3994,-6.3752,-6.4472,-6.7194,-6.8853,-6.9355,-6.931,-6.8908,-6.7993,-6.6631,-6.5526,-6.4714,-6.4011,-6.3342,-6.2631,-6.2332,-6.1642,-6.0444,-5.9551,-5.88,0.0,-5.6945,0.0,0.0,0.0,0.0,0.0,0.0,0.0,0.0,-6.0457,-6.2221,-6.4635,-6.6308,-6.7319,-6.7422,-6.8171,-6.867,-6.8739,-6.9946,-7.0843,-7.0836,-7.2042,-7.3249,-7.4033,-7.4722,-7.5401,-7.6365,-7.7719,-7.858,-7.8695,-7.9097,-7.9384,-7.9589,-7.9355,-7.9564,-8.0631,-8.1488,-8.2928,-8.4844,-8.6169,-8.727,-8.8516,-8.9698,-9.1135,-9.1338,-9.1958,-9.2501,-9.261,-9.2573,-9.261,-9.2682,-9.2754,-9.2827,-9.2822,-9.289,-9.3256,-9.3877,-9.4058,-9.3805,-8.118,-8.0892,-8.0546,-8.0282,-7.9967,-7.9843,-7.9556,-7.9154,-7.9005,-7.8566,-7.7924,-7.7557,-7.7346,-7.7208,-7.683,-7.6684,-7.677,-7.6606,-7.6189,-7.5654,-7.5522,-7.5139,-7.4705,-7.4423,-7.4306,-7.4123,-7.4123,-7.3592,-7.2629,-7.1999,-7.0903,-6.9343,-6.858,-6.7551,-6.6322,0.0,0.0,0.0,-6.7479,-6.8406,-6.854,-6.854,-6.7859,-6.6554,-6.5091,0.0,-6.3033,-6.2266,-6.1783,-6.141,-6.0804,0.0,0.0,0.0,0.0,0.0,0.0,0.0,0.0,0.0,0.0,0.0,-6.2665,-6.2641,-6.2111,-6.4207,-6.6445,-6.8493,-6.97,-7.0614,-7.1198,-7.158,-7.1808,-7.1843,-7.2602,-7.3034,-7.2897,-7.3644,-7.4665,-7.5857,-7.612,-7.6702,-7.7921,-7.8982,-7.959,-7.9814,-8.0323,-8.0748,-8.0876,-8.0697,-8.1018,-8.1976,-8.2921,-8.437,-8.6068,-8.6582,-8.7062,-8.7798,-8.8149,-8.8967,-8.9745,-9.0002,-9.0364,-9.0907,-9.1052,-9.1052,-9.1052,-9.1559,-9.184,-9.1785,-9.2249,-9.2874,-9.3184,-9.3225,-9.3189,-8.0591,0.0,-8.0225,-8.0023,0.0,-8.0138,-8.0175,-7.9914,-7.9688,-7.9133,-7.845,-7.7929,-7.7646,-7.7497,-7.7397,-7.7246,-7.7094,-7.6993,-7.664,-7.6171,-7.6051,-7.5601,-7.4937,-7.4803,-7.4535,-7.4221,-7.4221,-7.3807,-7.3111,-7.2713,-7.1985,-7.0891,-6.9765,-6.9036,-6.8672,-6.8341,-6.7704,-6.6834,-6.7945,-6.8478,-6.8478,-6.8144,-6.7566,-6.6834,0.0,0.0,0.0,0.0,0.0,0.0,0.0,0.0,0.0,0.0,0.0,-6.2709,-6.304,-6.3405,-6.3769,-6.4133,-6.4796,-6.5856,-6.6742,-6.6779,-6.5789,-6.741,-6.9166,-7.0876,-7.1956,-7.2839,-7.3557,-7.4179,-7.4483,-7.4518,-7.4905,-7.5204,-7.5412,-7.5515,-7.5903,-7.6697,-7.7161,-7.7659,-7.823,-7.945,-8.0209,-8.0375,-8.0731,-8.1019,-8.1131,-8.1098,-8.1315,-8.2002,-8.2949,-8.392,-8.488,-8.5856,-8.6525,-8.6971,-8.7465,-8.81,-8.8695,-8.8843,-8.8951,-8.935,-8.9422,-8.9422,-8.9459,-8.9705,-8.9802,-8.9794,-8.996,-9.0208,-9.0367,-9.0944,-9.1382,-7.987,-7.9647,-7.9782,-7.9693,-7.9499,-8.0234,-8.0535,-8.0521,0.0,0.0,0.0,-7.7781,-7.736,-7.7343,-7.7309,-7.724,-7.7034,-7.7034,-7.6864,-7.649,-7.6523,-7.6125,-7.5463,-7.5463,-7.5065,-7.442,-7.442,-7.4005,-7.331,-7.3177,-7.2813,-7.2117,-7.0858,-7.0494,-7.0991,-6.9765,-6.8871,-6.8393,-6.8572,-6.8738,-6.8871,-6.8175,-6.7811,-6.7811,-6.5823,-6.4465,-6.3868,-6.314,-6.2785,-6.2785,-6.2742,-6.314,-6.4001,-6.463,-6.5127,-6.5558,-6.6651,-6.7347,-6.7479,-6.8175,-6.8904,-6.9694,-7.0519,-7.0523,-6.9457,-7.012,-7.1266,-7.2899,-7.3886,-7.4704,-7.5451,-7.6262,-7.6824,-7.6824,-7.6824,-7.7051,-7.7515,-7.6957,-7.6611,-7.7168,-7.7513,-7.7871,-7.7844,-7.9056,-8.0053,-8.0103,-8.0115,-8.055,-8.0653,-8.0819,-8.118,-8.1694,-8.2338,-8.2896,-8.3551,-8.4571,-8.5585,-8.6145,-8.6813,-8.7519,-8.7896,-8.7971,-8.8043,-8.8297,-8.8188,-8.8224,-8.8188,-8.8215,-8.7877,-8.7837,-8.7677,-8.7515,-8.7582,-8.8408,-8.9138,-7.9336,-7.9074,-7.9708,-7.9848,-7.9646,-8.0342,-8.0641,-8.0662,-8.0502,-7.9838,-7.8874,-7.8688,-7.8531,-7.8319,-7.8319,-7.8266,-7.8266,-7.8266,-7.7881,0.0,-7.7252,-7.6854,-7.6192,-7.6159,-7.5794,-7.5216,-7.5098,-7.4734,-7.4038,-7.3409,-7.3045,-7.2879,-7.2117,-7.1753,-7.1786,-7.1024,-7.0858,-7.1322,-6.9599,-6.9003,-6.9599,-6.8904,-6.8539,-6.8473,-6.7049,-6.6187,-6.6055,-6.5359,-6.4962,-6.4962,-6.4962,-6.5591,-6.6916,-6.7115,-6.8009,-6.9798,-7.0163,-7.056,-7.1189,-7.1918,-7.2746,-7.3724,-7.4868,-7.4497,-7.2152,-7.2018,-7.305,-7.5219,-7.6009,-7.6705,-7.7416,-7.8006,-7.8313,-7.8313,-7.817,-7.8012,-7.7919,-7.7033,-7.6669,-7.7128,-7.6692,-7.6709,-7.7162,-7.7732,-7.8118,-7.81,-7.8551,-7.8733,-7.9442,-8.0301,-8.1131,-8.1599,-8.199,-8.2544,-8.335,-8.3854,-8.4581,-8.5279,-8.5542,-8.606,-8.6989,-8.7027,-8.7247,-8.7971,-8.7862,-8.7935,-8.7971,-8.8071,-8.7545,-8.7313,-8.7074,-8.6983,-8.671,-8.6633,-8.6762,-7.9375,-7.9301,-7.9633,-7.9944,-8.0266,-8.0962,-8.1293,-8.1315,-8.1203,-8.0493,-7.9268,-7.887,-7.8617,-7.8511,-7.8511,-7.8511,-7.8511,-7.8511,-7.8345,-7.8014,-7.8014,-7.7616,-7.6954,-7.692,-7.6324,-7.533,-7.5264,-7.4951,-7.4204,-7.384,-7.3674,-7.3674,-7.3343,-7.2978,-7.2614,-7.2283,-7.225,-7.2548,-7.1189,-7.0659,-7.0991,-7.0262,-6.9864,-6.9864,-6.8837,-6.8109,-6.7711,-6.7347,-6.7181,-6.7181,-6.7181,-6.7844,-6.9301,-6.9765,-7.0626,-7.2018,-7.2846,-7.3509,-7.399,-7.4839,-7.5506,-7.599,-7.6525,-7.6542,-7.569,-7.5502,-7.6068,-7.7513,-7.7929,-7.8348,-7.9058,-7.9359,-7.9507,-7.9507,-7.9069,-7.8804,-7.8757,-7.7731,-7.6977,-7.6926,-7.6675,-7.634,-7.6171,-7.6742,-7.7229,-7.738,-7.768,-7.816,-7.8613,-7.9148,-7.9985,-8.1057,-8.166,-8.2234,-8.3173,-8.3654,-8.4165,-8.494,-8.502,-8.5323,-8.5886,-8.5822,-8.5719,-8.5935,-8.5867,-8.5654,-8.569,-8.535,-8.5189,-8.5064,-8.4756,-8.4518,-8.433,-8.4237,-8.4625,-7.9869,-7.9869,-8.0067,-8.0531,-8.1227,-8.179,-8.2055,-8.2022,-8.1856,-8.1161,-8.0101,-7.9173,-7.8676,-7.8511,-7.8511,-7.8511,-7.8511,-7.8511,-7.8511,-7.8511,-7.8511,-7.8212,-7.7715,-7.7682,-7.6987,-7.5827,-7.5595,-7.5132,-7.452,-7.4321,-7.4221,-7.4221,-7.4221,-7.3906,-7.3376,-7.3343,-7.3343,-7.331,-7.278,-7.2349,-7.1985,-7.1421,-7.1123,-7.109,-7.0593,-7.003,-6.9467,-6.9434,-6.95,-6.9666,-6.9699,-7.0361,-7.1786,-7.2415,-7.3194,-7.4139,-7.5234,-7.6118,-7.6506,-7.7295,-7.7749,-7.7799,-7.785,-7.8119,-7.8639,-7.8572,-7.8671,-7.9111,-7.9179,-7.9465,-7.9905,-8.009,-8.0209,-8.0175,-7.9651,-7.9365,-7.9515,-7.8438,-7.7463,-7.7004,-7.6768,-7.6299,-7.5831,-7.6118,-7.6524,-7.6743,-7.7358,-7.7852,-7.8012,-7.8258,-7.9166,-8.0241,-8.1173,-8.2014,-8.3015,-8.3611,-8.4123,-8.4778,-8.4685,-8.4733,-8.4823,-8.4475,-8.4083,-8.4123,-8.3839,-8.3771,-8.3553,-8.329,-8.3169,-8.319,-8.2958,-8.2397,-8.2469,-8.2571,-8.2951,-8.0598,-8.0697,-8.126,-8.2022,-8.2618,-8.2751,-8.2751,-8.2684,-8.2088,-8.1757,-8.1393,-8.0134,-7.9173,-7.8577,-7.8544,-7.8511,-7.8511,-7.8511,-7.8511,-7.8511,-7.8511,-7.8477,-7.8378,-7.8378,-7.8014,-7.7152,-7.649,-7.5794,-7.5098,-7.452,-7.4221,-7.4221,-7.4221,-7.4188,-7.4122,-7.4072,-7.4089,-7.4122,-7.4005,-7.3343,-7.2084,-7.1918,-7.1918,-7.1885,-7.1852,-7.1753,-7.1653,-7.172,-7.1985,-7.2614,-7.2647,-7.3343,-7.4686,-7.4933,-7.575,-7.7252,-7.7603,-7.804,-7.8935,-7.9361,-7.9481,-7.96,-7.9702,-7.9837,-7.9939,-7.9955,-7.9803,-7.9564,-7.9616,-7.9752,-7.9853,-8.0057,-8.0209,-8.0209,-7.9905,-7.9683,-7.9392,-7.853,-7.7718,-7.7371,-7.6807,-7.6258,-7.621,-7.6018,-7.5806,-7.5867,-7.6657,-7.7312,-7.7489,-7.8182,-7.899,-7.9636,-8.0409,-8.1652,-8.2981,-8.3697,-8.4081,-8.4661,-8.425,-8.408,-8.4019,-8.3562,-8.3068,-8.3182,-8.315,-8.3081,-8.3189,-8.3183,-8.2809,-8.2514,-8.2281,-8.2152,-8.2152,-8.2001,-8.2198,-8.0962,-8.1293,-8.1194,-8.1823,-8.2817,-8.2883,-8.2883,-8.285,-8.2585,-8.2221,-8.1757,-8.1161,-8.0266,-7.9119,-7.8742,-7.8511,-7.8511,-7.8511,-7.8511,-7.8511,-7.8511,-7.8511,-7.8511,-7.8511,-7.8146,-7.7384,-7.6655,-7.596,-7.5315,-7.4586,-7.4221,-7.4221,-7.4221,-7.4221,-7.4221,-7.4221,-7.4221,-7.4221,-7.4221,-7.3873,-7.3376,-7.3276,-7.3276,-7.3276,-7.3276,-7.3276,-7.3276,-7.3276,-7.3641,-7.4303,-7.437,-7.5167,-7.6749,-7.6816,-7.7385,-7.8697,-7.8953,-7.9208,-7.9614,-7.9904,-8.0057,-8.0057,-8.0158,-8.0209,-8.0209,-8.0209,-8.0107,-7.9955,-7.9972,-8.0057,-8.0057,-8.0158,-8.0209,-8.0158,-7.9955,-7.9699,-7.944,-7.886,-7.8264,-7.7536,-7.7152,-7.6788,-7.6376,-7.6054,-7.5973,-7.6062,-7.6496,-7.6773,-7.7159,-7.7675,-7.8545,-7.9803,-8.0514,-8.1189,-8.2453,-8.3277,-8.3833,-8.4058,-8.3685,-8.3269,-8.3294,-8.2489,-8.1893,-8.2238,-8.2063,-8.1959,-8.1961,-8.1851,-8.1665,-8.1623,-8.1475,-8.1177,-8.1177,-8.119,-8.1377,-8.1161,-8.1426,-8.1094,-8.1724,-8.2883,-8.2883,-8.2883,-8.2883,-8.2883,-8.2585,-8.2088,-8.1889,-8.1227,-8.02,-7.9438,-7.9007,-7.8842,-7.8809,-7.8709,-7.8544,-7.8511,-7.8511,-7.8511,-7.8511,-7.8246,-7.7649,-7.6755,-7.5827,-7.5083,-7.4469,-7.4221,-7.4221,-7.4221,-7.4221,-7.4221,-7.4221,-7.4221,-7.4221,-7.4221,-7.4221,-7.4188,-7.4221,-7.4221,-7.4221,-7.4221,-7.4221,-7.4221,-7.442,-7.4833,-7.5496,-7.5864,-7.6631,-7.807,-7.8274,-7.8697,-7.9425,-7.975,-7.9904,-7.9904,-8.0107,-8.0209,-8.0209,-8.0209,-8.031,-8.0412,-8.031,-8.031,-8.0513,-8.031,-8.0209,-8.0209,-8.0209,-8.0209,-8.0107,-7.9904,-7.9699,-7.9251,-7.9041,-7.8597,-7.7868,-7.7749,-7.7503,-7.6911,-7.6859,-7.7008,-7.686,-7.6781,-7.6724,-7.7247,-7.7654,-7.8518,-8.0046,-8.0623,-8.1463,-8.2269,-8.312,-8.3646,-8.3528,-8.3125,-8.2465,-8.2478,-8.1439,-8.0756,-8.1033,-8.076,-8.0875,-8.1238,-8.1021,-8.0802,-8.0726,-8.0652,-8.058,-8.0649,-8.0692,-8.0803,-8.1359,-8.0863,-8.1459,-8.2088,-8.285,-8.285,-8.285,-8.2817,-8.2883,-8.285,-8.2718,-8.2121,-8.1757,-8.1624,-8.0896,-8.0233,-7.9637,-7.9537,-7.9173,-7.861,-7.8544,-7.8511,-7.8511,-7.8511,-7.8477,-7.8246,-7.6954,-7.5628,-7.4387,-7.4255,-7.4221,-7.4221,-7.4221,-7.4221,-7.4221,-7.4221,-7.4221,-7.4221,-7.4221,-7.4221,-7.4221,-7.4221,-7.4221,-7.4237,-7.4221,-7.4221,-7.4321,-7.4918,-7.5581,-7.6258,-7.7148,-7.807,-7.8769,-7.9131,-7.9425,-7.975,-8.0057,-8.0158,-8.0192,-8.0242,-8.0276,-8.0276,-8.0378,-8.0547,-8.1122,-8.075,-8.0648,-8.1156,-8.0564,-8.0226,-8.0158,-8.0158,-8.0057,-7.9853,-7.9801,-7.9544,-7.9022,-7.9069,-7.8777,-7.8564,-7.8511,-7.8339,-7.7936,-7.8522,-7.8262,-7.7768,-7.7822,-7.8141,-7.7994,-7.8668,-7.9339,-7.9923,-8.1007,-8.2339,-8.3261,-8.3393,-8.3472,-8.3191,-8.2459,-8.1619,-8.1025,-8.0505,-8.019,-8.0081,-8.0392,-8.0583,-8.0732,-8.0804,-8.0767,-8.0692,-8.0655,-8.0582,-8.0656,-8.0693,-8.0803,-8.0266,-8.0101,-8.0796,-8.126,-8.1525,-8.1989,-8.2188,-8.2254,-8.2684,-8.2883,-8.285,-8.2618,-8.2486,-8.2486,-8.2221,-8.1426,-8.0332,-7.9836,-7.9471,-7.9173,-7.8742,-7.8511,-7.8511,-7.8511,-7.8511,-7.8312,-7.6987,-7.5562,-7.4354,-7.4221,-7.4221,-7.4221,-7.4221,-7.4221,-7.4221,-7.4221,-7.4221,-7.4221,-7.4221,-7.4221,-7.4221,-7.4221,-7.442,-7.4833,-7.4453,-7.4453,-7.4918,-7.5336,-7.6102,-7.7248,-7.7892,-7.8567,-7.9358,-7.975,-7.9955,-8.0057,-8.0158,-8.0412,-8.0818,-8.0885,-8.1122,-8.1562,-8.1629,-8.1612,-8.19,-8.1765,-8.151,-8.1086,-8.0832,-8.0443,-7.9851,-7.9853,-7.9853,-7.9596,-7.9355,-7.9346,-7.9502,-7.9421,-7.948,-7.9757,-7.97,-7.9422,-7.9345,-7.9363,-7.9313,-7.9411,-7.9499,-7.95,-7.9723,-8.0115,-8.0524,-8.1137,-8.1577,-8.2155,-8.3005,-8.3155,-8.3005,-8.2486,-8.1856,-8.1269,-8.0696,-7.997,-7.9595,-8.001,-8.032,-8.0619,-8.084,-8.0948,-8.0876,-8.0876,-8.0803,-8.0803,-8.0912,-8.0876,-8.0948,-7.9351,-7.9616,-8.0134,-8.0498,-8.0763,-8.1227,-8.1591,-8.1823,-8.232,-8.2684,-8.285,-8.2883,-8.2883,-8.2883,-8.2883,-8.2419,-8.1393,-8.0664,-8.0101,-7.9604,-7.9107,-7.8742,-7.8544,-7.8511,-7.8511,-7.8279,-7.702,-7.5562,-7.4303,-7.4221,-7.4221,-7.4221,-7.4221,-7.4221,-7.4221,-7.4221,-7.4221,-7.4221,-7.4221,-7.4221,-7.4221,-7.4221,-7.4586,-7.5218,-7.492,-7.5019,-7.575,-7.6238,-7.6958,-7.7944,-7.8518,-7.911,-7.9836,-8.0107,-8.0209,-8.0209,-8.0445,-8.0699,-8.1155,-8.1391,-8.1711,-8.2079,-8.2147,-8.2214,-8.245,-8.2282,-8.1873,-8.1514,-8.1211,-8.0651,-7.9924,-7.9809,-7.9675,-7.9351,-7.9041,-7.9182,-7.9774,-7.9712,-7.9989,-8.0551,-8.0562,-8.0487,-8.0581,-8.0335,-8.0453,-8.0951,-8.0852,-8.0902,-8.1055,-8.1309,-8.1555,-8.2204,-8.2217,-8.2337,-8.2656,-8.2716,-8.2705,-8.222,-8.1843,-8.1129,-8.0578,-7.9831,-7.955,-8.0006,-8.0358,-8.0656,-8.0876,-8.1021,-8.1092,-8.1092,-8.1021,-8.0948,-8.1021,-8.1056,-8.1056,-7.8974,-7.9537,-7.9604,-7.9968,-8.0465,-8.0631,-8.1094,-8.1591,-8.179,-8.2221,-8.2718,-8.285,-8.2883,-8.2883,-8.2883,-8.285,-8.2585,-8.1889,-8.0896,-7.9802,-7.9604,-7.914,-7.849,-7.8511,-7.8378,-7.8246,-7.6987,-7.5562,-7.4288,-7.4221,-7.4221,-7.4221,-7.4221,-7.4221,-7.4221,-7.4221,-7.4221,-7.4221,-7.4221,-7.4221,-7.4221,-7.4288,-7.4837,-7.5672,-7.5789,-7.6155,-7.6855,-7.7712,-7.8183,-7.8435,-7.9211,-7.987,-8.0124,-8.0209,-8.0209,-8.0327,-8.0885,-8.1103,-8.108,-8.1653,-8.1917,-8.1959,-8.1685,-8.2087,-8.261,-8.2241,-8.202,-8.2234,-8.1866,-8.107,-8.0255,-8.0035,-7.9735,-7.9016,-7.8949,-7.9209,-7.9558,-7.9736,-8.0044,-8.0988,-8.1293,-8.1376,-8.1594,-8.1488,-8.1597,-8.1708,-8.1954,-8.2013,-8.2008,-8.2206,-8.2361,-8.2486,-8.2533,-8.2586,-8.2464,-8.2303,-8.2211,-8.2107,-8.1767,-8.1294,-8.1007,-8.0436,-8.0233,-8.0509,-8.0543,-8.0839,-8.0948,-8.1092,-8.1092,-8.1092,-8.1092,-8.1092,-8.1092,-8.1092,-8.1092,-7.8676,-7.8842,-7.8875,-7.8974,-7.9272,-7.9736,-8.0101,-8.0432,-8.1326,-8.1923,-8.2188,-8.2684,-8.2883,-8.2883,-8.2883,-8.2883,-8.2817,-8.2121,-8.126,-8.0366,-7.9836,-7.9239,-7.8643,-7.8511,-7.798,-7.7086,-7.6556,-7.5562,-7.4436,-7.4255,-7.4221,-7.4221,-7.4221,-7.4221,-7.4255,-7.4221,-7.4221,-7.4221,-7.4221,-7.4221,-7.4288,-7.4871,-7.5621,-7.6422,-7.7312,-7.8068,-7.8772,-7.8673,-7.8825,-7.9295,-7.982,-8.0107,-8.0209,-8.0209,-8.0344,-8.0663,-8.0847,-8.1451,-8.206,-8.2308,-8.2677,-8.2937,-8.3038,-8.3172,-8.3373,-8.3205,-8.2795,-8.2498,-8.2109,-8.1567,-8.075,-8.0442,-7.9998,-7.875,-7.9082,-7.9646,-8.0354,-8.1414,-8.2231,-8.2556,-8.2353,-8.2259,-8.2394,-8.2414,-8.2348,-8.2725,-8.3136,-8.338,-8.3435,-8.3231,-8.3429,-8.3457,-8.3173,-8.2625,-8.2488,-8.2396,-8.2303,-8.228,-8.2022,-8.1821,-8.1488,-8.1381,-8.1176,-8.1016,-8.1049,-8.102,-8.1165,-8.1201,-8.1273,-8.1128,-8.1092,-8.1092,-8.1092,-8.1092,-8.1092,-7.8511,-7.8511,-7.8511,-7.8511,-7.8577,-7.9041,-7.9318,-7.9649,-8.0564,-8.1128,-8.1426,-8.1856,-8.2088,-8.2088,-8.2088,-8.2088,-8.2022,-8.1591,-8.0995,-8.0332,-7.9869,-7.9206,-7.861,-7.8511,-7.7947,-7.6954,-7.6722,-7.6125,-7.5032,-7.4966,-7.4966,-7.4966,-7.4734,-7.4652,-7.4586,-7.4354,-7.4221,-7.4221,-7.4221,-7.4221,-7.4354,-7.507,-7.6005,-7.6942,-7.7983,-7.8977,-7.9803,-7.9381,-7.9348,-7.9854,-8.0057,-8.0057,-8.0023,-7.9955,-8.0138,-8.0674,-8.1039,-8.1537,-8.2427,-8.274,-8.3053,-8.3399,-8.3443,-8.3443,-8.3443,-8.3443,-8.3066,-8.2655,-8.2466,-8.2112,-8.1315,-8.1094,-8.0586,-7.9633,-7.9791,-8.0387,-8.126,-8.2731,-8.3637,-8.3723,-8.338,-8.3239,-8.339,-8.3033,-8.3021,-8.3516,-8.3904,-8.4236,-8.4152,-8.3826,-8.3776,-8.3481,-8.2861,-8.2533,-8.2488,-8.2442,-8.2442,-8.244,-8.2412,-8.2313,-8.2169,-8.2317,-8.2241,-8.2222,-8.2175,-8.1961,-8.1998,-8.1744,-8.1672,-8.1454,-8.1165,-8.1092,-8.1092,-8.1092,-8.1092,-7.8511,-7.8511,-7.8511,-7.8511,-7.8511,-7.8577,-7.8941,-7.9471,-7.9703,-8.0101,-8.0564,-8.0829,-8.0829,-8.0763,-8.0929,-8.0929,-8.0697,-8.0664,-8.0332,-7.9836,-7.9504,-7.9107,-7.8577,-7.8511,-7.808,-7.7417,-7.7351,-7.692,-7.6092,-7.6092,-7.6291,-7.6059,-7.5562,-7.533,-7.5198,-7.4635,-7.4303,-7.4337,-7.4288,-7.4221,-7.4288,-7.5101,-7.5969,-7.7128,-7.8033,-7.8975,-7.982,-7.9752,-7.9785,-8.0057,-7.9853,-7.9801,-7.975,-7.9577,-7.9909,-8.0627,-8.1263,-8.1805,-8.2321,-8.281,-8.3121,-8.2996,-8.2996,-8.2883,-8.2996,-8.2996,-8.2963,-8.284,-8.284,-8.2608,-8.1989,-8.1912,-8.1658,-8.1313,-8.1146,-8.1424,-8.2309,-8.3719,-8.4524,-8.4619,-8.4334,-8.4177,-8.4434,-8.376,-8.3561,-8.3861,-8.3989,-8.4032,-8.3989,-8.3689,-8.3341,-8.2986,-8.267,-8.2625,-8.267,-8.2761,-8.2806,-8.3182,-8.313,-8.3144,-8.3019,-8.3193,-8.3312,-8.3284,-8.3117,-8.2939,-8.2613,-8.2324,-8.1961,-8.1635,-8.1418,-8.1201,-8.1092,-8.1092,-8.1092,-7.8511,-7.8511,-7.8511,-7.8511,-7.8511,-7.8511,-7.861,-7.8875,-7.9372,-7.9637,-7.9968,-8.0465,-8.0598,-8.0664,-8.0631,-8.0664,-8.0498,-8.0101,-7.9836,-7.9571,-7.8987,-7.8742,-7.8544,-7.8511,-7.8146,-7.755,-7.7484,-7.7053,-7.6357,-7.6424,-7.639,-7.6291,-7.6192,-7.6026,-7.5927,-7.533,-7.5083,-7.4951,-7.4453,-7.4255,-7.4453,-7.5635,-7.6538,-7.694,-7.8314,-7.9206,-7.9596,-7.9544,-7.9544,-7.9596,-7.9544,-7.9492,-7.9559,-7.989,-8.0334,-8.0962,-8.1609,-8.2233,-8.2588,-8.2863,-8.294,-8.2883,-8.2883,-8.2883,-8.2883,-8.2883,-8.2883,-8.2883,-8.2883,-8.2817,-8.2675,-8.2776,-8.2976,-8.3281,-8.2832,-8.2906,-8.3779,-8.4649,-8.5343,-8.5668,-8.488,-8.4674,-8.4624,-8.4082,-8.3376,-8.3725,-8.3819,-8.3819,-8.3654,-8.3429,-8.3031,-8.3031,-8.2851,-8.2851,-8.2851,-8.2986,-8.3253,-8.3826,-8.4045,-8.4136,-8.4034,-8.4036,-8.4143,-8.424,-8.3914,-8.3664,-8.3157,-8.2758,-8.2324,-8.1925,-8.1454,-8.1165,-8.1128,-8.1092,-8.1092,-7.7583,-7.7616,-7.7583,-7.7583,-7.7583,-7.7583,-7.7583,-7.7749,-7.8378,-7.8709,-7.8842,-7.9471,-7.9769,-7.9769,-7.9769,-7.9769,-7.9703,-7.9339,-7.9173,-7.9074,-7.8709,-7.8544,-7.8511,-7.8511,-7.8279,-7.7947,-7.7881,-7.7649,-7.7318,-7.7252,-7.7252,-7.7219,-7.692,-7.6788,-7.6722,-7.6092,-7.5562,-7.5315,-7.4833,-7.4686,-7.4785,-7.5882,-7.6871,-7.7407,-7.863,-7.9332,-7.9633,-7.9967,-7.99,-7.9537,-7.9284,-7.9313,-7.9647,-7.9908,-8.0534,-8.1303,-8.1835,-8.2289,-8.2774,-8.2883,-8.2883,-8.2883,-8.2883,-8.2883,-8.2883,-8.2883,-8.2883,-8.2883,-8.2883,-8.294,-8.3165,-8.3521,-8.4014,-8.4398,-8.4464,-8.4554,-8.4943,-8.5515,-8.5836,-8.5787,-8.5298,-8.4658,-8.4866,-8.3901,-8.3561,-8.3516,-8.3559,-8.3437,-8.3262,-8.2951,-8.2806,-8.2761,-8.2726,-8.2716,-8.3075,-8.3297,-8.3654,-8.4284,-8.4702,-8.49,-8.4876,-8.4829,-8.4915,-8.4929,-8.464,-8.4352,-8.3881,-8.3338,-8.2722,-8.2251,-8.1635,-8.1201,-8.1128,-8.1092,-8.1092,-7.6324,-7.6324,-7.6324,-7.6291,-7.639,-7.6324,-7.649,-7.649,-7.7086,-7.7384,-7.7484,-7.8014,-7.8279,-7.8312,-7.8279,-7.8345,-7.8444,-7.8444,-7.8511,-7.8544,-7.8511,-7.8511,-7.8511,-7.8511,-7.8477,-7.8411,-7.8511,-7.8444,-7.8246,-7.8345,-7.8444,-7.8212,-7.7749,-7.7583,-7.7384,-7.6788,-7.6125,-7.5728,-7.5496,-7.5448,-7.5632,-7.6314,-7.7152,-7.808,-7.8774,-7.9369,-7.9915,-8.0447,-8.0555,-7.9585,-7.9222,-7.9515,-7.9994,-7.9878,-8.0465,-8.1547,-8.1945,-8.2343,-8.2751,-8.2883,-8.2883,-8.2883,-8.2883,-8.2883,-8.2883,-8.2973,-8.2996,-8.2996,-8.2996,-8.322,-8.3554,-8.4177,-8.4766,-8.5152,-8.5753,-8.5871,-8.577,-8.6172,-8.6373,-8.5562,-8.5262,-8.482,-8.4347,-8.3824,-8.3464,-8.312,-8.3085,-8.2861,-8.2681,-8.2407,-8.235,-8.235,-8.2407,-8.2498,-8.304,-8.3568,-8.4081,-8.4656,-8.5179,-8.5414,-8.5414,-8.5425,-8.5574,-8.5544,-8.5257,-8.504,-8.4823,-8.4171,-8.3301,-8.2541,-8.1889,-8.1418,-8.1092,-8.1092,-8.1092,-7.6291,-7.6291,-7.6291,-7.6291,-7.6291,-7.6291,-7.6291,-7.6291,-7.6457,-7.6556,-7.6589,-7.6755,-7.6854,-7.6854,-7.6954,-7.7086,-7.7616,-7.7715,-7.7914,-7.8511,-7.8511,-7.8511,-7.8511,-7.8511,-7.8511,-7.8511,-7.8511,-7.8511,-7.8511,-7.8511,-7.8511,-7.8477,-7.8345,-7.8279,-7.8113,-7.755,-7.7119,-7.6854,-7.639,-7.6281,-7.6568,-7.7152,-7.7774,-7.8399,-7.926,-7.9695,-7.9812,-8.0409,-8.0608,-8.0463,-8.0397,-8.0442,-8.0608,-8.0984,-8.1426,-8.1823,-8.2353,-8.2718,-8.285,-8.294,-8.2883,-8.294,-8.2996,-8.2883,-8.2883,-8.3108,-8.322,-8.3276,-8.3443,-8.3775,-8.4265,-8.4872,-8.5378,-8.5871,-8.599,-8.6033,-8.6059,-8.6238,-8.6019,-8.5321,-8.4716,-8.4215,-8.4015,-8.326,-8.2911,-8.2716,-8.2533,-8.2269,-8.2071,-8.1883,-8.199,-8.2164,-8.2407,-8.2635,-8.3306,-8.3911,-8.4538,-8.498,-8.5453,-8.5723,-8.5759,-8.5759,-8.5797,-8.5835,-8.5837,-8.5619,-8.5366,-8.446,-8.3483,-8.2794,-8.2179,-8.1599,-8.1201,-8.1165,-8.1092,-7.5297,-7.5297,-7.5297,-7.5297,-7.5297,-7.5297,-7.533,-7.5397,-7.5695,-7.5827,-7.5927,-7.6125,-7.6291,-7.6291,-7.6324,-7.6589,-7.692,-7.7285,-7.7616,-7.8047,-7.8312,-7.8511,-7.8511,-7.8511,-7.8511,-7.8511,-7.8511,-7.8511,-7.8511,-7.8511,-7.8511,-7.8511,-7.8511,-7.8477,-7.8511,-7.8113,-7.7802,-7.7594,-7.7296,-7.7219,-7.7525,-7.7844,-7.8259,-7.873,-7.9594,-8.0168,-8.0221,-8.0829,-8.1326,-8.1624,-8.1691,-8.1525,-8.1293,-8.1591,-8.1923,-8.2353,-8.2787,-8.3052,-8.3108,-8.322,-8.3332,-8.3332,-8.3332,-8.3332,-8.3388,-8.3554,-8.372,-8.3741,-8.4014,-8.4392,-8.4924,-8.5771,-8.6221,-8.6151,-8.6272,-8.6079,-8.5704,-8.5739,-8.5612,-8.4855,-8.4284,-8.3774,-8.3263,-8.2742,-8.2408,-8.2303,-8.213,-8.193,-8.1741,-8.1646,-8.193,-8.213,-8.2453,-8.2906,-8.3611,-8.429,-8.4944,-8.5336,-8.5682,-8.5835,-8.5835,-8.5871,-8.5909,-8.5909,-8.5909,-8.5909,-8.5547,-8.4605,-8.3809,-8.3229,-8.2577,-8.178,-8.1273,-8.1165,-8.1128,-7.4221,-7.4221,-7.4221,-7.4221,-7.4221,-7.4255,-7.4288,-7.4387,-7.4884,-7.5098,-7.5198,-7.5761,-7.5761,-7.5927,-7.586,-7.5993,-7.6357,-7.7053,-7.7517,-7.7583,-7.8246,-7.8477,-7.8511,-7.8511,-7.8511,-7.8511,-7.8511,-7.8511,-7.8511,-7.8511,-7.8511,-7.8511,-7.8511,-7.8564,-7.8564,-7.8564,-7.8458,-7.8255,-7.8155,-7.8244,-7.8502,-7.862,-7.8767,-7.9184,-7.9867,-8.0428,-8.0617,-8.1216,-8.1989,-8.2684,-8.285,-8.2552,-8.221,-8.2045,-8.2244,-8.2963,-8.3187,-8.3443,-8.3554,-8.372,-8.3829,-8.3884,-8.3939,-8.3905,-8.396,-8.4177,-8.4392,-8.4553,-8.4785,-8.5308,-8.5669,-8.6573,-8.6843,-8.6627,-8.6616,-8.5968,-8.5179,-8.5044,-8.4502,-8.405,-8.3542,-8.3125,-8.2755,-8.2338,-8.2071,-8.1836,-8.1741,-8.1646,-8.1538,-8.1538,-8.1836,-8.2176,-8.2544,-8.3314,-8.4081,-8.4579,-8.5261,-8.5531,-8.5909,-8.5909,-8.5909,-8.5909,-8.5909,-8.5909,-8.5909,-8.5909,-8.5692,-8.4968,-8.4243,-8.3664,-8.2903,-8.2034,-8.1563,-8.1201,-8.1237,-7.4221,-7.4221,-7.4221,-7.4221,-7.4221,-7.4221,-7.4288,-7.4221,-7.4487,-7.442,-7.4487,-7.4553,-7.4635,-7.4602,-7.4535,-7.4867,-7.5628,-7.6622,-7.7318,-7.7484,-7.8113,-7.8511,-7.8511,-7.8511,-7.8511,-7.8511,-7.8511,-7.8511,-7.8511,-7.8511,-7.8511,-7.8511,-7.8511,-7.8564,-7.8777,-7.883,-7.8955,-7.9016,-7.9035,-7.919,-7.9396,-7.9447,-7.943,-7.9629,-8.0129,-8.0301,-8.0414,-8.1138,-8.1856,-8.2022,-8.2585,-8.2863,-8.2932,-8.2954,-8.311,-8.3265,-8.3609,-8.3829,-8.4069,-8.4156,-8.4285,-8.4392,-8.4553,-8.45,-8.4606,-8.4943,-8.5256,-8.5515,-8.604,-8.6587,-8.6734,-8.7443,-8.7738,-8.7444,-8.6636,-8.5848,-8.5049,-8.4306,-8.362,-8.3354,-8.2905,-8.25,-8.2268,-8.2152,-8.1977,-8.1836,-8.1741,-8.1694,-8.1599,-8.1646,-8.1896,-8.2269,-8.2681,-8.3654,-8.4538,-8.5024,-8.5531,-8.5682,-8.5909,-8.5909,-8.5909,-8.5909,-8.5909,-8.5909,-8.5909,-8.5909,-8.5583,-8.5185,-8.4786,-8.4243,-8.3301,-8.236,-8.2143,-8.1961,-8.1853,-7.4966,-7.5264,-7.5264,-7.5264,-7.5264,-7.5264,-7.5264,-7.5231,-7.49,-7.4734,-7.4686,-7.442,-7.4221,-7.4221,-7.4221,-7.4453,-7.5032,-7.6192,-7.6788,-7.7053,-7.7947,-7.8511,-7.8511,-7.8511,-7.8511,-7.8511,-7.8511,-7.8511,-7.8511,-7.8511,-7.8511,-7.8511,-7.8511,-7.8617,-7.883,-7.8883,-7.9198,-7.9492,-7.9647,-7.975,-7.9955,-8.0006,-7.9955,-7.9902,-7.9983,-8.0091,-8.0135,-8.046,-8.1227,-8.1746,-8.2154,-8.2654,-8.3199,-8.3609,-8.3775,-8.3829,-8.4102,-8.4392,-8.4766,-8.4977,-8.5239,-8.5446,-8.5498,-8.5498,-8.5601,-8.5923,-8.6325,-8.672,-8.706,-8.7585,-8.7585,-8.8224,-8.8184,-8.767,-8.6838,-8.5988,-8.5003,-8.4146,-8.3624,-8.316,-8.272,-8.2395,-8.1999,-8.1918,-8.1871,-8.1789,-8.1823,-8.1892,-8.1961,-8.2232,-8.2581,-8.2886,-8.3455,-8.4087,-8.4904,-8.5297,-8.5608,-8.5797,-8.5909,-8.5909,-8.5909,-8.5909,-8.5909,-8.5909,-8.5909,-8.5909,-8.5837,-8.5547,-8.5185,-8.4823,-8.4098,-8.3446,-8.3012,-8.2758,-8.2613,-7.5794,-7.6291,-7.6291,-7.6291,-7.6291,-7.6291,-7.6291,-7.6159,-7.5529,-7.5231,-7.5165,-7.4586,-7.4221,-7.4221,-7.4221,-7.4321,-7.452,-7.5827,-7.6424,-7.692,-7.7914,-7.8511,-7.8511,-7.8511,-7.8511,-7.8511,-7.8511,-7.8511,-7.8511,-7.8511,-7.8511,-7.8511,-7.8511,-7.8724,-7.8936,-7.9146,-7.9407,-7.9699,-7.9904,-8.0006,-8.0158,-8.0209,-8.0107,-7.9904,-7.9853,-7.9846,-7.9861,-8.0068,-8.0451,-8.1138,-8.1736,-8.2278,-8.311,-8.3893,-8.4372,-8.4533,-8.4713,-8.5134,-8.5618,-8.5958,-8.621,-8.6558,-8.6558,-8.6593,-8.6706,-8.7012,-8.7503,-8.8005,-8.8315,-8.8452,-8.8452,-8.8766,-8.8562,-8.7905,-8.7246,-8.6491,-8.5367,-8.4495,-8.4062,-8.3516,-8.288,-8.2764,-8.2855,-8.2949,-8.317,-8.331,-8.3345,-8.3369,-8.345,-8.3542,-8.3756,-8.3991,-8.4336,-8.4778,-8.5222,-8.5453,-8.5721,-8.5871,-8.5909,-8.5909,-8.5909,-8.5909,-8.5909,-8.5909,-8.5909,-8.5909,-8.5909,-8.5909,-8.5583,-8.5221,-8.4895,-8.446,-8.3881,-8.3483,-8.3265,-7.6225,-7.6324,-7.6324,-7.6291,-7.6357,-7.639,-7.6357,-7.6291,-7.5695,-7.5264,-7.533,-7.4568,-7.4288,-7.4221,-7.4221,-7.4586,-7.5198,-7.5894,-7.6622,-7.7219,-7.808,-7.8511,-7.8511,-7.8511,-7.8511,-7.8511,-7.8511,-7.8511,-7.8511,-7.8511,-7.8511,-7.8511,-7.8724,-7.8988,-7.9232,-7.9407,-7.9853,-8.0107,-8.0158,-8.0158,-8.0209,-8.0209,-8.0158,-8.0107,-7.9955,-7.9714,-7.9637,-7.9741,-8.0061,-8.0089,-8.1381,-8.2255,-8.2904,-8.3928,-8.4856,-8.5446,-8.584,-8.6059,-8.6622,-8.6867,-8.7109,-8.7443,-8.7585,-8.7585,-8.7726,-8.8005,-8.8471,-8.8995,-8.9249,-8.9206,-8.9154,-8.9371,-8.9047,-8.8402,-8.7564,-8.6754,-8.5752,-8.5272,-8.4834,-8.4639,-8.4235,-8.4318,-8.4374,-8.4482,-8.4588,-8.4728,-8.4833,-8.4831,-8.4908,-8.4968,-8.5146,-8.5393,-8.5192,-8.5542,-8.5634,-8.5827,-8.5759,-8.5909,-8.5909,-8.5909,-8.5909,-8.5909,-8.5909,-8.5909,-8.5909,-8.5909,-8.5909,-8.5873,-8.5837,-8.5619,-8.5257,-8.4968,-8.4642,-8.4279,-8.4026,-7.755,-7.755,-7.755,-7.755,-7.7583,-7.755,-7.7583,-7.7417,-7.6788,-7.6225,-7.5794,-7.5098,-7.4568,-7.4288,-7.4221,-7.4619,-7.5297,-7.6026,-7.6722,-7.745,-7.8146,-7.8511,-7.8511,-7.8511,-7.8511,-7.8511,-7.8511,-7.8511,-7.8511,-7.8511,-7.8511,-7.8564,-7.8777,-7.9041,-7.9507,-7.9647,-7.9955,-8.0107,-8.0209,-8.0209,-8.0209,-8.0209,-8.0209,-8.0209,-8.0107,-7.9801,-7.9541,-7.9518,-7.9668,-7.9799,-8.0971,-8.2051,-8.3027,-8.422,-8.5446,-8.6294,-8.6804,-8.7109,-8.7443,-8.7644,-8.8005,-8.8325,-8.8506,-8.8686,-8.8819,-8.8951,-8.9249,-8.9628,-8.9755,-8.9713,-8.9543,-8.9586,-8.9198,-8.8615,-8.7881,-8.7024,-8.6333,-8.6137,-8.5804,-8.5707,-8.5724,-8.5879,-8.5881,-8.5706,-8.5761,-8.5928,-8.6037,-8.6109,-8.6222,-8.6304,-8.6579,-8.6885,-8.6553,-8.625,-8.6225,-8.6195,-8.5906,-8.5909,-8.5909,-8.5909,-8.5909,-8.5909,-8.5909,-8.5909,-8.5909,-8.5909,-8.5909,-8.5909,-8.5873,-8.5764,-8.5619,-8.5402,-8.5185,-8.5293,-8.5112,-7.8511,-7.8511,-7.8511,-7.8511,-7.8511,-7.8511,-7.8477,-7.8411,-7.7682,-7.6954,-7.6225,-7.5397,-7.4686,-7.442,-7.4487,-7.4933,-7.5595,-7.6258,-7.6987,-7.7682,-7.8179,-7.8477,-7.8511,-7.8511,-7.8511,-7.8511,-7.8511,-7.8564,-7.8617,-7.8617,-7.8617,-7.8617,-7.8936,-7.9365,-7.976,-8.0172,-8.0462,-8.0902,-8.0682,-8.0547,-8.0513,-8.0276,-8.0209,-8.0209,-8.0158,-8.0006,-7.9596,-7.9526,-7.9599,-7.9735,-8.0842,-8.2007,-8.2889,-8.447,-8.5737,-8.6607,-8.7288,-8.7808,-8.8086,-8.8361,-8.881,-8.9075,-8.9292,-8.9421,-8.9677,-8.9797,-8.9881,-9.0131,-9.0131,-9.0006,-8.9797,-8.9713,-8.9328,-8.8801,-8.8143,-8.7293,-8.6577,-8.6512,-8.6616,-8.6682,-8.6943,-8.7572,-8.7463,-8.6989,-8.6931,-8.7098,-8.7208,-8.7386,-8.7562,-8.7694,-8.7757,-8.8045,-8.7552,-8.7058,-8.6663,-8.6561,-8.6235,-8.5945,-8.5945,-8.5909,-8.5909,-8.5909,-8.5909,-8.5909,-8.5909,-8.5909,-8.5909,-8.5909,-8.5909,-8.5837,-8.5764,-8.5837,-8.5801,-8.5909,-8.5873,-7.8511,-7.8511,-7.8511,-7.8511,-7.8511,-7.8511,-7.8511,-7.8477,-7.7782,-7.7053,-7.6291,-7.5032,-7.4502,-7.4436,-7.4999,-7.5595,-7.6291,-7.702,-7.7649,-7.8146,-7.8477,-7.8511,-7.8511,-7.8511,-7.8511,-7.8511,-7.8564,-7.8671,-7.8863,-7.9083,-7.8983,-7.8936,-7.9432,-7.9995,-8.0557,-8.0967,-8.1391,-8.1697,-8.146,-8.1224,-8.1054,-8.075,-8.0412,-8.0344,-8.0276,-8.0057,-7.9835,-7.9952,-7.9931,-7.98,-8.1221,-8.2177,-8.3069,-8.4797,-8.609,-8.6755,-8.7667,-8.8167,-8.8487,-8.8934,-8.9292,-8.9586,-8.9797,-9.0006,-9.0172,-9.0213,-9.0335,-9.0457,-9.0457,-9.0295,-9.0048,-8.9839,-8.9457,-8.8801,-8.8259,-8.7784,-8.7186,-8.7017,-8.717,-8.755,-8.7923,-8.8361,-8.881,-8.8294,-8.8291,-8.8449,-8.8655,-8.8822,-8.8947,-8.9076,-8.8982,-8.8891,-8.8432,-8.786,-8.7211,-8.6923,-8.6597,-8.6235,-8.6054,-8.5982,-8.5909,-8.5909,-8.5909,-8.5909,-8.5909,-8.5909,-8.5909,-8.5909,-8.5909,-8.5909,-8.5909,-8.5909,-8.5909,-8.5909,-8.5909,-7.8511,-7.8511,-7.8511,-7.8511,-7.8511,-7.8511,-7.8511,-7.8477,-7.8212,-7.7682,-7.692,-7.596,-7.5463,-7.5562,-7.5728,-7.6324,-7.6954,-7.7219,-7.7881,-7.8312,-7.8511,-7.8511,-7.8511,-7.8511,-7.8511,-7.8564,-7.8671,-7.9076,-7.9602,-7.9814,-8.0393,-8.0565,-8.0502,-8.0823,-8.1368,-8.188,-8.2187,-8.2272,-8.2171,-8.2002,-8.1934,-8.1799,-8.1562,-8.1562,-8.1562,-8.1407,-8.1234,-8.1148,-8.0991,-8.1173,-8.2177,-8.2795,-8.3448,-8.5341,-8.639,-8.6985,-8.789,-8.8396,-8.8712,-8.9241,-8.9839,-9.0136,-9.0299,-9.0376,-9.0457,-9.0497,-9.0537,-9.0578,-9.0618,-9.0416,-9.0084,-8.9959,-8.9664,-8.8846,-8.8351,-8.8029,-8.7749,-8.7548,-8.7561,-8.7912,-8.8234,-8.8667,-8.9154,-8.9514,-8.969,-8.9898,-9.0095,-9.0218,-9.0114,-9.0083,-8.9874,-8.9698,-8.9235,-8.8876,-8.8263,-8.7611,-8.6996,-8.6597,-8.6271,-8.6126,-8.609,-8.5909,-8.5909,-8.5909,-8.5909,-8.5909,-8.5909,-8.5909,-8.5909,-8.5909,-8.5909,-8.5909,-8.5909,-8.5909,-8.5909,-7.8511,-7.8511,-7.8511,-7.8511,-7.8511,-7.8511,-7.8511,-7.8511,-7.8511,-7.8113,-7.7384,-7.6655,-7.6291,-7.6357,-7.6589,-7.6821,-7.7351,-7.7682,-7.8047,-7.8291,-7.8511,-7.8511,-7.8511,-7.8511,-7.8564,-7.8651,-7.9163,-7.9655,-8.0307,-8.0713,-8.1428,-8.1941,-8.2046,-8.2147,-8.2349,-8.2825,-8.305,-8.305,-8.2813,-8.2746,-8.2746,-8.2475,-8.234,-8.2306,-8.2272,-8.222,-8.203,-8.1944,-8.1873,-8.2162,-8.2844,-8.365,-8.4507,-8.5543,-8.6671,-8.7322,-8.7936,-8.8532,-8.8801,-8.9414,-9.0131,-9.0421,-9.0541,-9.0578,-9.0618,-9.0618,-9.0618,-9.0618,-9.0618,-9.0457,-9.0084,-8.9959,-8.9628,-8.8934,-8.8667,-8.8361,-8.8167,-8.7983,-8.8075,-8.827,-8.8587,-8.8934,-8.95,-8.9965,-9.0131,-9.0295,-9.0376,-9.0421,-9.0425,-9.0429,-9.0429,-9.0252,-8.9998,-8.9676,-8.9314,-8.8662,-8.7974,-8.7358,-8.6959,-8.6525,-8.6344,-8.6163,-8.5945,-8.5909,-8.5909,-8.5909,-8.5909,-8.5909,-8.5909,-8.5909,-8.5909,-8.5909,-8.5909,-8.5909,-8.5909,-7.8424,-7.8511,-7.8511,-7.8511,-7.8511,-7.8511,-7.8511,-7.8511,-7.8511,-7.8146,-7.7517,-7.6788,-7.6523,-7.6655,-7.7185,-7.7484,-7.7649,-7.8146,-7.8444,-7.8477,-7.8511,-7.8511,-7.8511,-7.8511,-7.877,-7.9083,-7.9608,-8.0359,-8.1062,-8.1686,-8.2518,-8.3182,-8.325,-8.3302,-8.3524,-8.4147,-8.4539,-8.4437,-8.3761,-8.3558,-8.3389,-8.2983,-8.2813,-8.278,-8.2813,-8.2829,-8.2777,-8.2743,-8.2777,-8.2983,-8.3598,-8.4267,-8.4728,-8.5915,-8.6804,-8.713,-8.8029,-8.8567,-8.8747,-8.95,-9.0089,-9.0497,-9.0578,-9.0618,-9.0618,-9.0618,-9.0618,-9.0618,-9.0618,-9.0416,-9.0172,-8.9959,-8.9543,-8.9198,-8.8899,-8.8676,-8.8442,-8.8305,-8.8396,-8.8542,-8.881,-8.9162,-8.9797,-9.0254,-9.0457,-9.0578,-9.0618,-9.0618,-9.0618,-9.0618,-9.0618,-9.0545,-9.0364,-9.0183,-8.9821,-8.9495,-8.8951,-8.8263,-8.7648,-8.7141,-8.6706,-8.6416,-8.6235,-8.6018,-8.5909,-8.5909,-8.5909,-8.5909,-8.5909,-8.5909,-8.5909,-8.5909,-8.5909,-8.5909,-8.5909,-7.7782,-7.7815,-7.8312,-7.8511,-7.8511,-7.8511,-7.8511,-7.8511,-7.8511,-7.8378,-7.8146,-7.7848,-7.7782,-7.7881,-7.7914,-7.808,-7.8179,-7.8246,-7.8511,-7.8511,-7.8511,-7.8511,-7.8511,-7.8704,-7.9063,-7.9708,-8.0354,-8.1341,-8.2393,-8.2788,-8.3366,-8.4065,-8.4133,-8.4234,-8.4268,-8.4573,-8.4606,-8.4606,-8.4336,-8.4234,-8.42,-8.3964,-8.3795,-8.3761,-8.3761,-8.3727,-8.3727,-8.3693,-8.3798,-8.3955,-8.4624,-8.5002,-8.5394,-8.6459,-8.6936,-8.7275,-8.8029,-8.8801,-8.9198,-8.9755,-9.0125,-9.0335,-9.0501,-9.0618,-9.0618,-9.0618,-9.0618,-9.0618,-9.0618,-9.0457,-9.0254,-9.0084,-8.9713,-8.9328,-8.8987,-8.8801,-8.8622,-8.8532,-8.8577,-8.8766,-8.9031,-8.9464,-9.0048,-9.0335,-9.0578,-9.0618,-9.0618,-9.0618,-9.0618,-9.0618,-9.0618,-9.0618,-9.0509,-9.0436,-9.0219,-8.9893,-8.964,-8.9096,-8.8336,-8.7648,-8.7213,-8.6923,-8.6452,-8.6235,-8.6054,-8.5909,-8.5909,-8.5909,-8.5909,-8.5909,-8.5871,-8.5871,-8.5835,-8.5871,-8.5909,-7.7417,-7.7517,-7.8212,-7.8511,-7.8511,-7.8511,-7.8511,-7.8511,-7.8511,-7.8511,-7.8511,-7.8511,-7.8477,-7.8477,-7.8511,-7.8511,-7.8511,-7.8511,-7.8511,-7.8511,-7.8511,-7.8564,-7.8671,-7.8863,-7.9494,-8.022,-8.1073,-8.1974,-8.311,-8.3621,-8.4133,-8.4384,-8.4606,-8.4539,-8.4573,-8.4606,-8.4606,-8.4606,-8.4505,-8.4539,-8.4539,-8.4505,-8.4539,-8.4539,-8.4539,-8.4539,-8.4606,-8.4747,-8.4853,-8.5116,-8.5428,-8.5737,-8.6144,-8.6642,-8.7082,-8.7466,-8.8075,-8.8846,-8.9328,-8.9833,-9.0084,-9.0208,-9.0457,-9.0618,-9.0618,-9.0618,-9.0618,-9.0618,-9.0654,-9.0533,-9.0371,-9.0203,-8.9839,-8.9457,-8.9198,-8.8978,-8.8934,-8.8846,-8.889,-8.911,-8.9292,-8.9761,-9.0136,-9.0376,-9.0618,-9.0618,-9.0618,-9.0618,-9.0618,-9.0578,-9.0578,-9.0578,-9.0578,-9.0505,-9.0436,-9.0219,-9.0002,-8.9857,-8.9129,-8.8294,-8.8118,-8.7865,-8.7141,-8.6525,-8.6489,-8.638,-8.6018,-8.5909,-8.5945,-8.5871,-8.5797,-8.5759,-8.5797,-8.5759,-8.5759,-7.7351,-7.7484,-7.8179,-7.8477,-7.8511,-7.8511,-7.8511,-7.8511,-7.8511,-7.8511,-7.8511,-7.8511,-7.8511,-7.8511,-7.8511,-7.8511,-7.8511,-7.8511,-7.8511,-7.8511,-7.8564,-7.8671,-7.883,-7.9022,-7.9872,-8.0823,-8.1638,-8.2469,-8.3505,-8.4099,-8.4505,-8.4553,-8.4606,-8.4606,-8.4606,-8.4606,-8.4606,-8.4606,-8.4606,-8.4606,-8.4606,-8.4606,-8.4606,-8.4606,-8.4694,-8.4694,-8.48,-8.4958,-8.5116,-8.5325,-8.5635,-8.5992,-8.6394,-8.6824,-8.7213,-8.769,-8.834,-8.8801,-8.932,-8.9749,-9.0139,-9.0341,-9.0597,-9.061,-9.0762,-9.0871,-9.1016,-9.1016,-9.1052,-9.075,-9.048,-9.0203,-8.9959,-8.9671,-8.9457,-8.9328,-8.9285,-8.9277,-8.9241,-8.9371,-8.9586,-8.9923,-9.0218,-9.0461,-9.0618,-9.0618,-9.0618,-9.0541,-9.0501,-9.0537,-9.0497,-9.0497,-9.0537,-9.0537,-9.0429,-9.024,-9.0204,-8.9979,-8.9694,-8.9079,-8.8942,-8.8547,-8.7857,-8.7239,-8.7102,-8.6851,-8.6452,-8.6163,-8.6018,-8.5869,-8.5721,-8.5646,-8.5646,-8.5492,-8.5414,-7.6192,-7.6689,-7.7417,-7.8047,-7.8424,-7.8511,-7.8511,-7.8511,-7.8511,-7.8511,-7.8511,-7.8511,-7.8511,-7.8511,-7.8511,-7.8511,-7.8511,-7.8511,-7.8511,-7.8564,-7.8671,-7.883,-7.9041,-7.9403,-8.0386,-8.1316,-8.2181,-8.2912,-8.4012,-8.4606,-8.4606,-8.4606,-8.4606,-8.4606,-8.4606,-8.4606,-8.4606,-8.4606,-8.4606,-8.4606,-8.4606,-8.4606,-8.4606,-8.4694,-8.4853,-8.4906,-8.5011,-8.5221,-8.5428,-8.5737,-8.5992,-8.6294,-8.6593,-8.7082,-8.7596,-8.8213,-8.8667,-8.8943,-8.9285,-8.9749,-9.0252,-9.0804,-9.1207,-9.141,-9.1451,-9.1523,-9.1704,-9.1704,-9.1632,-9.1406,-9.1108,-9.08,-9.0491,-9.0181,-8.9856,-8.9543,-8.9536,-8.9543,-8.9543,-8.9628,-8.9839,-9.0089,-9.038,-9.0501,-9.0618,-9.0618,-9.0578,-9.0501,-9.0461,-9.0457,-9.0376,-9.0376,-9.0335,-9.0295,-9.0213,-9.0058,-9.0095,-9.0058,-8.9852,-8.9568,-8.9167,-8.8734,-8.8306,-8.7956,-8.7679,-8.7283,-8.6887,-8.6632,-8.6557,-8.5863,-8.5642,-8.5531,-8.5456,-8.5294,-8.502,-7.5529,-7.6026,-7.702,-7.7848,-7.8444,-7.8511,-7.8511,-7.8511,-7.8511,-7.8511,-7.8511,-7.8511,-7.8511,-7.8511,-7.8511,-7.8511,-7.8511,-7.8511,-7.8511,-7.8564,-7.883,-7.8988,-7.9251,-7.9645,-8.0677,-8.1727,-8.2506,-8.3099,-8.4268,-8.4606,-8.4606,-8.4606,-8.4606,-8.4606,-8.4606,-8.4606,-8.4606,-8.4606,-8.4606,-8.4606,-8.4606,-8.4747,-8.48,-8.4853,-8.5097,-8.5255,-8.5307,-8.5566,-8.5788,-8.6043,-8.6294,-8.6642,-8.6985,-8.7513,-8.8029,-8.8577,-8.8766,-8.9236,-8.9749,-9.0251,-9.0851,-9.1494,-9.2038,-9.2419,-9.2537,-9.2573,-9.2646,-9.2646,-9.2428,-9.217,-9.184,-9.1505,-9.1135,-9.0759,-9.0294,-8.9791,-8.9755,-8.9755,-8.9839,-8.9923,-9.0131,-9.0335,-9.0497,-9.0578,-9.0618,-9.0578,-9.0537,-9.0416,-9.0376,-9.0376,-9.0254,-9.0172,-9.0089,-9.0084,-9.0031,-9.0091,-9.0097,-9.0139,-9.0012,-8.9688,-8.9318,-8.9179,-8.9014,-8.8598,-8.8185,-8.7787,-8.7462,-8.7384,-8.7161,-8.6502,-8.5977,-8.5993,-8.5688,-8.5064,-8.4788,-7.5231,-7.543,-7.6821,-7.7782,-7.8378,-7.8477,-7.8511,-7.8511,-7.8511,-7.8511,-7.8511,-7.8511,-7.8511,-7.8511,-7.8511,-7.8511,-7.8511,-7.8564,-7.8617,-7.8564,-7.8988,-7.9198,-7.9407,-7.98,-8.073,-8.1763,-8.2611,-8.3152,-8.4234,-8.4606,-8.4606,-8.4606,-8.4606,-8.4606,-8.4606,-8.4606,-8.4606,-8.4606,-8.4606,-8.4606,-8.4694,-8.4853,-8.5116,-8.5116,-8.5359,-8.5566,-8.5618,-8.5788,-8.6093,-8.6344,-8.6642,-8.7033,-8.7688,-8.8194,-8.8664,-8.9111,-8.9432,-8.9938,-9.0514,-9.1047,-9.1691,-9.2292,-9.2868,-9.3396,-9.3624,-9.3406,-9.337,-9.3551,-9.3406,-9.3153,-9.2817,-9.198,-9.1392,-9.1062,-9.0568,-9.0228,-9.0006,-9.0006,-9.0089,-9.0172,-9.0295,-9.0497,-9.0537,-9.0618,-9.0537,-9.0537,-9.0674,-9.0588,-9.0532,-9.0532,-9.0449,-9.0318,-9.0365,-9.038,-9.0345,-9.0373,-9.0244,-9.0143,-9.015,-9.0221,-9.0123,-9.0006,-8.9826,-8.9343,-8.8855,-8.8465,-8.8215,-8.8061,-8.7833,-8.7196,-8.6768,-8.6595,-8.6062,-8.5138,-8.4463,-7.4818,-7.5397,-7.6821,-7.7517,-7.7749,-7.8279,-7.8511,-7.8511,-7.8511,-7.8511,-7.8511,-7.8511,-7.8511,-7.8511,-7.8511,-7.8511,-7.8564,-7.8671,-7.8777,-7.8988,-7.9251,-7.9459,-7.975,-7.9938,-8.0682,-8.1409,-8.2238,-8.3219,-8.4302,-8.4606,-8.4606,-8.4606,-8.4606,-8.4606,-8.4606,-8.4606,-8.4606,-8.4606,-8.4606,-8.4606,-8.4694,-8.4906,-8.5116,-8.5273,-8.548,-8.5788,-8.5941,-8.6244,-8.6444,-8.6691,-8.7082,-8.7828,-8.8873,-8.9371,-8.9963,-9.0569,-9.0713,-9.1033,-9.1475,-9.1951,-9.2567,-9.3248,-9.3819,-9.4373,-9.4529,-9.4167,-9.4094,-9.4312,-9.4348,-9.4094,-9.3582,-9.26,-9.1727,-9.132,-9.0882,-9.0547,-9.0249,-9.0254,-9.0335,-9.0416,-9.0497,-9.0578,-9.0618,-9.0578,-9.0497,-9.0746,-9.1098,-9.1186,-9.1145,-9.1125,-9.1118,-9.1018,-9.0962,-9.098,-9.0802,-9.0659,-9.0525,-9.0588,-9.0695,-9.0802,-9.0918,-9.0716,-9.0401,-8.9959,-8.9513,-8.9203,-8.8959,-8.8811,-8.8469,-8.7854,-8.7208,-8.6912,-8.6069,-8.5108,-8.4365,-7.4138,-7.4951,-7.5993,-7.6655,-7.702,-7.7715,-7.8014,-7.808,-7.8378,-7.8511,-7.8511,-7.8511,-7.8511,-7.8511,-7.8511,-7.8617,-7.8671,-7.883,-7.8988,-7.9198,-7.9544,-7.9699,-7.9904,-8.0141,-8.0665,-8.1325,-8.2475,-8.3524,-8.4403,-8.4606,-8.4606,-8.4606,-8.4606,-8.4606,-8.4553,-8.4553,-8.4553,-8.4606,-8.4553,-8.466,-8.48,-8.5063,-8.5325,-8.5532,-8.5788,-8.6093,-8.6344,-8.6627,-8.7032,-8.7687,-8.8435,-8.9225,-9.0068,-9.0459,-9.0854,-9.1247,-9.1568,-9.2004,-9.2474,-9.2906,-9.3415,-9.409,-9.4584,-9.5072,-9.5109,-9.4783,-9.4783,-9.4964,-9.4964,-9.4746,-9.4312,-9.3474,-9.275,-9.2238,-9.1257,-9.0529,-9.0457,-9.0457,-9.0497,-9.0537,-9.0578,-9.0578,-9.0618,-9.0618,-9.0646,-9.1021,-9.1372,-9.1595,-9.1585,-9.1869,-9.1817,-9.172,-9.1665,-9.1296,-9.0941,-9.0824,-9.0814,-9.0946,-9.1183,-9.1118,-9.1131,-9.114,-9.101,-9.0538,-9.0247,-9.0048,-8.9842,-8.9477,-8.9163,-8.8648,-8.7868,-8.715,-8.6161,-8.5311,-8.4724,-7.3575,-7.4237,-7.505,-7.5628,-7.6258,-7.6954,-7.7351,-7.755,-7.808,-7.8444,-7.8511,-7.8511,-7.8511,-7.8511,-7.8564,-7.8724,-7.8883,-7.9094,-7.9251,-7.944,-7.975,-7.9904,-8.0006,-8.0141,-8.0665,-8.146,-8.2509,-8.3422,-8.4302,-8.4471,-8.4606,-8.4606,-8.4553,-8.4553,-8.4553,-8.45,-8.45,-8.45,-8.4587,-8.48,-8.5063,-8.5377,-8.5583,-8.584,-8.6194,-8.6478,-8.6746,-8.7165,-8.7722,-8.8632,-8.9741,-9.0562,-9.1215,-9.1549,-9.1871,-9.2229,-9.2549,-9.2968,-9.3394,-9.3798,-9.4366,-9.4855,-9.5242,-9.5362,-9.5398,-9.5362,-9.5362,-9.5362,-9.5326,-9.5181,-9.4783,-9.4058,-9.337,-9.2646,-9.1559,-9.0618,-9.0581,-9.0618,-9.0618,-9.0618,-9.0654,-9.0654,-9.0799,-9.0799,-9.0999,-9.1377,-9.1631,-9.1814,-9.2028,-9.2496,-9.2755,-9.2549,-9.2403,-9.1889,-9.1374,-9.1281,-9.1411,-9.147,-9.1647,-9.1502,-9.1412,-9.1568,-9.1506,-9.1082,-9.0824,-9.0642,-9.0324,-8.9923,-8.9556,-8.9149,-8.8277,-8.735,-8.6682,-8.5851,-8.5289,-7.3508,-7.4237,-7.4966,-7.5363,-7.5595,-7.6225,-7.6854,-7.7384,-7.755,-7.7947,-7.8378,-7.8511,-7.8511,-7.8511,-7.8724,-7.8936,-7.9094,-7.9355,-7.9596,-7.975,-7.9955,-8.0057,-8.0158,-8.0209,-8.0648,-8.1478,-8.2342,-8.2983,-8.4088,-8.451,-8.4606,-8.464,-8.464,-8.45,-8.4319,-8.4285,-8.4285,-8.4285,-8.4426,-8.464,-8.5255,-8.5514,-8.5635,-8.5941,-8.6394,-8.6924,-8.7533,-8.8195,-8.9008,-8.9882,-9.0728,-9.1559,-9.2118,-9.2639,-9.2997,-9.3345,-9.3673,-9.3948,-9.4338,-9.4582,-9.5,-9.5163,-9.5398,-9.5398,-9.5398,-9.5398,-9.5362,-9.5362,-9.5362,-9.5362,-9.4891,-9.3805,-9.2972,-9.2392,-9.1487,-9.0907,-9.0618,-9.0618,-9.0618,-9.069,-9.0762,-9.1088,-9.1595,-9.1582,-9.163,-9.1998,-9.2468,-9.2645,-9.2675,-9.3148,-9.3547,-9.3303,-9.2986,-9.2908,-9.2636,-9.221,-9.2149,-9.2207,-9.2281,-9.2224,-9.2219,-9.2204,-9.1995,-9.1701,-9.1312,-9.0982,-9.0659,-9.0221,-8.96,-8.9075,-8.8325,-8.7562,-8.695,-8.6275,-8.5634]}]]